EW1734 Weather Reports


Display with metric or nautical units.
time (UTC)temp
F
wind
direction
speed
MPH
gust
MPH
rain 1hr
in
rain 24hr
in
rain mn
in
humidity
%
barometer
mb
20260903065839 63 64 1.0 1.0 0.00 0.00 0.00 49 1015.2
20260903065831 63 46 0.0 0.0 0.00 0.00 0.00 48 1014.4
20260903065802 63 46 0.0 0.0 0.00 0.00 0.00 48 1014.3
20260903065731 63 46 0.0 0.0 0.00 0.00 0.00 48 1014.3
20260903065721 63 46 0.0 0.0 0.00 0.00 0.00 48 1014.3
20260903065715 63 46 0.0 0.0 0.00 0.00 0.00 48 1014.3
20260903065553 63 46 0.0 0.0 0.00 0.00 0.00 48 1014.3
20260903065549 63 46 0.0 0.0 0.00 0.00 0.00 48 1014.2
20260903065402 63 46 0.0 0.0 0.00 0.00 0.00 48 1014.4
20260903065339 64 55 0.0 2.0 0.00 0.00 0.00 48 1015.2
20260903065331 63 46 0.0 0.0 0.00 0.00 0.00 48 1014.4
20260903065310 63 74 0.0 0.0 0.00 0.00 0.00 48 1014.3
20260903065306 63 46 0.0 0.0 0.00 0.00 0.00 48 1014.2
20260903065003 63 46 0.0 0.0 0.00 0.00 0.00 48 1014.3
20260903064932 63 46 0.0 1.0 0.00 0.00 0.00 48 1014.3
20260903064916 63 74 0.0 0.0 0.00 0.00 0.00 48 1014.3
20260903064832 64 48 1.0 2.0 0.00 0.00 0.00 47 1015.1
20260903064807 64 46 1.0 0.0 0.00 0.00 0.00 47 1014.2
20260903064746 63 74 0.0 0.0 0.00 0.00 0.00 48 1014.3
20260903064616 63 74 0.0 0.0 0.00 0.00 0.00 48 1014.3
20260903064553 63 74 0.0 1.0 0.00 0.00 0.00 47 1014.3
20260903064546 63 74 0.0 0.0 0.00 0.00 0.00 48 1014.3
20260903064420 63 46 1.0 0.0 0.00 0.00 0.00 48 1014.1
20260903064410 64 46 1.0 0.0 0.00 0.00 0.00 47 1014.1
20260903064358 63 74 0.0 0.0 0.00 0.00 0.00 48 1014.3
20260903064350 63 74 0.0 0.0 0.00 0.00 0.00 48 1014.3
20260903064328 64 13 0.0 2.0 0.00 0.00 0.00 47 1015.2
20260903064236 63 74 0.0 0.0 0.00 0.00 0.00 48 1014.3
20260903064223 63 74 0.0 0.0 0.00 0.00 0.00 48 1014.3
20260903064103 63 74 0.0 0.0 0.00 0.00 0.00 47 1014.3
20260903064055 63 74 0.0 0.0 0.00 0.00 0.00 47 1014.3
20260903063922 63 46 1.0 0.0 0.00 0.00 0.00 47 1014.1
20260903063912 63 46 1.0 0.0 0.00 0.00 0.00 48 1014.1
20260903063824 63 63 0.0 1.0 0.00 0.00 0.00 47 1015.2
20260903063732 63 46 1.0 0.0 0.00 0.00 0.00 48 1014.1
20260903063722 64 46 1.0 0.0 0.00 0.00 0.00 47 1014.2
20260903063712 63 46 1.0 0.0 0.00 0.00 0.00 48 1014.1
20260903063531 64 46 1.0 0.0 0.00 0.00 0.00 47 1014.1
20260903063517 64 46 1.0 0.0 0.00 0.00 0.00 47 1014.2
20260903063511 64 46 1.0 0.0 0.00 0.00 0.00 47 1014.1
20260903063501 64 46 1.0 0.0 0.00 0.00 0.00 47 1014.2
20260903063318 63 72 2.0 2.0 0.00 0.00 0.00 47 1015.3
20260903063145 64 46 1.0 0.0 0.00 0.00 0.00 47 1014.2
20260903063119 64 72 0.0 0.0 0.00 0.00 0.00 47 1014.2
20260903063112 64 46 1.0 0.0 0.00 0.00 0.00 47 1014.2
20260903062932 64 46 1.0 2.0 0.00 0.00 0.00 47 1014.2
20260903062910 63 72 0.0 0.0 0.00 0.00 0.00 47 1014.2
20260903062902 64 72 0.0 0.0 0.00 0.00 0.00 47 1014.2
20260903062831 64 72 0.0 0.0 0.00 0.00 0.00 47 1014.2
20260903062814 64 53 1.0 2.0 0.00 0.00 0.00 46 1015.1
20260903062736 63 72 0.0 0.0 0.00 0.00 0.00 48 1014.2
20260903062731 64 72 0.0 0.0 0.00 0.00 0.00 47 1014.2
20260903062703 64 72 0.0 0.0 0.00 0.00 0.00 47 1014.2
20260903062650 64 72 0.0 0.0 0.00 0.00 0.00 47 1014.2
20260903062410 0 0.0 0.0 0.00 0.00 0.00 1014.1
20260903062400 63 72 0.0 0.0 0.00 0.00 0.00 47 1014.2
20260903062314 63 66 1.0 1.0 0.00 0.00 0.00 48 1015.1
20260903062133 64 72 0.0 0.0 0.00 0.00 0.00 46 1014.2
20260903062043 64 72 0.0 0.0 0.00 0.00 0.00 46 1014.2
20260903062034 64 72 0.0 0.0 0.00 0.00 0.00 46 1014.2
20260903062024 64 72 0.0 0.0 0.00 0.00 0.00 46 1014.2
20260903061811 64 55 0.0 2.0 0.00 0.00 0.00 45 1015.2
20260903061704 0 0.0 0.0 0.00 0.00 0.00 1014.0
20260903061421 0 0.0 0.0 0.00 0.00 0.00 1014.2
20260903061309 64 20 2.0 2.0 0.00 0.00 0.00 45 1015.0
20260903061214 0 0.0 0.0 0.00 0.00 0.00 1014.3
20260903061007 0 0.0 0.0 0.00 0.00 0.00 1014.0
20260903060805 64 57 0.0 1.0 0.00 0.00 0.00 46 1014.8
20260903060724 0 0.0 0.0 0.00 0.00 0.00 1014.2
20260903060518 0 0.0 0.0 0.00 0.00 0.00 1014.1
20260903060310 0 0.0 0.0 0.00 0.00 0.00 1014.0
20260903060300 63 51 0.0 2.0 0.00 0.00 0.00 45 1014.9
20260903060029 0 0.0 0.0 0.00 0.00 0.00 1013.9
20260903055821 0 0.0 0.0 0.00 0.00 0.00 1014.0
20260903055757 64 58 0.0 1.0 0.00 0.00 0.00 44 1015.0
20260903055613 0 0.0 0.0 0.00 0.00 0.00 1013.9
20260903055556 0 0.0 0.0 0.00 0.00 0.00 1014.0
20260903055406 0 0.0 0.0 0.00 0.00 0.00 1014.1
20260903055256 64 79 0.0 1.0 0.00 0.00 0.00 44 1015.0
20260903055232 0 0.0 0.0 0.00 0.00 0.00 1014.1
20260903054917 0 0.0 0.0 0.00 0.00 0.00 1014.2
20260903054809 0 0.0 0.0 0.00 0.00 0.00 1014.0
20260903054751 64 57 1.0 2.0 0.00 0.00 0.00 42 1015.1
20260903054426 0 0.0 0.0 0.00 0.00 0.00 1014.0
20260903054325 0 0.0 0.0 0.00 0.00 0.00 1014.3
20260903054246 64 61 0.0 1.0 0.00 0.00 0.00 43 1015.0
20260903054012 0 0.0 0.0 0.00 0.00 0.00 1014.2
20260903053910 0 0.0 0.0 0.00 0.00 0.00 1014.1
20260903053743 64 66 0.0 2.0 0.00 0.00 0.00 43 1015.0
20260903053558 0 0.0 0.0 0.00 0.00 0.00 1014.0
20260903053242 65 13 0.0 2.0 0.00 0.00 0.00 45 1015.1
20260903053121 0 0.0 0.0 0.00 0.00 0.00 1014.1
20260903052913 0 0.0 0.0 0.00 0.00 0.00 1014.2
20260903052738 65 0 0.0 2.0 0.00 0.00 0.00 44 1015.0
20260903052706 0 0.0 0.0 0.00 0.00 0.00 1014.0
20260903052422 0 0.0 0.0 0.00 0.00 0.00 1013.9
20260903052234 65 13 0.0 2.0 0.00 0.00 0.00 43 1015.1
20260903052218 0 0.0 0.0 0.00 0.00 0.00 1014.1
20260903052200 0 0.0 0.0 0.00 0.00 0.00 1014.2
20260903052009 0 0.0 0.0 0.00 0.00 0.00 1014.1
20260903051830 0 0.0 0.0 0.00 0.00 0.00 1014.1
20260903051729 65 42 0.0 2.0 0.00 0.00 0.00 43 1015.1
20260903051520 0 0.0 0.0 0.00 0.00 0.00 1014.1
20260903051256 0 0.0 0.0 0.00 0.00 0.00 1014.1
20260903051224 66 37 0.0 2.0 0.00 0.00 0.00 44 1015.1
20260903051105 0 0.0 0.0 0.00 0.00 0.00 1014.1
20260903050720 66 36 1.0 2.0 0.00 0.00 0.00 44 1014.9
20260903050614 0 0.0 0.0 0.00 0.00 0.00 1014.1
20260903050408 67 0.0 0.0 0.00 0.00 0.00 55 1014.1
20260903050357 67 0.0 0.0 0.00 0.00 0.00 55 1014.3
20260903050219 66 47 0.0 2.0 0.00 0.00 0.00 45 1015.0
20260903050126 67 0.0 0.0 0.00 0.00 0.00 55 1014.0
20260903045714 66 89 0.0 2.0 0.00 0.00 0.00 49 1015.1
20260903045649 67 77 0.0 0.0 0.00 0.00 0.00 55 1014.2
20260903045619 67 77 0.0 0.0 0.00 0.00 0.00 55 1014.2
20260903045519 67 77 0.0 0.0 0.00 0.00 0.00 55 1014.3
20260903045448 67 77 0.0 0.0 0.00 0.00 0.00 55 1014.1
20260903045419 67 77 0.0 0.0 0.00 0.00 0.00 55 1014.3
20260903045320 67 77 0.0 0.0 0.00 0.00 0.00 55 1014.3
20260903045250 67 77 0.0 0.0 0.00 0.00 0.00 55 1014.3
20260903045219 67 77 0.0 0.0 0.00 0.00 0.00 55 1014.3
20260903045210 66 68 2.0 2.0 0.00 0.00 0.00 49 1015.1
20260903045119 67 77 0.0 0.0 0.00 0.00 0.00 55 1014.3
20260903045027 67 50 0.0 0.0 0.00 0.00 0.00 55 1014.2
20260903045019 67 77 0.0 0.0 0.00 0.00 0.00 55 1014.3
20260903044919 67 77 0.0 0.0 0.00 0.00 0.00 55 1014.3
20260903044821 67 77 0.0 0.0 0.00 0.00 0.00 55 1014.3
20260903044750 67 77 0.0 0.0 0.00 0.00 0.00 55 1014.3
20260903044731 67 50 0.0 0.0 0.00 0.00 0.00 58 1014.2
20260903044720 67 77 0.0 1.0 0.00 0.00 0.00 55 1014.3
20260903044706 67 25 0.0 2.0 0.00 0.00 0.00 53 1015.1
20260903044659 67 50 0.0 0.0 0.00 0.00 0.00 55 1014.2
20260903044519 67 50 0.0 0.0 0.00 0.00 0.00 55 1014.2
20260903044448 67 50 0.0 0.0 0.00 0.00 0.00 55 1014.2
20260903044431 67 50 0.0 0.0 0.00 0.00 0.00 58 1014.2
20260903044420 67 50 0.0 0.0 0.00 0.00 0.00 58 1014.2
20260903044359 67 50 0.0 0.0 0.00 0.00 0.00 58 1014.2
20260903044219 67 50 0.0 0.0 0.00 0.00 0.00 58 1014.2
20260903044201 66 116 0.0 1.0 0.00 0.00 0.00 57 1015.2
20260903044121 67 50 0.0 0.0 0.00 0.00 0.00 58 1014.2
20260903044059 67 50 0.0 0.0 0.00 0.00 0.00 58 1014.2
20260903043919 67 50 0.0 0.0 0.00 0.00 0.00 58 1014.2
20260903043819 67 50 0.0 0.0 0.00 0.00 0.00 58 1014.2
20260903043749 67 50 0.0 0.0 0.00 0.00 0.00 58 1014.2
20260903043719 67 50 0.0 0.0 0.00 0.00 0.00 58 1014.2
20260903043658 66 89 0.0 1.0 0.00 0.00 0.00 58 1015.2
20260903043650 67 89 0.0 0.0 0.00 0.00 0.00 58 1014.2
20260903043619 67 89 0.0 0.0 0.00 0.00 0.00 58 1014.2
20260903043555 67 89 0.0 0.0 0.00 0.00 0.00 58 1014.2
20260903043533 67 89 0.0 0.0 0.00 0.00 0.00 58 1014.2
20260903043419 67 89 0.0 0.0 0.00 0.00 0.00 58 1014.2
20260903043359 67 89 0.0 0.0 0.00 0.00 0.00 58 1014.2
20260903043246 67 89 0.0 0.0 0.00 0.00 0.00 58 1014.2
20260903043222 67 89 0.0 0.0 0.00 0.00 0.00 60 1014.2
20260903043213 67 89 0.0 0.0 0.00 0.00 0.00 58 1014.2
20260903043157 67 77 0.0 0.0 0.00 0.00 0.00 58 1015.1
20260903043040 0 0.0 0.0 0.00 0.00 0.00 1014.2
20260903043031 67 89 0.0 0.0 0.00 0.00 0.00 60 1014.2
20260903042933 67 89 0.0 0.0 0.00 0.00 0.00 60 1014.2
20260903042846 67 89 0.0 0.0 0.00 0.00 0.00 60 1014.2
20260903042713 67 89 0.0 0.0 0.00 0.00 0.00 60 1014.2
20260903042656 67 89 0.0 0.0 0.00 0.00 0.00 59 1015.2
20260903042310 0 0.0 0.0 0.00 0.00 0.00 1014.2
20260903042151 68 110 0.0 0.0 0.00 0.00 0.00 57 1015.2
20260903042029 68 0.0 0.0 0.00 0.00 0.00 55 1014.2
20260903041958 68 129 0.0 0.0 0.00 0.00 0.00 55 1014.1
20260903041847 68 0.0 0.0 0.00 0.00 0.00 55 1014.2
20260903041822 68 0.0 0.0 0.00 0.00 0.00 55 1014.1
20260903041648 68 89 0.0 0.0 0.00 0.00 0.00 57 1014.9
20260903041624 68 0.0 0.0 0.00 0.00 0.00 55 1014.1
20260903041157 68 129 0.0 0.0 0.00 0.00 0.00 55 1014.1
20260903041143 68 68 0.0 1.0 0.00 0.00 0.00 57 1014.8
20260903041133 68 129 0.0 0.0 0.00 0.00 0.00 55 1014.1
20260903040938 68 129 0.0 0.0 0.00 0.00 0.00 55 1014.1
20260903040906 68 129 0.0 0.0 0.00 0.00 0.00 55 1014.1
20260903040843 68 129 0.0 0.0 0.00 0.00 0.00 55 1014.1
20260903040833 68 129 0.0 0.0 0.00 0.00 0.00 55 1014.1
20260903040642 68 129 0.0 0.0 0.00 0.00 0.00 55 1014.1
20260903040607 68 129 0.0 0.0 0.00 0.00 0.00 55 1014.1
20260903040536 68 129 0.0 0.0 0.00 0.00 0.00 55 1014.1
20260903040506 68 129 0.0 0.0 0.00 0.00 0.00 55 1014.1
20260903040438 0 0.0 0.0 0.00 0.00 0.00 1013.9
20260903040427 68 129 0.0 0.0 0.00 0.00 0.00 55 1014.1
20260903040413 68 129 0.0 0.0 0.00 0.00 0.00 55 1014.1
20260903040138 69 65 0.0 2.0 0.00 0.00 0.00 56 1014.8
20260903040115 0 0.0 0.0 0.00 0.00 0.00 1014.1
20260903040001 0 0.0 0.0 0.00 0.00 0.00 1013.9
20260903035729 70 0.0 0.0 0.00 0.00 0.00 52 1013.8
20260903035634 69 46 0.0 1.0 0.00 0.00 0.00 57 1014.9
20260903035129 69 37 0.0 1.0 0.00 0.00 0.00 56 1014.7
20260903034929 70 164 0.0 0.0 0.00 0.00 0.00 52 1014.0
20260903034911 70 164 0.0 0.0 0.00 0.00 0.00 52 1013.6
20260903034859 70 164 0.0 0.0 0.00 0.00 0.00 52 1013.9
20260903034829 70 164 0.0 0.0 0.00 0.00 0.00 52 1013.9
20260903034800 70 164 0.0 0.0 0.00 0.00 0.00 52 1013.9
20260903034726 70 164 0.0 0.0 0.00 0.00 0.00 52 1013.9
20260903034659 70 164 0.0 0.0 0.00 0.00 0.00 52 1013.8
20260903034633 70 164 0.0 0.0 0.00 0.00 0.00 52 1013.6
20260903034629 70 164 0.0 0.0 0.00 0.00 0.00 52 1013.8
20260903034624 69 50 0.0 0.0 0.00 0.00 0.00 54 1014.8
20260903034604 70 164 0.0 0.0 0.00 0.00 0.00 52 1013.6
20260903034546 70 164 0.0 0.0 0.00 0.00 0.00 52 1013.7
20260903034331 70 164 0.0 0.0 0.00 0.00 0.00 52 1013.6
20260903034307 70 95 2.0 0.0 0.00 0.00 0.00 52 1013.6
20260903034258 70 164 0.0 0.0 0.00 0.00 0.00 52 1013.6
20260903034119 69 121 0.0 2.0 0.00 0.00 0.00 53 1014.7
20260903034001 70 164 0.0 1.0 0.00 0.00 0.00 52 1013.6
20260903033929 70 95 2.0 0.0 0.00 0.00 0.00 52 1013.6
20260903033830 70 95 2.0 0.0 0.00 0.00 0.00 52 1013.6
20260903033801 70 95 2.0 0.0 0.00 0.00 0.00 52 1013.6
20260903033729 70 95 2.0 0.0 0.00 0.00 0.00 52 1013.6
20260903033718 70 95 2.0 0.0 0.00 0.00 0.00 51 1013.6
20260903033711 70 95 2.0 0.0 0.00 0.00 0.00 52 1013.6
20260903033614 69 184 0.0 2.0 0.00 0.00 0.00 53 1014.6
20260903033530 70 95 2.0 0.0 0.00 0.00 0.00 52 1013.6
20260903033436 70 95 2.0 2.0 0.00 0.00 0.00 51 1013.6
20260903033430 70 95 2.0 0.0 0.00 0.00 0.00 52 1013.6
20260903033332 70 95 2.0 0.0 0.00 0.00 0.00 52 1013.6
20260903033246 70 95 2.0 0.0 0.00 0.00 0.00 52 1013.6
20260903033111 70 95 2.0 0.0 0.00 0.00 0.00 51 1013.6
20260903032933 70 68 0.0 0.0 0.00 0.00 0.00 50 1013.6
20260903032929 70 68 0.0 0.0 0.00 0.00 0.00 51 1013.6
20260903032913 70 68 0.0 0.0 0.00 0.00 0.00 51 1013.6
20260903032832 70 68 0.0 0.0 0.00 0.00 0.00 51 1013.6
20260903032801 70 68 0.0 0.0 0.00 0.00 0.00 51 1013.6
20260903032729 70 68 0.0 0.0 0.00 0.00 0.00 51 1013.6
20260903032629 70 68 0.0 0.0 0.00 0.00 0.00 51 1013.6
20260903032610 70 144 0.0 2.0 0.00 0.00 0.00 51 1014.5
20260903032545 70 68 0.0 0.0 0.00 0.00 0.00 51 1013.6
20260903032401 70 68 0.0 0.0 0.00 0.00 0.00 50 1013.6
20260903032331 70 68 0.0 0.0 0.00 0.00 0.00 50 1013.6
20260903032230 70 68 0.0 0.0 0.00 0.00 0.00 50 1013.6
20260903032210 70 126 0.0 0.0 0.00 0.00 0.00 51 1013.6
20260903032200 70 68 0.0 0.0 0.00 0.00 0.00 50 1013.6
20260903032130 70 68 0.0 0.0 0.00 0.00 0.00 50 1013.6
20260903032106 70 124 0.0 2.0 0.00 0.00 0.00 50 1014.5
20260903032031 70 68 0.0 0.0 0.00 0.00 0.00 51 1013.6
20260903032000 70 68 0.0 2.0 0.00 0.00 0.00 51 1013.6
20260903031943 70 126 0.0 0.0 0.00 0.00 0.00 52 1013.6
20260903031929 70 126 0.0 0.0 0.00 0.00 0.00 51 1013.6
20260903031900 70 126 0.0 0.0 0.00 0.00 0.00 51 1013.6
20260903031846 70 126 0.0 0.0 0.00 0.00 0.00 52 1013.6
20260903031659 70 126 0.0 0.0 0.00 0.00 0.00 51 1013.6
20260903031629 70 126 0.0 0.0 0.00 0.00 0.00 51 1013.6
20260903031616 70 126 0.0 0.0 0.00 0.00 0.00 51 1013.6
20260903031609 70 126 0.0 0.0 0.00 0.00 0.00 51 1013.6
20260903031606 70 49 0.0 1.0 0.00 0.00 0.00 52 1014.5
20260903031429 70 126 0.0 0.0 0.00 0.00 0.00 52 1013.6
20260903031359 70 126 0.0 0.0 0.00 0.00 0.00 52 1013.6
20260903031329 70 126 0.0 0.0 0.00 0.00 0.00 51 1013.6
20260903031259 70 126 0.0 0.0 0.00 0.00 0.00 52 1013.6
20260903031229 70 126 0.0 0.0 0.00 0.00 0.00 52 1013.6
20260903031216 70 66 0.0 0.0 0.00 0.00 0.00 51 1013.6
20260903031209 70 126 0.0 0.0 0.00 0.00 0.00 51 1013.6
20260903031101 70 129 0.0 0.0 0.00 0.00 0.00 52 1014.5
20260903031031 70 126 0.0 0.0 0.00 0.00 0.00 51 1013.6
20260903031002 70 126 0.0 0.0 0.00 0.00 0.00 52 1013.6
20260903030930 70 66 0.0 0.0 0.00 0.00 0.00 52 1013.6
20260903030906 71 66 0.0 0.0 0.00 0.00 0.00 51 1013.6
20260903030900 70 66 0.0 0.0 0.00 0.00 0.00 52 1013.6
20260903030847 70 66 0.0 0.0 0.00 0.00 0.00 51 1013.6
20260903030701 71 66 0.0 0.0 0.00 0.00 0.00 51 1013.6
20260903030636 71 293 0.0 0.0 0.00 0.00 0.00 51 1013.5
20260903030629 71 66 0.0 0.0 0.00 0.00 0.00 51 1013.6
20260903030557 71 66 0.0 0.0 0.00 0.00 0.00 51 1013.6
20260903030330 71 66 0.0 0.0 0.00 0.00 0.00 51 1013.6
20260903030309 71 66 0.0 0.0 0.00 0.00 0.00 51 1013.6
20260903030300 71 66 0.0 0.0 0.00 0.00 0.00 51 1013.6
20260903030130 71 66 0.0 0.0 0.00 0.00 0.00 53 1013.6
20260903030108 71 66 0.0 0.0 0.00 0.00 0.00 53 1013.6
20260903030053 71 117 0.0 0.0 0.00 0.00 0.00 52 1014.5
20260903030031 71 66 0.0 0.0 0.00 0.00 0.00 53 1013.6
20260903030019 71 293 0.0 0.0 0.00 0.00 0.00 52 1013.5
20260903030002 71 66 0.0 0.0 0.00 0.00 0.00 53 1013.6
20260903025930 71 293 0.0 0.0 0.00 0.00 0.00 53 1013.5
20260903025910 71 293 0.0 0.0 0.00 0.00 0.00 51 1013.5
20260903025838 71 293 0.0 0.0 0.00 0.00 0.00 52 1013.5
20260903025830 71 293 0.0 0.0 0.00 0.00 0.00 52 1013.5
20260903025820 71 293 0.0 0.0 0.00 0.00 0.00 51 1013.5
20260903025804 71 293 0.0 0.0 0.00 0.00 0.00 51 1013.5
20260903025547 71 15 0.0 1.0 0.00 0.00 0.00 52 1014.4
20260903025413 71 103 0.0 0.0 0.00 0.00 0.00 50 1013.3
20260903025400 71 293 0.0 0.0 0.00 0.00 0.00 51 1013.5
20260903025330 71 293 0.0 0.0 0.00 0.00 0.00 50 1013.5
20260903025305 71 293 0.0 0.0 0.00 0.00 0.00 50 1013.5
20260903025230 71 293 0.0 0.0 0.00 0.00 0.00 51 1013.5
20260903025159 71 293 0.0 0.0 0.00 0.00 0.00 51 1013.5
20260903025142 72 103 0.0 0.0 0.00 0.00 0.00 50 1013.3
20260903025129 71 293 0.0 0.0 0.00 0.00 0.00 50 1013.5
20260903025051 71 293 0.0 0.0 0.00 0.00 0.00 50 1013.5
20260903025044 71 62 0.0 2.0 0.00 0.00 0.00 50 1014.4
20260903025041 71 293 0.0 2.0 0.00 0.00 0.00 50 1013.5
20260903024846 72 103 0.0 0.0 0.00 0.00 0.00 48 1013.3
20260903024842 72 103 0.0 0.0 0.00 0.00 0.00 48 1013.3
20260903024838 71 103 0.0 0.0 0.00 0.00 0.00 50 1013.3
20260903024828 71 103 0.0 0.0 0.00 0.00 0.00 50 1013.3
20260903024811 72 103 0.0 0.0 0.00 0.00 0.00 50 1013.3
20260903024630 72 103 0.0 0.0 0.00 0.00 0.00 50 1013.3
20260903024543 72 116 0.0 2.0 0.00 0.00 0.00 49 1014.5
20260903024532 72 103 0.0 0.0 0.00 0.00 0.00 49 1013.3
20260903024521 72 103 0.0 0.0 0.00 0.00 0.00 49 1013.3
20260903024513 72 108 0.0 0.0 0.00 0.00 0.00 48 1013.2
20260903024505 72 103 0.0 0.0 0.00 0.00 0.00 49 1013.3
20260903024456 72 103 0.0 0.0 0.00 0.00 0.00 49 1013.3
20260903024146 72 103 0.0 0.0 0.00 0.00 0.00 49 1013.3
20260903024043 72 25 1.0 1.0 0.00 0.00 0.00 49 1014.4
20260903024001 72 103 0.0 0.0 0.00 0.00 0.00 49 1013.3
20260903023930 72 108 0.0 0.0 0.00 0.00 0.00 48 1013.2
20260903023911 72 108 0.0 0.0 0.00 0.00 0.00 48 1013.2
20260903023735 72 108 0.0 0.0 0.00 0.00 0.00 48 1013.2
20260903023659 72 108 0.0 0.0 0.00 0.00 0.00 48 1013.2
20260903023629 72 108 0.0 0.0 0.00 0.00 0.00 48 1013.2
20260903023600 72 108 0.0 0.0 0.00 0.00 0.00 50 1013.2
20260903023538 72 147 0.0 1.0 0.00 0.00 0.00 49 1014.3
20260903023530 72 108 0.0 0.0 0.00 0.00 0.00 49 1013.2
20260903023500 72 108 0.0 0.0 0.00 0.00 0.00 49 1013.2
20260903023429 72 108 0.0 0.0 0.00 0.00 0.00 49 1013.2
20260903023409 72 356 1.0 0.0 0.00 0.00 0.00 49 1013.2
20260903023400 72 108 0.0 0.0 0.00 0.00 0.00 49 1013.2
20260903023329 72 108 0.0 0.0 0.00 0.00 0.00 49 1013.2
20260903023300 72 108 0.0 0.0 0.00 0.00 0.00 49 1013.2
20260903023230 72 108 0.0 0.0 0.00 0.00 0.00 49 1013.2
20260903023140 72 356 1.0 0.0 0.00 0.00 0.00 48 1013.2
20260903023131 72 108 0.0 0.0 0.00 0.00 0.00 49 1013.2
20260903023104 72 356 1.0 0.0 0.00 0.00 0.00 49 1013.2
20260903023054 72 108 0.0 0.0 0.00 0.00 0.00 49 1013.2
20260903023044 72 108 0.0 0.0 0.00 0.00 0.00 49 1013.2
20260903023034 72 119 0.0 1.0 0.00 0.00 0.00 49 1014.3
20260903022900 72 356 1.0 0.0 0.00 0.00 0.00 49 1013.2
20260903022835 72 356 1.0 0.0 0.00 0.00 0.00 48 1013.2
20260903022824 72 356 1.0 0.0 0.00 0.00 0.00 48 1013.2
20260903022810 72 356 1.0 0.0 0.00 0.00 0.00 50 1013.2
20260903022650 73 356 1.0 0.0 0.00 0.00 0.00 48 1013.2
20260903022645 72 356 1.0 0.0 0.00 0.00 0.00 48 1013.2
20260903022533 73 343 0.0 2.0 0.00 0.00 0.00 49 1014.2
20260903022500 73 356 1.0 0.0 0.00 0.00 0.00 49 1013.2
20260903022429 73 356 1.0 0.0 0.00 0.00 0.00 49 1013.2
20260903022400 73 356 1.0 0.0 0.00 0.00 0.00 49 1013.2
20260903022330 73 356 1.0 0.0 0.00 0.00 0.00 48 1013.2
20260903022300 73 356 1.0 0.0 0.00 0.00 0.00 48 1013.2
20260903022230 73 356 1.0 0.0 0.00 0.00 0.00 48 1013.2
20260903022209 73 356 1.0 0.0 0.00 0.00 0.00 48 1013.2
20260903022032 73 135 0.0 2.0 0.00 0.00 0.00 49 1014.2
20260903022030 73 356 1.0 0.0 0.00 0.00 0.00 48 1013.2
20260903022000 73 356 1.0 1.0 0.00 0.00 0.00 48 1013.2
20260903021929 73 29 3.0 0.0 0.00 0.00 0.00 49 1013.4
20260903021848 73 29 3.0 0.0 0.00 0.00 0.00 47 1013.4
20260903021832 73 29 3.0 0.0 0.00 0.00 0.00 48 1013.4
20260903021801 73 29 3.0 0.0 0.00 0.00 0.00 48 1013.4
20260903021738 73 29 3.0 0.0 0.00 0.00 0.00 48 1013.4
20260903021729 73 29 3.0 0.0 0.00 0.00 0.00 48 1013.4
20260903021701 73 29 3.0 0.0 0.00 0.00 0.00 48 1013.4
20260903021629 73 29 3.0 0.0 0.00 0.00 0.00 48 1013.4
20260903021600 73 29 3.0 0.0 0.00 0.00 0.00 49 1013.4
20260903021536 73 29 3.0 0.0 0.00 0.00 0.00 48 1013.4
20260903021527 73 315 1.0 3.0 0.00 0.00 0.00 48 1014.2
20260903021523 73 29 3.0 0.0 0.00 0.00 0.00 48 1013.4
20260903021231 73 29 3.0 0.0 0.00 0.00 0.00 47 1013.4
20260903021204 73 0 0.0 0.0 0.00 0.00 0.00 47 1013.4
20260903021131 73 29 3.0 0.0 0.00 0.00 0.00 47 1013.4
20260903021044 73 29 3.0 0.0 0.00 0.00 0.00 47 1013.4
20260903021021 73 197 0.0 4.0 0.00 0.00 0.00 47 1014.4
20260903021002 73 29 3.0 3.0 0.00 0.00 0.00 47 1013.4
20260903020943 74 0 0.0 0.0 0.00 0.00 0.00 47 1013.4
20260903020929 73 0 0.0 0.0 0.00 0.00 0.00 47 1013.4
20260903020844 73 0 0.0 0.0 0.00 0.00 0.00 47 1013.4
20260903020700 73 0 0.0 0.0 0.00 0.00 0.00 47 1013.4
20260903020631 74 0 0.0 0.0 0.00 0.00 0.00 47 1013.4
20260903020621 74 0 0.0 0.0 0.00 0.00 0.00 47 1013.4
20260903020610 74 0 0.0 0.0 0.00 0.00 0.00 47 1013.4
20260903020517 74 80 0.0 1.0 0.00 0.00 0.00 47 1014.4
20260903020442 74 0 0.0 0.0 0.00 0.00 0.00 46 1013.4
20260903020430 74 0 0.0 0.0 0.00 0.00 0.00 47 1013.4
20260903020359 74 0 0.0 0.0 0.00 0.00 0.00 46 1013.4
20260903020330 74 0 0.0 0.0 0.00 0.00 0.00 47 1013.4
20260903020243 74 0 0.0 0.0 0.00 0.00 0.00 47 1013.4
20260903020227 74 0 0.0 0.0 0.00 0.00 0.00 47 1013.4
20260903020017 74 0 0.0 2.0 0.00 0.00 0.00 45 1014.3
20260903015929 74 63 0.0 0.0 0.00 0.00 0.00 45 1013.3
20260903015829 74 63 0.0 0.0 0.00 0.00 0.00 45 1013.3
20260903015805 75 63 0.0 0.0 0.00 0.00 0.00 45 1013.3
20260903015732 74 63 0.0 0.0 0.00 0.00 0.00 45 1013.3
20260903015659 74 63 0.0 0.0 0.00 0.00 0.00 45 1013.3
20260903015630 74 63 0.0 0.0 0.00 0.00 0.00 44 1013.3
20260903015559 74 63 0.0 0.0 0.00 0.00 0.00 44 1013.3
20260903015528 74 63 0.0 0.0 0.00 0.00 0.00 44 1013.3
20260903015513 75 242 0.0 2.0 0.00 0.00 0.00 44 1014.3
20260903015450 74 63 0.0 0.0 0.00 0.00 0.00 44 1013.3
20260903015439 75 63 0.0 0.0 0.00 0.00 0.00 44 1013.3
20260903015306 75 63 0.0 0.0 0.00 0.00 0.00 44 1013.3
20260903015231 75 63 0.0 0.0 0.00 0.00 0.00 45 1013.3
20260903015200 75 63 0.0 0.0 0.00 0.00 0.00 45 1013.3
20260903015130 75 63 0.0 0.0 0.00 0.00 0.00 44 1013.3
20260903015029 75 63 0.0 0.0 0.00 0.00 0.00 44 1013.3
20260903015008 75 89 0.0 2.0 0.00 0.00 0.00 44 1014.2
20260903014959 75 63 0.0 0.0 0.00 0.00 0.00 44 1013.3
20260903014929 75 326 1.0 0.0 0.00 0.00 0.00 44 1013.4
20260903014841 75 326 1.0 0.0 0.00 0.00 0.00 44 1013.4
20260903014806 75 326 1.0 0.0 0.00 0.00 0.00 44 1013.4
20260903014746 75 326 1.0 0.0 0.00 0.00 0.00 42 1013.4
20260903014734 75 326 1.0 0.0 0.00 0.00 0.00 43 1013.4
20260903014629 75 326 1.0 0.0 0.00 0.00 0.00 43 1013.4
20260903014529 75 326 1.0 0.0 0.00 0.00 0.00 43 1013.4
20260903014502 75 336 2.0 3.0 0.00 0.00 0.00 42 1014.4
20260903014458 75 326 1.0 0.0 0.00 0.00 0.00 43 1013.4
20260903014434 75 326 1.0 0.0 0.00 0.00 0.00 42 1013.4
20260903014420 75 326 1.0 0.0 0.00 0.00 0.00 42 1013.4
20260903014242 75 326 1.0 0.0 0.00 0.00 0.00 42 1013.4
20260903014129 75 326 1.0 0.0 0.00 0.00 0.00 42 1013.4
20260903014031 75 326 1.0 0.0 0.00 0.00 0.00 42 1013.4
20260903014000 75 326 1.0 2.0 0.00 0.00 0.00 42 1013.4
20260903013957 75 8 0.0 3.0 0.00 0.00 0.00 42 1014.3
20260903013929 75 333 0.0 0.0 0.00 0.00 0.00 42 1013.3
20260903013829 75 333 0.0 0.0 0.00 0.00 0.00 41 1013.3
20260903013758 75 333 0.0 0.0 0.00 0.00 0.00 42 1013.3
20260903013741 76 333 0.0 0.0 0.00 0.00 0.00 42 1013.3
20260903013700 76 333 0.0 0.0 0.00 0.00 0.00 42 1013.3
20260903013628 76 333 0.0 0.0 0.00 0.00 0.00 41 1013.3
20260903013559 76 333 0.0 0.0 0.00 0.00 0.00 42 1013.3
20260903013529 76 333 0.0 0.0 0.00 0.00 0.00 42 1013.3
20260903013458 76 333 0.0 0.0 0.00 0.00 0.00 42 1013.3
20260903013456 76 327 2.0 2.0 0.00 0.00 0.00 41 1014.3
20260903013428 76 333 0.0 0.0 0.00 0.00 0.00 41 1013.3
20260903013358 76 333 0.0 0.0 0.00 0.00 0.00 42 1013.3
20260903013329 76 333 0.0 0.0 0.00 0.00 0.00 41 1013.3
20260903013320 76 271 0.0 0.0 0.00 0.00 0.00 42 1013.4
20260903013300 76 333 0.0 0.0 0.00 0.00 0.00 41 1013.3
20260903013229 76 333 0.0 0.0 0.00 0.00 0.00 42 1013.3
20260903013159 76 333 0.0 0.0 0.00 0.00 0.00 42 1013.3
20260903013129 76 333 0.0 0.0 0.00 0.00 0.00 41 1013.3
20260903013059 76 333 0.0 0.0 0.00 0.00 0.00 41 1013.3
20260903013029 76 333 0.0 0.0 0.00 0.00 0.00 42 1013.3
20260903013000 76 333 0.0 2.0 0.00 0.00 0.00 42 1013.3
20260903012956 76 254 1.0 3.0 0.00 0.00 0.00 42 1014.4
20260903012949 76 271 0.0 0.0 0.00 0.00 0.00 41 1013.4
20260903012945 76 271 0.0 0.0 0.00 0.00 0.00 42 1013.4
20260903012729 76 271 0.0 0.0 0.00 0.00 0.00 42 1013.4
20260903012658 76 271 0.0 0.0 0.00 0.00 0.00 41 1013.4
20260903012628 76 271 0.0 0.0 0.00 0.00 0.00 42 1013.4
20260903012529 76 271 0.0 0.0 0.00 0.00 0.00 42 1013.4
20260903012519 76 271 0.0 0.0 0.00 0.00 0.00 42 1013.4
20260903012508 76 271 0.0 0.0 0.00 0.00 0.00 41 1013.4
20260903012455 77 103 0.0 2.0 0.00 0.00 0.00 41 1014.3
20260903012328 76 271 0.0 0.0 0.00 0.00 0.00 41 1013.4
20260903012259 77 271 0.0 0.0 0.00 0.00 0.00 40 1013.4
20260903012228 77 271 0.0 0.0 0.00 0.00 0.00 41 1013.4
20260903012159 77 271 0.0 0.0 0.00 0.00 0.00 41 1013.4
20260903012129 77 271 0.0 0.0 0.00 0.00 0.00 41 1013.4
20260903012030 77 271 0.0 0.0 0.00 0.00 0.00 41 1013.4
20260903011959 77 271 0.0 2.0 0.00 0.00 0.00 40 1013.4
20260903011954 77 349 1.0 2.0 0.00 0.00 0.00 41 1014.3
20260903011929 77 219 0.0 0.0 0.00 0.00 0.00 40 1013.3
20260903011843 77 219 0.0 0.0 0.00 0.00 0.00 40 1013.3
20260903011830 77 219 0.0 0.0 0.00 0.00 0.00 40 1013.3
20260903011759 77 219 0.0 0.0 0.00 0.00 0.00 40 1013.3
20260903011739 77 219 0.0 0.0 0.00 0.00 0.00 40 1013.3
20260903011732 77 219 0.0 0.0 0.00 0.00 0.00 41 1013.3
20260903011629 77 219 0.0 0.0 0.00 0.00 0.00 40 1013.3
20260903011607 78 128 0.0 0.0 0.00 0.00 0.00 38 1013.4
20260903011546 77 128 0.0 0.0 0.00 0.00 0.00 38 1013.4
20260903011542 77 219 0.0 0.0 0.00 0.00 0.00 40 1013.3
20260903011534 77 219 0.0 0.0 0.00 0.00 0.00 40 1013.3
20260903011524 77 219 0.0 0.0 0.00 0.00 0.00 41 1013.3
20260903011449 77 262 0.0 2.0 0.00 0.00 0.00 40 1014.1
20260903011229 77 219 0.0 0.0 0.00 0.00 0.00 40 1013.3
20260903011206 77 219 0.0 0.0 0.00 0.00 0.00 40 1013.3
20260903011156 77 219 0.0 0.0 0.00 0.00 0.00 39 1013.3
20260903011148 77 219 0.0 0.0 0.00 0.00 0.00 39 1013.3
20260903011033 77 219 0.0 0.0 0.00 0.00 0.00 39 1013.3
20260903011023 77 219 0.0 0.0 0.00 0.00 0.00 39 1013.3
20260903011009 77 128 0.0 0.0 0.00 0.00 0.00 38 1013.4
20260903010944 77 235 0.0 2.0 0.00 0.00 0.00 38 1014.1
20260903010828 77 128 0.0 0.0 0.00 0.00 0.00 38 1013.4
20260903010758 77 128 0.0 0.0 0.00 0.00 0.00 39 1013.4
20260903010733 77 128 0.0 0.0 0.00 0.00 0.00 38 1013.4
20260903010701 78 128 0.0 0.0 0.00 0.00 0.00 38 1013.4
20260903010630 78 128 0.0 0.0 0.00 0.00 0.00 38 1013.4
20260903010620 78 128 0.0 0.0 0.00 0.00 0.00 38 1013.4
20260903010557 78 128 0.0 0.0 0.00 0.00 0.00 38 1013.4
20260903010439 78 131 1.0 2.0 0.00 0.00 0.00 38 1014.3
20260903010359 78 128 0.0 0.0 0.00 0.00 0.00 38 1013.4
20260903010328 78 128 0.0 0.0 0.00 0.00 0.00 39 1013.4
20260903010247 78 128 0.0 0.0 0.00 0.00 0.00 38 1013.4
20260903010113 78 269 0.0 0.0 0.00 0.00 0.00 39 1013.3
20260903010109 78 128 0.0 0.0 0.00 0.00 0.00 39 1013.4
20260903010031 78 128 0.0 0.0 0.00 0.00 0.00 39 1013.4
20260903010000 78 128 0.0 2.0 0.00 0.00 0.00 39 1013.4
20260903005937 78 355 1.0 3.0 0.00 0.00 0.00 39 1014.3
20260903005928 78 269 0.0 0.0 0.00 0.00 0.00 40 1013.3
20260903005916 78 269 0.0 0.0 0.00 0.00 0.00 40 1013.3
20260903005859 78 269 0.0 0.0 0.00 0.00 0.00 40 1013.3
20260903005828 78 269 0.0 0.0 0.00 0.00 0.00 39 1013.3
20260903005745 78 269 0.0 0.0 0.00 0.00 0.00 40 1013.3
20260903005544 78 269 0.0 0.0 0.00 0.00 0.00 40 1013.3
20260903005432 78 35 1.0 2.0 0.00 0.00 0.00 40 1014.3
20260903005409 78 334 1.0 0.0 0.00 0.00 0.00 40 1013.3
20260903005329 78 269 0.0 0.0 0.00 0.00 0.00 40 1013.3
20260903005259 78 269 0.0 0.0 0.00 0.00 0.00 40 1013.3
20260903005228 78 269 0.0 0.0 0.00 0.00 0.00 40 1013.3
20260903005201 78 269 0.0 0.0 0.00 0.00 0.00 40 1013.3
20260903005129 78 269 0.0 0.0 0.00 0.00 0.00 39 1013.3
20260903005100 78 269 0.0 0.0 0.00 0.00 0.00 40 1013.3
20260903005050 78 269 0.0 0.0 0.00 0.00 0.00 39 1013.3
20260903005040 78 269 0.0 1.0 0.00 0.00 0.00 40 1013.3
20260903004929 78 336 0.0 4.0 0.00 0.00 0.00 40 1014.3
20260903004903 78 334 1.0 0.0 0.00 0.00 0.00 41 1013.3
20260903004859 78 334 1.0 0.0 0.00 0.00 0.00 40 1013.3
20260903004828 78 334 1.0 0.0 0.00 0.00 0.00 40 1013.3
20260903004759 78 334 1.0 0.0 0.00 0.00 0.00 40 1013.3
20260903004730 78 334 1.0 0.0 0.00 0.00 0.00 41 1013.3
20260903004629 78 334 1.0 0.0 0.00 0.00 0.00 41 1013.3
20260903004559 78 334 1.0 0.0 0.00 0.00 0.00 40 1013.3
20260903004543 78 334 1.0 0.0 0.00 0.00 0.00 41 1013.3
20260903004423 78 281 0.0 3.0 0.00 0.00 0.00 41 1014.2
20260903004331 78 334 1.0 0.0 0.00 0.00 0.00 41 1013.3
20260903004300 78 334 1.0 0.0 0.00 0.00 0.00 41 1013.3
20260903004229 78 334 1.0 0.0 0.00 0.00 0.00 41 1013.3
20260903004129 78 334 1.0 0.0 0.00 0.00 0.00 41 1013.3
20260903004058 78 334 1.0 0.0 0.00 0.00 0.00 41 1013.3
20260903004032 79 334 1.0 0.0 0.00 0.00 0.00 41 1013.3
20260903004000 79 334 1.0 2.0 0.00 0.00 0.00 41 1013.3
20260903003928 79 340 0.0 0.0 0.00 0.00 0.00 41 1013.1
20260903003919 79 319 1.0 2.0 0.00 0.00 0.00 41 1014.1
20260903003858 79 340 0.0 0.0 0.00 0.00 0.00 41 1013.1
20260903003828 79 340 0.0 0.0 0.00 0.00 0.00 41 1013.1
20260903003730 79 340 0.0 0.0 0.00 0.00 0.00 42 1013.1
20260903003659 79 340 0.0 0.0 0.00 0.00 0.00 42 1013.1
20260903003631 79 340 0.0 0.0 0.00 0.00 0.00 41 1013.1
20260903003559 79 340 0.0 0.0 0.00 0.00 0.00 43 1013.1
20260903003530 79 340 0.0 0.0 0.00 0.00 0.00 42 1013.1
20260903003520 80 340 0.0 0.0 0.00 0.00 0.00 42 1013.1
20260903003458 79 340 0.0 0.0 0.00 0.00 0.00 41 1013.1
20260903003430 79 340 0.0 0.0 0.00 0.00 0.00 42 1013.1
20260903003414 79 23 1.0 4.0 0.00 0.00 0.00 42 1014.1
20260903003340 80 321 0.0 0.0 0.00 0.00 0.00 42 1013.2
20260903003334 79 340 0.0 0.0 0.00 0.00 0.00 42 1013.1
20260903003235 80 321 0.0 0.0 0.00 0.00 0.00 43 1013.2
20260903003230 79 340 0.0 0.0 0.00 0.00 0.00 42 1013.1
20260903003220 79 340 0.0 0.0 0.00 0.00 0.00 42 1013.1
20260903003158 80 340 0.0 0.0 0.00 0.00 0.00 42 1013.1
20260903003024 80 340 0.0 2.0 0.00 0.00 0.00 43 1013.1
20260903003010 80 321 0.0 0.0 0.00 0.00 0.00 42 1013.2
20260903002913 80 16 1.0 4.0 0.00 0.00 0.00 42 1014.1
20260903002828 80 321 0.0 0.0 0.00 0.00 0.00 43 1013.2
20260903002729 80 321 0.0 0.0 0.00 0.00 0.00 43 1013.2
20260903002659 80 321 0.0 0.0 0.00 0.00 0.00 43 1013.2
20260903002629 80 321 0.0 0.0 0.00 0.00 0.00 42 1013.2
20260903002609 80 321 0.0 0.0 0.00 0.00 0.00 43 1013.2
20260903002428 80 321 0.0 0.0 0.00 0.00 0.00 43 1013.2
20260903002409 80 0 1.0 2.0 0.00 0.00 0.00 43 1014.3
20260903002407 80 337 2.0 0.0 0.00 0.00 0.00 42 1013.3
20260903002400 80 321 0.0 0.0 0.00 0.00 0.00 43 1013.2
20260903002328 80 321 0.0 0.0 0.00 0.00 0.00 43 1013.2
20260903002236 81 337 2.0 0.0 0.00 0.00 0.00 41 1013.3
20260903002229 80 321 0.0 0.0 0.00 0.00 0.00 43 1013.2
20260903002158 80 321 0.0 0.0 0.00 0.00 0.00 42 1013.2
20260903002130 80 321 0.0 0.0 0.00 0.00 0.00 43 1013.2
20260903002049 80 321 0.0 0.0 0.00 0.00 0.00 42 1013.2
20260903002039 80 321 0.0 1.0 0.00 0.00 0.00 42 1013.2
20260903001908 81 345 0.0 2.0 0.00 0.00 0.00 42 1014.1
20260903001741 82 337 2.0 0.0 0.00 0.00 0.00 42 1013.3
20260903001729 81 337 2.0 0.0 0.00 0.00 0.00 41 1013.3
20260903001631 81 337 2.0 0.0 0.00 0.00 0.00 41 1013.3
20260903001619 83 337 2.0 0.0 0.00 0.00 0.00 41 1013.3
20260903001558 81 337 2.0 0.0 0.00 0.00 0.00 41 1013.3
20260903001528 82 337 2.0 0.0 0.00 0.00 0.00 41 1013.3
20260903001441 83 340 1.0 0.0 0.00 0.00 0.00 40 1013.2
20260903001437 82 337 2.0 0.0 0.00 0.00 0.00 41 1013.3
20260903001426 82 337 2.0 0.0 0.00 0.00 0.00 41 1013.3
20260903001416 82 337 2.0 0.0 0.00 0.00 0.00 42 1013.3
20260903001403 82 101 1.0 5.0 0.00 0.00 0.00 41 1014.1
20260903001401 82 337 2.0 0.0 0.00 0.00 0.00 41 1013.3
20260903001031 83 337 2.0 0.0 0.00 0.00 0.00 40 1013.3
20260903001001 83 337 2.0 2.0 0.00 0.00 0.00 41 1013.3
20260903000929 83 340 1.0 0.0 0.00 0.00 0.00 41 1013.2
20260903000858 83 340 1.0 0.0 0.00 0.00 0.00 41 1013.2
20260903000847 84 340 1.0 0.0 0.00 0.00 0.00 39 1013.2
20260903000843 83 340 1.0 0.0 0.00 0.00 0.00 40 1013.2
20260903000659 83 340 1.0 0.0 0.00 0.00 0.00 40 1013.2
20260903000648 84 340 1.0 0.0 0.00 0.00 0.00 39 1013.2
20260903000630 84 340 1.0 0.0 0.00 0.00 0.00 40 1013.2
20260903000613 84 340 1.0 0.0 0.00 0.00 0.00 40 1013.2
20260903000551 84 251 2.0 0.0 0.00 0.00 0.00 39 1013.4
20260903000542 84 251 2.0 0.0 0.00 0.00 0.00 40 1013.4
20260903000536 84 251 2.0 0.0 0.00 0.00 0.00 39 1013.4
20260903000529 83 340 1.0 0.0 0.00 0.00 0.00 40 1013.2
20260903000516 84 251 2.0 0.0 0.00 0.00 0.00 40 1013.4
20260903000508 84 340 1.0 0.0 0.00 0.00 0.00 40 1013.2
20260903000458 84 340 1.0 0.0 0.00 0.00 0.00 40 1013.2
20260903000355 84 303 2.0 3.0 0.00 0.00 0.00 40 1014.3
20260903000340 84 340 1.0 0.0 0.00 0.00 0.00 40 1013.2
20260903000328 84 340 1.0 0.0 0.00 0.00 0.00 39 1013.2
20260903000127 84 340 1.0 0.0 0.00 0.00 0.00 39 1013.2
20260903000104 84 340 1.0 3.0 0.00 0.00 0.00 39 1013.2
20260903000040 84 251 2.0 0.0 0.00 0.00 0.00 39 1013.4
20260902235900 84 251 2.0 0.0 0.00 0.00 0.00 39 1013.4
20260902235851 84 352 0.0 3.0 0.00 0.00 0.00 40 1014.0
20260902235612 85 251 2.0 0.0 0.00 0.00 0.00 39 1013.4
20260902235547 85 251 2.0 0.0 0.00 0.00 0.00 40 1013.4
20260902235538 85 251 2.0 0.0 0.00 0.00 0.00 40 1013.4
20260902235400 84 251 2.0 0.0 0.00 0.00 0.00 40 1013.4
20260902235346 84 289 0.0 3.0 0.00 0.00 0.00 40 1014.2
20260902235329 84 251 2.0 0.0 0.00 0.00 0.00 40 1013.4
20260902235259 84 251 2.0 0.0 0.00 0.00 0.00 41 1013.4
20260902235229 84 251 2.0 0.0 0.00 0.00 0.00 40 1013.4
20260902235130 85 251 2.0 0.0 0.00 0.00 0.00 40 1013.4
20260902235120 84 310 1.0 0.0 0.00 0.00 0.00 41 1013.3
20260902235058 84 251 2.0 0.0 0.00 0.00 0.00 41 1013.4
20260902235036 84 310 1.0 0.0 0.00 0.00 0.00 41 1013.3
20260902235032 84 251 2.0 0.0 0.00 0.00 0.00 40 1013.4
20260902235013 84 251 2.0 2.0 0.00 0.00 0.00 40 1013.4
20260902234928 84 310 1.0 0.0 0.00 0.00 0.00 41 1013.3
20260902234846 84 321 2.0 2.0 0.00 0.00 0.00 41 1014.3
20260902234843 84 310 1.0 0.0 0.00 0.00 0.00 41 1013.3
20260902234810 85 310 1.0 0.0 0.00 0.00 0.00 41 1013.3
20260902234806 85 310 1.0 0.0 0.00 0.00 0.00 41 1013.3
20260902234758 84 310 1.0 0.0 0.00 0.00 0.00 41 1013.3
20260902234459 85 310 1.0 0.0 0.00 0.00 0.00 40 1013.3
20260902234429 85 310 1.0 0.0 0.00 0.00 0.00 41 1013.3
20260902234403 85 0 1.0 0.0 0.00 0.00 0.00 41 1013.2
20260902234349 85 310 1.0 0.0 0.00 0.00 0.00 41 1013.3
20260902234345 85 302 2.0 5.0 0.00 0.00 0.00 41 1014.2
20260902234340 85 310 1.0 0.0 0.00 0.00 0.00 41 1013.3
20260902234330 86 310 1.0 0.0 0.00 0.00 0.00 40 1013.3
20260902234320 85 310 1.0 0.0 0.00 0.00 0.00 40 1013.3
20260902234040 85 0 1.0 0.0 0.00 0.00 0.00 41 1013.2
20260902234029 85 310 1.0 0.0 0.00 0.00 0.00 40 1013.3
20260902234000 85 310 1.0 2.0 0.00 0.00 0.00 40 1013.3
20260902233929 85 0 1.0 0.0 0.00 0.00 0.00 40 1013.2
20260902233901 85 0 1.0 0.0 0.00 0.00 0.00 40 1013.2
20260902233844 86 351 0.0 3.0 0.00 0.00 0.00 40 1014.4
20260902233841 86 0 1.0 0.0 0.00 0.00 0.00 40 1013.2
20260902233829 86 0 1.0 0.0 0.00 0.00 0.00 40 1013.2
20260902233819 86 0 1.0 0.0 0.00 0.00 0.00 41 1013.2
20260902233528 85 0 1.0 0.0 0.00 0.00 0.00 41 1013.2
20260902233429 85 0 1.0 0.0 0.00 0.00 0.00 41 1013.2
20260902233359 85 0 1.0 0.0 0.00 0.00 0.00 41 1013.2
20260902233339 86 246 1.0 2.0 0.00 0.00 0.00 42 1014.2
20260902233330 85 0 1.0 0.0 0.00 0.00 0.00 42 1013.2
20260902233259 85 0 1.0 0.0 0.00 0.00 0.00 42 1013.2
20260902233229 85 0 1.0 0.0 0.00 0.00 0.00 42 1013.2
20260902233128 85 0 1.0 0.0 0.00 0.00 0.00 42 1013.2
20260902233029 85 0 1.0 0.0 0.00 0.00 0.00 42 1013.2
20260902233000 85 0 1.0 1.0 0.00 0.00 0.00 43 1013.2
20260902232929 85 328 0.0 0.0 0.00 0.00 0.00 42 1013.4
20260902232859 85 328 0.0 0.0 0.00 0.00 0.00 42 1013.4
20260902232837 85 324 0.0 3.0 0.00 0.00 0.00 43 1014.2
20260902232828 85 328 0.0 0.0 0.00 0.00 0.00 42 1013.4
20260902232758 85 328 0.0 0.0 0.00 0.00 0.00 43 1013.4
20260902232729 84 328 0.0 0.0 0.00 0.00 0.00 43 1013.4
20260902232629 85 328 0.0 0.0 0.00 0.00 0.00 43 1013.4
20260902232616 85 328 0.0 0.0 0.00 0.00 0.00 43 1013.4
20260902232612 85 328 0.0 0.0 0.00 0.00 0.00 43 1013.4
20260902232528 85 328 0.0 0.0 0.00 0.00 0.00 43 1013.4
20260902232458 84 328 0.0 0.0 0.00 0.00 0.00 44 1013.4
20260902232436 85 328 0.0 0.0 0.00 0.00 0.00 43 1013.4
20260902232428 84 328 0.0 0.0 0.00 0.00 0.00 43 1013.4
20260902232358 84 328 0.0 0.0 0.00 0.00 0.00 44 1013.4
20260902232333 85 247 1.0 3.0 0.00 0.00 0.00 43 1014.1
20260902232328 85 328 0.0 0.0 0.00 0.00 0.00 43 1013.4
20260902232311 86 339 1.0 0.0 0.00 0.00 0.00 43 1013.1
20260902232306 86 339 1.0 0.0 0.00 0.00 0.00 43 1013.1
20260902232248 86 339 1.0 0.0 0.00 0.00 0.00 43 1013.1
20260902232244 85 328 0.0 0.0 0.00 0.00 0.00 43 1013.4
20260902232234 85 328 0.0 0.0 0.00 0.00 0.00 43 1013.4
20260902232224 85 328 0.0 0.0 0.00 0.00 0.00 44 1013.4
20260902231942 85 339 1.0 0.0 0.00 0.00 0.00 43 1013.1
20260902231938 85 339 1.0 0.0 0.00 0.00 0.00 42 1013.1
20260902231932 85 328 0.0 2.0 0.00 0.00 0.00 44 1013.4
20260902231915 85 339 1.0 0.0 0.00 0.00 0.00 43 1013.1
20260902231906 85 339 1.0 0.0 0.00 0.00 0.00 43 1013.1
20260902231856 86 339 1.0 0.0 0.00 0.00 0.00 42 1013.1
20260902231846 86 339 1.0 0.0 0.00 0.00 0.00 42 1013.1
20260902231832 85 300 2.0 3.0 0.00 0.00 0.00 43 1014.3
20260902231608 86 339 1.0 0.0 0.00 0.00 0.00 42 1013.1
20260902231433 85 321 1.0 0.0 0.00 0.00 0.00 42 1013.4
20260902231429 86 339 1.0 0.0 0.00 0.00 0.00 43 1013.1
20260902231416 85 321 1.0 0.0 0.00 0.00 0.00 42 1013.4
20260902231407 85 321 1.0 0.0 0.00 0.00 0.00 43 1013.4
20260902231359 85 339 1.0 0.0 0.00 0.00 0.00 43 1013.1
20260902231346 85 339 1.0 0.0 0.00 0.00 0.00 42 1013.1
20260902231327 86 263 1.0 2.0 0.00 0.00 0.00 43 1014.2
20260902231220 85 339 1.0 0.0 0.00 0.00 0.00 43 1013.1
20260902231211 85 339 1.0 0.0 0.00 0.00 0.00 44 1013.1
20260902231155 85 339 1.0 0.0 0.00 0.00 0.00 43 1013.1
20260902231022 85 339 1.0 2.0 0.00 0.00 0.00 43 1013.1
20260902230823 85 300 2.0 2.0 0.00 0.00 0.00 43 1014.3
20260902230748 85 321 1.0 0.0 0.00 0.00 0.00 43 1013.4
20260902230744 85 321 1.0 0.0 0.00 0.00 0.00 43 1013.4
20260902230600 85 321 1.0 0.0 0.00 0.00 0.00 43 1013.4
20260902230541 85 321 1.0 0.0 0.00 0.00 0.00 44 1013.4
20260902230513 86 321 1.0 0.0 0.00 0.00 0.00 43 1013.4
20260902230459 85 321 1.0 0.0 0.00 0.00 0.00 43 1013.4
20260902230428 85 321 1.0 0.0 0.00 0.00 0.00 43 1013.4
20260902230356 85 321 1.0 0.0 0.00 0.00 0.00 43 1013.4
20260902230321 86 311 2.0 3.0 0.00 0.00 0.00 43 1014.1
20260902230147 85 321 1.0 0.0 0.00 0.00 0.00 43 1013.4
20260902225958 86 321 1.0 0.0 0.00 0.00 0.00 42 1013.4
20260902225931 86 321 1.0 2.0 0.00 0.00 0.00 43 1013.4
20260902225859 86 306 1.0 0.0 0.00 0.00 0.00 43 1013.4
20260902225828 86 306 1.0 0.0 0.00 0.00 0.00 43 1013.4
20260902225816 86 285 4.0 4.0 0.00 0.00 0.00 42 1014.3
20260902225748 86 306 1.0 0.0 0.00 0.00 0.00 42 1013.4
20260902225741 86 306 1.0 0.0 0.00 0.00 0.00 43 1013.4
20260902225630 87 306 1.0 0.0 0.00 0.00 0.00 42 1013.4
20260902225611 87 306 1.0 0.0 0.00 0.00 0.00 42 1013.4
20260902225543 87 306 1.0 0.0 0.00 0.00 0.00 42 1013.4
20260902225531 87 306 1.0 0.0 0.00 0.00 0.00 41 1013.4
20260902225429 86 306 1.0 0.0 0.00 0.00 0.00 42 1013.4
20260902225410 86 306 1.0 0.0 0.00 0.00 0.00 42 1013.4
20260902225312 87 324 2.0 3.0 0.00 0.00 0.00 42 1014.2
20260902225231 87 306 1.0 0.0 0.00 0.00 0.00 42 1013.4
20260902225215 87 306 1.0 0.0 0.00 0.00 0.00 42 1013.4
20260902225032 88 306 1.0 0.0 0.00 0.00 0.00 41 1013.4
20260902224958 88 306 1.0 0.0 0.00 0.00 0.00 41 1013.4
20260902224930 88 306 1.0 2.0 0.00 0.00 0.00 42 1013.4
20260902224829 88 298 0.0 0.0 0.00 0.00 0.00 42 1013.5
20260902224810 87 265 2.0 2.0 0.00 0.00 0.00 42 1014.4
20260902224731 87 298 0.0 0.0 0.00 0.00 0.00 42 1013.5
20260902224659 87 298 0.0 0.0 0.00 0.00 0.00 42 1013.5
20260902224628 87 298 0.0 0.0 0.00 0.00 0.00 42 1013.5
20260902224600 88 298 0.0 0.0 0.00 0.00 0.00 42 1013.5
20260902224528 88 298 0.0 0.0 0.00 0.00 0.00 42 1013.5
20260902224459 88 298 0.0 0.0 0.00 0.00 0.00 42 1013.5
20260902224428 88 298 0.0 0.0 0.00 0.00 0.00 41 1013.5
20260902224358 88 298 0.0 0.0 0.00 0.00 0.00 41 1013.5
20260902224342 88 298 0.0 0.0 0.00 0.00 0.00 42 1013.5
20260902224305 88 215 0.0 3.0 0.00 0.00 0.00 41 1014.3
20260902224258 88 298 0.0 0.0 0.00 0.00 0.00 41 1013.5
20260902224228 88 298 0.0 0.0 0.00 0.00 0.00 42 1013.5
20260902224129 88 298 0.0 0.0 0.00 0.00 0.00 42 1013.5
20260902224101 88 298 0.0 0.0 0.00 0.00 0.00 42 1013.5
20260902224032 87 298 0.0 0.0 0.00 0.00 0.00 43 1013.5
20260902223959 87 298 0.0 0.0 0.00 0.00 0.00 42 1013.5
20260902223947 87 305 0.0 0.0 0.00 0.00 0.00 42 1013.5
20260902223930 87 298 0.0 1.0 0.00 0.00 0.00 42 1013.5
20260902223830 87 305 0.0 0.0 0.00 0.00 0.00 42 1013.5
20260902223802 87 305 0.0 0.0 0.00 0.00 0.00 42 1013.5
20260902223729 87 305 0.0 0.0 0.00 0.00 0.00 42 1013.5
20260902223636 87 305 0.0 0.0 0.00 0.00 0.00 43 1013.5
20260902223626 87 305 0.0 0.0 0.00 0.00 0.00 43 1013.5
20260902223616 87 305 0.0 0.0 0.00 0.00 0.00 42 1013.5
20260902223445 87 305 0.0 0.0 0.00 0.00 0.00 42 1013.5
20260902223301 87 243 7.0 11.0 0.00 0.00 0.00 41 1014.5
20260902223229 87 305 0.0 0.0 0.00 0.00 0.00 42 1013.5
20260902223149 87 305 0.0 0.0 0.00 0.00 0.00 41 1013.5
20260902223140 87 305 0.0 0.0 0.00 0.00 0.00 41 1013.5
20260902223002 87 305 0.0 0.0 0.00 0.00 0.00 42 1013.5
20260902222930 87 305 0.0 1.0 0.00 0.00 0.00 42 1013.5
20260902222843 87 179 1.0 0.0 0.00 0.00 0.00 41 1013.5
20260902222829 86 179 1.0 0.0 0.00 0.00 0.00 42 1013.5
20260902222754 86 331 1.0 4.0 0.00 0.00 0.00 42 1014.5
20260902222729 86 179 1.0 0.0 0.00 0.00 0.00 43 1013.5
20260902222658 86 179 1.0 0.0 0.00 0.00 0.00 43 1013.5
20260902222628 86 179 1.0 0.0 0.00 0.00 0.00 42 1013.5
20260902222600 86 179 1.0 0.0 0.00 0.00 0.00 42 1013.5
20260902222537 88 179 1.0 0.0 0.00 0.00 0.00 40 1013.5
20260902222533 87 179 1.0 0.0 0.00 0.00 0.00 42 1013.5
20260902222522 87 179 1.0 0.0 0.00 0.00 0.00 42 1013.5
20260902222512 87 179 1.0 0.0 0.00 0.00 0.00 41 1013.5
20260902222334 88 52 2.0 0.0 0.00 0.00 0.00 39 1013.6
20260902222329 87 179 1.0 0.0 0.00 0.00 0.00 41 1013.5
20260902222258 87 179 1.0 0.0 0.00 0.00 0.00 41 1013.5
20260902222254 87 294 0.0 4.0 0.00 0.00 0.00 41 1014.5
20260902222229 88 179 1.0 0.0 0.00 0.00 0.00 40 1013.5
20260902222209 88 52 2.0 0.0 0.00 0.00 0.00 36 1013.6
20260902222153 88 179 1.0 0.0 0.00 0.00 0.00 40 1013.5
20260902222141 88 179 1.0 0.0 0.00 0.00 0.00 40 1013.5
20260902222010 88 179 1.0 4.0 0.00 0.00 0.00 40 1013.5
20260902221841 88 52 2.0 0.0 0.00 0.00 0.00 37 1013.6
20260902221832 88 52 2.0 0.0 0.00 0.00 0.00 39 1013.6
20260902221822 88 52 2.0 0.0 0.00 0.00 0.00 38 1013.6
20260902221809 89 52 2.0 0.0 0.00 0.00 0.00 38 1013.6
20260902221748 89 261 2.0 3.0 0.00 0.00 0.00 36 1014.5
20260902221629 88 52 2.0 0.0 0.00 0.00 0.00 36 1013.6
20260902221551 87 52 2.0 0.0 0.00 0.00 0.00 32 1013.6
20260902221538 87 52 2.0 0.0 0.00 0.00 0.00 31 1013.6
20260902221534 88 52 2.0 0.0 0.00 0.00 0.00 38 1013.6
20260902221524 88 52 2.0 0.0 0.00 0.00 0.00 38 1013.6
20260902221508 88 52 2.0 0.0 0.00 0.00 0.00 37 1013.6
20260902221329 88 52 2.0 0.0 0.00 0.00 0.00 38 1013.6
20260902221252 87 240 2.0 0.0 0.00 0.00 0.00 37 1013.8
20260902221248 88 52 2.0 0.0 0.00 0.00 0.00 38 1013.6
20260902221238 88 52 2.0 0.0 0.00 0.00 0.00 36 1013.6
20260902221228 88 52 2.0 0.0 0.00 0.00 0.00 35 1013.6
20260902221219 88 52 2.0 0.0 0.00 0.00 0.00 34 1013.6
20260902220933 87 52 2.0 2.0 0.00 0.00 0.00 30 1013.6
20260902220829 87 240 2.0 0.0 0.00 0.00 0.00 30 1013.8
20260902220800 88 240 2.0 0.0 0.00 0.00 0.00 31 1013.8
20260902220743 87 256 0.0 4.0 0.00 0.00 0.00 37 1014.8
20260902220729 88 240 2.0 0.0 0.00 0.00 0.00 37 1013.8
20260902220708 87 240 2.0 0.0 0.00 0.00 0.00 37 1013.8
20260902220533 87 240 2.0 0.0 0.00 0.00 0.00 37 1013.8
20260902220458 88 240 2.0 0.0 0.00 0.00 0.00 37 1013.8
20260902220437 86 240 2.0 0.0 0.00 0.00 0.00 31 1013.8
20260902220428 87 240 2.0 0.0 0.00 0.00 0.00 36 1013.8
20260902220330 88 240 2.0 0.0 0.00 0.00 0.00 30 1013.8
20260902220258 88 240 2.0 0.0 0.00 0.00 0.00 30 1013.8
20260902220237 87 181 0.0 2.0 0.00 0.00 0.00 30 1014.8
20260902220228 87 240 2.0 0.0 0.00 0.00 0.00 30 1013.8
20260902220145 86 195 3.0 0.0 0.00 0.00 0.00 30 1013.9
20260902220141 87 240 2.0 0.0 0.00 0.00 0.00 30 1013.8
20260902220111 86 240 2.0 0.0 0.00 0.00 0.00 31 1013.8
20260902215930 85 240 2.0 2.0 0.00 0.00 0.00 31 1013.8
20260902215841 85 195 3.0 0.0 0.00 0.00 0.00 31 1013.9
20260902215800 86 195 3.0 0.0 0.00 0.00 0.00 30 1013.9
20260902215733 87 165 0.0 3.0 0.00 0.00 0.00 30 1014.8
20260902215728 86 195 3.0 0.0 0.00 0.00 0.00 30 1013.9
20260902215709 86 195 3.0 0.0 0.00 0.00 0.00 30 1013.9
20260902215529 86 195 3.0 0.0 0.00 0.00 0.00 30 1013.9
20260902215518 85 195 3.0 0.0 0.00 0.00 0.00 32 1013.9
20260902215510 86 195 3.0 0.0 0.00 0.00 0.00 31 1013.9
20260902215429 86 195 3.0 0.0 0.00 0.00 0.00 31 1013.9
20260902215358 86 195 3.0 0.0 0.00 0.00 0.00 31 1013.9
20260902215328 86 195 3.0 0.0 0.00 0.00 0.00 31 1013.9
20260902215258 86 195 3.0 0.0 0.00 0.00 0.00 31 1013.9
20260902215235 85 197 0.0 0.0 0.00 0.00 0.00 30 1013.9
20260902215229 85 195 3.0 0.0 0.00 0.00 0.00 32 1013.9
20260902215150 85 197 0.0 0.0 0.00 0.00 0.00 30 1013.9
20260902215145 85 195 3.0 0.0 0.00 0.00 0.00 32 1013.9
20260902214958 85 195 3.0 0.0 0.00 0.00 0.00 32 1013.9
20260902214931 85 195 3.0 4.0 0.00 0.00 0.00 31 1013.9
20260902214912 85 197 0.0 0.0 0.00 0.00 0.00 31 1013.9
20260902214908 85 197 0.0 0.0 0.00 0.00 0.00 31 1013.9
20260902214858 85 197 0.0 0.0 0.00 0.00 0.00 30 1013.9
20260902214724 85 219 3.0 6.0 0.00 0.00 0.00 31 1014.8
20260902214609 85 197 0.0 0.0 0.00 0.00 0.00 31 1013.9
20260902214530 85 197 0.0 0.0 0.00 0.00 0.00 30 1013.9
20260902214506 85 197 0.0 0.0 0.00 0.00 0.00 30 1013.9
20260902214432 85 197 0.0 0.0 0.00 0.00 0.00 30 1013.9
20260902214415 84 191 8.0 0.0 0.00 0.00 0.00 32 1014.0
20260902214411 84 191 8.0 0.0 0.00 0.00 0.00 32 1014.0
20260902214403 85 197 0.0 0.0 0.00 0.00 0.00 30 1013.9
20260902214354 85 197 0.0 0.0 0.00 0.00 0.00 30 1013.9
20260902214222 85 132 0.0 9.0 0.00 0.00 0.00 31 1014.9
20260902214028 85 197 0.0 0.0 0.00 0.00 0.00 31 1013.9
20260902214011 85 197 0.0 0.0 0.00 0.00 0.00 32 1013.9
20260902214000 84 197 0.0 2.0 0.00 0.00 0.00 32 1013.9
20260902213718 84 180 3.0 6.0 0.00 0.00 0.00 32 1015.0
20260902213658 84 191 8.0 0.0 0.00 0.00 0.00 31 1014.0
20260902213629 84 191 8.0 0.0 0.00 0.00 0.00 32 1014.0
20260902213559 84 191 8.0 0.0 0.00 0.00 0.00 32 1014.0
20260902213528 84 191 8.0 0.0 0.00 0.00 0.00 32 1014.0
20260902213430 84 191 8.0 0.0 0.00 0.00 0.00 31 1014.0
20260902213358 84 191 8.0 0.0 0.00 0.00 0.00 31 1014.0
20260902213330 84 191 8.0 0.0 0.00 0.00 0.00 32 1014.0
20260902213235 85 256 0.0 0.0 0.00 0.00 0.00 31 1014.2
20260902213229 84 191 8.0 0.0 0.00 0.00 0.00 32 1014.0
20260902213213 84 65 0.0 11.0 0.00 0.00 0.00 32 1015.2
20260902213129 84 191 8.0 0.0 0.00 0.00 0.00 32 1014.0
20260902213103 85 256 0.0 0.0 0.00 0.00 0.00 31 1014.2
20260902213030 85 191 8.0 0.0 0.00 0.00 0.00 31 1014.0
20260902212958 85 191 8.0 0.0 0.00 0.00 0.00 31 1014.0
20260902212929 85 191 8.0 10.0 0.00 0.00 0.00 31 1014.0
20260902212900 85 256 0.0 0.0 0.00 0.00 0.00 31 1014.2
20260902212713 85 253 0.0 3.0 0.00 0.00 0.00 32 1015.0
20260902212529 85 256 0.0 0.0 0.00 0.00 0.00 31 1014.2
20260902212508 86 256 0.0 1.0 0.00 0.00 0.00 34 1014.2
20260902212503 85 256 0.0 0.0 0.00 0.00 0.00 31 1014.2
20260902212429 85 256 0.0 0.0 0.00 0.00 0.00 31 1014.2
20260902212338 86 192 2.0 0.0 0.00 0.00 0.00 34 1014.3
20260902212328 85 256 0.0 0.0 0.00 0.00 0.00 31 1014.2
20260902212300 86 256 0.0 0.0 0.00 0.00 0.00 31 1014.2
20260902212229 86 256 0.0 0.0 0.00 0.00 0.00 30 1014.2
20260902212213 85 192 2.0 0.0 0.00 0.00 0.00 33 1014.3
20260902212209 86 288 0.0 6.0 0.00 0.00 0.00 31 1015.0
20260902212146 86 256 0.0 0.0 0.00 0.00 0.00 31 1014.2
20260902212132 86 256 0.0 0.0 0.00 0.00 0.00 34 1014.2
20260902212122 86 256 0.0 0.0 0.00 0.00 0.00 33 1014.2
20260902211848 86 192 2.0 0.0 0.00 0.00 0.00 33 1014.3
20260902211838 86 192 2.0 0.0 0.00 0.00 0.00 33 1014.3
20260902211705 85 204 3.0 4.0 0.00 0.00 0.00 33 1015.0
20260902211630 85 192 2.0 0.0 0.00 0.00 0.00 33 1014.3
20260902211600 85 192 2.0 0.0 0.00 0.00 0.00 34 1014.3
20260902211529 84 192 2.0 0.0 0.00 0.00 0.00 34 1014.3
20260902211441 84 192 2.0 0.0 0.00 0.00 0.00 34 1014.3
20260902211411 85 192 2.0 5.0 0.00 0.00 0.00 33 1014.3
20260902211329 83 192 2.0 0.0 0.00 0.00 0.00 34 1014.3
20260902211242 83 192 2.0 0.0 0.00 0.00 0.00 34 1014.3
20260902211200 84 153 6.0 7.0 0.00 0.00 0.00 34 1015.0
20260902211129 84 192 2.0 0.0 0.00 0.00 0.00 34 1014.3
20260902211055 84 192 2.0 0.0 0.00 0.00 0.00 34 1014.3
20260902211046 85 192 2.0 0.0 0.00 0.00 0.00 33 1014.3
20260902210916 83 232 2.0 0.0 0.00 0.00 0.00 36 1014.4
20260902210912 84 232 2.0 0.0 0.00 0.00 0.00 34 1014.4
20260902210828 84 232 2.0 0.0 0.00 0.00 0.00 34 1014.4
20260902210759 84 232 2.0 0.0 0.00 0.00 0.00 35 1014.4
20260902210729 84 232 2.0 0.0 0.00 0.00 0.00 35 1014.4
20260902210713 83 232 2.0 0.0 0.00 0.00 0.00 34 1014.4
20260902210659 84 214 4.0 4.0 0.00 0.00 0.00 34 1015.3
20260902210629 83 232 2.0 0.0 0.00 0.00 0.00 35 1014.4
20260902210558 83 232 2.0 0.0 0.00 0.00 0.00 35 1014.4
20260902210544 83 232 2.0 0.0 0.00 0.00 0.00 36 1014.4
20260902210359 83 232 2.0 0.0 0.00 0.00 0.00 36 1014.4
20260902210329 83 232 2.0 0.0 0.00 0.00 0.00 36 1014.4
20260902210300 83 232 2.0 0.0 0.00 0.00 0.00 36 1014.4
20260902210227 83 232 2.0 0.0 0.00 0.00 0.00 37 1014.4
20260902210159 83 232 2.0 0.0 0.00 0.00 0.00 36 1014.4
20260902210155 83 216 4.0 8.0 0.00 0.00 0.00 37 1015.2
20260902210128 83 232 2.0 0.0 0.00 0.00 0.00 37 1014.4
20260902210114 83 232 2.0 0.0 0.00 0.00 0.00 37 1014.4
20260902210031 83 232 2.0 0.0 0.00 0.00 0.00 37 1014.4
20260902210000 83 232 2.0 0.0 0.00 0.00 0.00 37 1014.4
20260902205948 84 202 2.0 0.0 0.00 0.00 0.00 37 1014.6
20260902205942 83 232 2.0 2.0 0.00 0.00 0.00 36 1014.4
20260902205906 83 202 2.0 0.0 0.00 0.00 0.00 37 1014.6
20260902205830 83 202 2.0 0.0 0.00 0.00 0.00 36 1014.6
20260902205812 83 202 2.0 0.0 0.00 0.00 0.00 39 1014.6
20260902205759 83 202 2.0 0.0 0.00 0.00 0.00 36 1014.6
20260902205729 83 202 2.0 0.0 0.00 0.00 0.00 37 1014.6
20260902205658 84 202 2.0 0.0 0.00 0.00 0.00 37 1014.6
20260902205653 84 228 2.0 10.0 0.00 0.00 0.00 36 1015.3
20260902205641 83 214 3.0 0.0 0.00 0.00 0.00 37 1014.5
20260902205628 84 202 2.0 0.0 0.00 0.00 0.00 37 1014.6
20260902205612 84 202 2.0 0.0 0.00 0.00 0.00 36 1014.6
20260902205450 84 202 2.0 0.0 0.00 0.00 0.00 38 1014.6
20260902205441 84 202 2.0 0.0 0.00 0.00 0.00 37 1014.6
20260902205258 83 202 2.0 0.0 0.00 0.00 0.00 38 1014.6
20260902205230 83 202 2.0 0.0 0.00 0.00 0.00 39 1014.6
20260902205220 83 214 3.0 0.0 0.00 0.00 0.00 38 1014.5
20260902205148 83 248 3.0 8.0 0.00 0.00 0.00 39 1015.4
20260902205132 83 202 2.0 0.0 0.00 0.00 0.00 38 1014.6
20260902205122 83 214 3.0 0.0 0.00 0.00 0.00 39 1014.5
20260902205114 83 214 3.0 0.0 0.00 0.00 0.00 37 1014.5
20260902205104 83 214 3.0 0.0 0.00 0.00 0.00 38 1014.5
20260902205052 83 202 2.0 0.0 0.00 0.00 0.00 38 1014.6
20260902205042 83 202 2.0 0.0 0.00 0.00 0.00 38 1014.6
20260902205032 83 202 2.0 5.0 0.00 0.00 0.00 39 1014.6
20260902204906 83 298 2.0 0.0 0.00 0.00 0.00 38 1014.6
20260902204857 83 214 3.0 0.0 0.00 0.00 0.00 38 1014.5
20260902204723 83 214 3.0 0.0 0.00 0.00 0.00 39 1014.5
20260902204643 83 155 2.0 7.0 0.00 0.00 0.00 39 1015.5
20260902204436 83 214 3.0 0.0 0.00 0.00 0.00 38 1014.5
20260902204138 83 104 4.0 5.0 0.00 0.00 0.00 38 1015.4
20260902204128 83 214 3.0 0.0 0.00 0.00 0.00 37 1014.5
20260902204059 83 214 3.0 0.0 0.00 0.00 0.00 37 1014.5
20260902204048 83 298 2.0 0.0 0.00 0.00 0.00 39 1014.6
20260902204030 83 214 3.0 0.0 0.00 0.00 0.00 38 1014.5
20260902203959 83 214 3.0 0.0 0.00 0.00 0.00 38 1014.5
20260902203931 84 214 3.0 4.0 0.00 0.00 0.00 37 1014.5
20260902203920 83 298 2.0 0.0 0.00 0.00 0.00 38 1014.6
20260902203910 83 298 2.0 0.0 0.00 0.00 0.00 38 1014.6
20260902203729 83 298 2.0 0.0 0.00 0.00 0.00 39 1014.6
20260902203719 83 298 2.0 0.0 0.00 0.00 0.00 39 1014.6
20260902203708 83 298 2.0 0.0 0.00 0.00 0.00 40 1014.6
20260902203634 83 72 1.0 3.0 0.00 0.00 0.00 40 1015.6
20260902203548 82 298 2.0 0.0 0.00 0.00 0.00 39 1014.6
20260902203544 83 298 2.0 0.0 0.00 0.00 0.00 39 1014.6
20260902203534 83 298 2.0 0.0 0.00 0.00 0.00 39 1014.6
20260902203524 83 298 2.0 0.0 0.00 0.00 0.00 38 1014.6
20260902203331 83 298 2.0 0.0 0.00 0.00 0.00 38 1014.6
20260902203259 83 298 2.0 0.0 0.00 0.00 0.00 38 1014.6
20260902203228 83 298 2.0 0.0 0.00 0.00 0.00 38 1014.6
20260902203211 83 298 2.0 0.0 0.00 0.00 0.00 38 1014.6
20260902203133 83 256 3.0 6.0 0.00 0.00 0.00 38 1015.4
20260902203029 82 298 2.0 0.0 0.00 0.00 0.00 39 1014.6
20260902202959 82 298 2.0 0.0 0.00 0.00 0.00 39 1014.6
20260902202941 82 298 2.0 3.0 0.00 0.00 0.00 39 1014.6
20260902202915 82 188 3.0 0.0 0.00 0.00 0.00 38 1014.6
20260902202900 82 188 3.0 0.0 0.00 0.00 0.00 39 1014.6
20260902202828 82 188 3.0 0.0 0.00 0.00 0.00 39 1014.6
20260902202758 82 188 3.0 0.0 0.00 0.00 0.00 39 1014.6
20260902202728 82 188 3.0 0.0 0.00 0.00 0.00 39 1014.6
20260902202630 83 188 3.0 0.0 0.00 0.00 0.00 38 1014.6
20260902202605 82 188 3.0 0.0 0.00 0.00 0.00 37 1014.6
20260902202553 83 188 3.0 0.0 0.00 0.00 0.00 38 1014.6
20260902202545 83 188 3.0 0.0 0.00 0.00 0.00 38 1014.6
20260902202429 83 188 3.0 0.0 0.00 0.00 0.00 38 1014.6
20260902202401 83 188 3.0 0.0 0.00 0.00 0.00 38 1014.6
20260902202329 83 188 3.0 0.0 0.00 0.00 0.00 39 1014.6
20260902202236 83 188 3.0 0.0 0.00 0.00 0.00 39 1014.6
20260902202222 82 188 3.0 0.0 0.00 0.00 0.00 38 1014.6
20260902202125 82 218 4.0 4.0 0.00 0.00 0.00 37 1015.7
20260902201929 82 188 3.0 6.0 0.00 0.00 0.00 37 1014.6
20260902201912 82 320 1.0 0.0 0.00 0.00 0.00 36 1015.1
20260902201844 82 320 1.0 0.0 0.00 0.00 0.00 38 1015.1
20260902201831 82 320 1.0 0.0 0.00 0.00 0.00 39 1015.1
20260902201802 82 320 1.0 0.0 0.00 0.00 0.00 39 1015.1
20260902201731 82 320 1.0 0.0 0.00 0.00 0.00 39 1015.1
20260902201633 82 320 1.0 0.0 0.00 0.00 0.00 39 1015.1
20260902201621 82 126 0.0 2.0 0.00 0.00 0.00 39 1015.8
20260902201545 82 320 1.0 4.0 0.00 0.00 0.00 39 1015.1
20260902201541 82 320 1.0 0.0 0.00 0.00 0.00 39 1015.1
20260902201529 82 320 1.0 0.0 0.00 0.00 0.00 39 1015.1
20260902201517 82 320 1.0 0.0 0.00 0.00 0.00 38 1015.1
20260902201329 82 320 1.0 0.0 0.00 0.00 0.00 38 1015.1
20260902201259 82 320 1.0 0.0 0.00 0.00 0.00 38 1015.1
20260902201228 82 320 1.0 0.0 0.00 0.00 0.00 38 1015.1
20260902201128 82 320 1.0 0.0 0.00 0.00 0.00 38 1015.1
20260902201120 82 217 2.0 3.0 0.00 0.00 0.00 38 1015.7
20260902201050 82 320 1.0 0.0 0.00 0.00 0.00 38 1015.1
20260902201040 82 320 1.0 0.0 0.00 0.00 0.00 39 1015.1
20260902200858 82 165 0.0 0.0 0.00 0.00 0.00 39 1015.0
20260902200828 81 165 0.0 0.0 0.00 0.00 0.00 39 1015.0
20260902200809 81 165 0.0 0.0 0.00 0.00 0.00 38 1015.0
20260902200729 81 165 0.0 0.0 0.00 0.00 0.00 39 1015.0
20260902200658 81 165 0.0 0.0 0.00 0.00 0.00 39 1015.0
20260902200638 81 165 0.0 0.0 0.00 0.00 0.00 36 1015.0
20260902200628 81 165 0.0 0.0 0.00 0.00 0.00 39 1015.0
20260902200615 81 218 1.0 3.0 0.00 0.00 0.00 39 1015.9
20260902200559 81 165 0.0 0.0 0.00 0.00 0.00 39 1015.0
20260902200541 81 165 0.0 0.0 0.00 0.00 0.00 38 1015.0
20260902200445 81 165 0.0 0.0 0.00 0.00 0.00 38 1015.0
20260902200320 81 165 0.0 0.0 0.00 0.00 0.00 37 1015.0
20260902200309 81 165 0.0 0.0 0.00 0.00 0.00 36 1015.0
20260902200130 81 165 0.0 0.0 0.00 0.00 0.00 38 1015.0
20260902200112 81 199 1.0 4.0 0.00 0.00 0.00 37 1015.9
20260902200030 81 165 0.0 0.0 0.00 0.00 0.00 38 1015.0
20260902195958 81 165 0.0 0.0 0.00 0.00 0.00 38 1015.0
20260902195929 81 165 0.0 6.0 0.00 0.00 0.00 38 1015.0
20260902195901 81 210 2.0 0.0 0.00 0.00 0.00 38 1015.3
20260902195829 81 210 2.0 0.0 0.00 0.00 0.00 37 1015.3
20260902195758 81 210 2.0 0.0 0.00 0.00 0.00 37 1015.3
20260902195728 81 210 2.0 0.0 0.00 0.00 0.00 37 1015.3
20260902195712 80 210 2.0 0.0 0.00 0.00 0.00 39 1015.3
20260902195629 82 210 2.0 0.0 0.00 0.00 0.00 37 1015.3
20260902195618 81 210 2.0 0.0 0.00 0.00 0.00 39 1015.3
20260902195602 82 156 0.0 6.0 0.00 0.00 0.00 38 1016.0
20260902195529 81 210 2.0 0.0 0.00 0.00 0.00 39 1015.3
20260902195436 81 210 2.0 0.0 0.00 0.00 0.00 39 1015.3
20260902195420 81 210 2.0 0.0 0.00 0.00 0.00 39 1015.3
20260902195409 81 210 2.0 0.0 0.00 0.00 0.00 39 1015.3
20260902195347 80 210 2.0 0.0 0.00 0.00 0.00 39 1015.3
20260902195101 81 237 2.0 7.0 0.00 0.00 0.00 40 1016.2
20260902195042 81 172 2.0 0.0 0.00 0.00 0.00 39 1015.4
20260902195031 81 210 2.0 0.0 0.00 0.00 0.00 40 1015.3
20260902194958 81 210 2.0 0.0 0.00 0.00 0.00 40 1015.3
20260902194930 81 210 2.0 6.0 0.00 0.00 0.00 40 1015.3
20260902194859 81 172 2.0 0.0 0.00 0.00 0.00 39 1015.4
20260902194828 81 172 2.0 0.0 0.00 0.00 0.00 39 1015.4
20260902194759 81 172 2.0 0.0 0.00 0.00 0.00 40 1015.4
20260902194732 81 172 2.0 0.0 0.00 0.00 0.00 41 1015.4
20260902194722 81 172 2.0 0.0 0.00 0.00 0.00 40 1015.4
20260902194710 81 172 2.0 0.0 0.00 0.00 0.00 39 1015.4
20260902194600 81 7 1.0 3.0 0.00 0.00 0.00 39 1015.9
20260902194537 79 172 2.0 0.0 0.00 0.00 0.00 42 1015.4
20260902194529 81 172 2.0 0.0 0.00 0.00 0.00 39 1015.4
20260902194459 81 172 2.0 0.0 0.00 0.00 0.00 40 1015.4
20260902194429 81 172 2.0 0.0 0.00 0.00 0.00 41 1015.4
20260902194358 81 172 2.0 0.0 0.00 0.00 0.00 40 1015.4
20260902194329 80 172 2.0 0.0 0.00 0.00 0.00 42 1015.4
20260902194259 80 172 2.0 0.0 0.00 0.00 0.00 41 1015.4
20260902194228 80 172 2.0 0.0 0.00 0.00 0.00 41 1015.4
20260902194211 80 172 2.0 0.0 0.00 0.00 0.00 41 1015.4
20260902194055 80 63 0.0 4.0 0.00 0.00 0.00 43 1016.4
20260902194028 79 172 2.0 0.0 0.00 0.00 0.00 42 1015.4
20260902194003 80 147 0.0 0.0 0.00 0.00 0.00 40 1015.5
20260902193958 79 172 2.0 0.0 0.00 0.00 0.00 42 1015.4
20260902193930 79 172 2.0 2.0 0.00 0.00 0.00 42 1015.4
20260902193859 79 147 0.0 0.0 0.00 0.00 0.00 42 1015.5
20260902193828 80 147 0.0 0.0 0.00 0.00 0.00 42 1015.5
20260902193805 80 147 0.0 0.0 0.00 0.00 0.00 41 1015.5
20260902193730 80 147 0.0 0.0 0.00 0.00 0.00 40 1015.5
20260902193649 80 147 0.0 0.0 0.00 0.00 0.00 41 1015.4
20260902193645 80 147 0.0 0.0 0.00 0.00 0.00 40 1015.5
20260902193552 80 209 4.0 4.0 0.00 0.00 0.00 40 1016.4
20260902193451 80 217 1.0 0.0 0.00 0.00 0.00 41 1015.5
20260902193447 80 147 0.0 0.0 0.00 0.00 0.00 40 1015.5
20260902193439 80 147 0.0 0.0 0.00 0.00 0.00 40 1015.5
20260902193308 80 217 1.0 0.0 0.00 0.00 0.00 41 1015.5
20260902193245 80 147 0.0 0.0 0.00 0.00 0.00 41 1015.4
20260902193119 80 217 1.0 0.0 0.00 0.00 0.00 41 1015.5
20260902193108 80 147 0.0 0.0 0.00 0.00 0.00 41 1015.5
20260902193051 81 179 4.0 4.0 0.00 0.00 0.00 41 1016.5
20260902193046 80 147 0.0 0.0 0.00 0.00 0.00 41 1015.5
20260902193035 80 147 0.0 2.0 0.00 0.00 0.00 41 1015.5
20260902192735 79 253 2.0 0.0 0.00 0.00 0.00 41 1015.7
20260902192731 80 217 1.0 0.0 0.00 0.00 0.00 41 1015.5
20260902192658 80 217 1.0 0.0 0.00 0.00 0.00 41 1015.5
20260902192628 80 217 1.0 0.0 0.00 0.00 0.00 41 1015.5
20260902192610 80 217 1.0 0.0 0.00 0.00 0.00 41 1015.5
20260902192550 81 193 0.0 6.0 0.00 0.00 0.00 41 1016.5
20260902192429 80 217 1.0 0.0 0.00 0.00 0.00 41 1015.5
20260902192418 79 217 1.0 2.0 0.00 0.00 0.00 41 1015.5
20260902192406 80 217 1.0 0.0 0.00 0.00 0.00 41 1015.5
20260902192358 80 217 1.0 0.0 0.00 0.00 0.00 41 1015.5
20260902192228 80 217 1.0 0.0 0.00 0.00 0.00 41 1015.5
20260902192129 80 217 1.0 0.0 0.00 0.00 0.00 41 1015.5
20260902192051 80 217 1.0 0.0 0.00 0.00 0.00 41 1015.5
20260902192048 80 147 0.0 4.0 0.00 0.00 0.00 41 1016.5
20260902192041 79 217 1.0 0.0 0.00 0.00 0.00 41 1015.5
20260902191909 79 253 2.0 0.0 0.00 0.00 0.00 41 1015.7
20260902191728 79 253 2.0 0.0 0.00 0.00 0.00 41 1015.7
20260902191658 79 253 2.0 0.0 0.00 0.00 0.00 41 1015.7
20260902191628 79 253 2.0 0.0 0.00 0.00 0.00 42 1015.7
20260902191559 79 253 2.0 0.0 0.00 0.00 0.00 42 1015.7
20260902191543 78 200 0.0 4.0 0.00 0.00 0.00 43 1016.6
20260902191528 78 253 2.0 0.0 0.00 0.00 0.00 43 1015.7
20260902191428 78 253 2.0 0.0 0.00 0.00 0.00 43 1015.7
20260902191400 78 253 2.0 0.0 0.00 0.00 0.00 43 1015.7
20260902191331 79 253 2.0 0.0 0.00 0.00 0.00 42 1015.7
20260902191302 79 253 2.0 0.0 0.00 0.00 0.00 43 1015.7
20260902191229 79 253 2.0 0.0 0.00 0.00 0.00 43 1015.7
20260902191130 78 253 2.0 0.0 0.00 0.00 0.00 43 1015.7
20260902191038 78 211 0.0 8.0 0.00 0.00 0.00 44 1016.5
20260902191030 78 253 2.0 0.0 0.00 0.00 0.00 43 1015.7
20260902190958 78 253 2.0 0.0 0.00 0.00 0.00 43 1015.7
20260902190931 78 253 2.0 2.0 0.00 0.00 0.00 44 1015.7
20260902190830 78 190 2.0 0.0 0.00 0.00 0.00 44 1015.8
20260902190808 79 190 2.0 0.0 0.00 0.00 0.00 43 1015.8
20260902190729 78 190 2.0 0.0 0.00 0.00 0.00 44 1015.8
20260902190629 78 190 2.0 0.0 0.00 0.00 0.00 44 1015.8
20260902190558 78 190 2.0 0.0 0.00 0.00 0.00 44 1015.8
20260902190533 79 199 5.0 6.0 0.00 0.00 0.00 43 1016.7
20260902190529 78 190 2.0 0.0 0.00 0.00 0.00 43 1015.8
20260902190448 79 184 1.0 0.0 0.00 0.00 0.00 46 1015.7
20260902190444 79 190 2.0 0.0 0.00 0.00 0.00 43 1015.8
20260902190300 79 190 2.0 0.0 0.00 0.00 0.00 43 1015.8
20260902190228 79 190 2.0 0.0 0.00 0.00 0.00 43 1015.8
20260902190133 79 184 1.0 0.0 0.00 0.00 0.00 45 1015.7
20260902190129 79 190 2.0 0.0 0.00 0.00 0.00 43 1015.8
20260902190112 79 190 2.0 0.0 0.00 0.00 0.00 44 1015.8
20260902190035 79 190 2.0 0.0 0.00 0.00 0.00 44 1015.8
20260902190029 79 174 2.0 4.0 0.00 0.00 0.00 44 1016.5
20260902190023 79 190 2.0 0.0 0.00 0.00 0.00 44 1015.8
20260902190011 79 190 2.0 4.0 0.00 0.00 0.00 43 1015.8
20260902185832 79 184 1.0 0.0 0.00 0.00 0.00 46 1015.7
20260902185805 78 184 1.0 0.0 0.00 0.00 0.00 45 1015.7
20260902185801 79 184 1.0 0.0 0.00 0.00 0.00 45 1015.7
20260902185746 79 184 1.0 0.0 0.00 0.00 0.00 46 1015.7
20260902185600 78 184 1.0 0.0 0.00 0.00 0.00 45 1015.7
20260902185529 78 184 1.0 0.0 0.00 0.00 0.00 45 1015.7
20260902185525 78 215 0.0 3.0 0.00 0.00 0.00 45 1016.6
20260902185459 78 184 1.0 0.0 0.00 0.00 0.00 45 1015.7
20260902185432 79 184 1.0 0.0 0.00 0.00 0.00 44 1015.7
20260902185422 79 184 1.0 0.0 0.00 0.00 0.00 44 1015.7
20260902185410 79 184 1.0 0.0 0.00 0.00 0.00 45 1015.7
20260902185228 78 184 1.0 0.0 0.00 0.00 0.00 45 1015.7
20260902185134 79 46 1.0 0.0 0.00 0.00 0.00 44 1015.9
20260902185129 78 184 1.0 0.0 0.00 0.00 0.00 45 1015.7
20260902185058 79 184 1.0 0.0 0.00 0.00 0.00 44 1015.7
20260902185029 80 184 1.0 0.0 0.00 0.00 0.00 44 1015.7
20260902185021 80 199 0.0 2.0 0.00 0.00 0.00 44 1016.8
20260902184959 80 184 1.0 0.0 0.00 0.00 0.00 44 1015.7
20260902184929 80 184 1.0 2.0 0.00 0.00 0.00 44 1015.7
20260902184858 80 46 1.0 0.0 0.00 0.00 0.00 44 1015.9
20260902184836 79 46 1.0 0.0 0.00 0.00 0.00 43 1015.9
20260902184827 79 46 1.0 0.0 0.00 0.00 0.00 43 1015.9
20260902184808 79 46 1.0 0.0 0.00 0.00 0.00 44 1015.9
20260902184628 79 46 1.0 0.0 0.00 0.00 0.00 45 1015.9
20260902184603 78 46 1.0 0.0 0.00 0.00 0.00 44 1015.9
20260902184559 79 46 1.0 0.0 0.00 0.00 0.00 46 1015.9
20260902184529 79 46 1.0 0.0 0.00 0.00 0.00 44 1015.9
20260902184515 79 216 0.0 3.0 0.00 0.00 0.00 45 1016.8
20260902184459 79 46 1.0 0.0 0.00 0.00 0.00 44 1015.9
20260902184428 79 46 1.0 0.0 0.00 0.00 0.00 45 1015.9
20260902184359 79 46 1.0 0.0 0.00 0.00 0.00 44 1015.9
20260902184340 77 96 2.0 0.0 0.00 0.00 0.00 46 1016.2
20260902184329 78 46 1.0 0.0 0.00 0.00 0.00 45 1015.9
20260902184249 78 96 2.0 0.0 0.00 0.00 0.00 45 1016.2
20260902184245 78 46 1.0 0.0 0.00 0.00 0.00 45 1015.9
20260902184059 78 46 1.0 0.0 0.00 0.00 0.00 44 1015.9
20260902184049 78 96 2.0 0.0 0.00 0.00 0.00 45 1016.2
20260902184041 77 96 2.0 0.0 0.00 0.00 0.00 46 1016.2
20260902184035 78 46 1.0 0.0 0.00 0.00 0.00 46 1015.9
20260902184025 78 46 1.0 0.0 0.00 0.00 0.00 45 1015.9
20260902184014 78 46 1.0 1.0 0.00 0.00 0.00 45 1015.9
20260902184011 78 23 1.0 1.0 0.00 0.00 0.00 45 1016.9
20260902184002 78 96 2.0 0.0 0.00 0.00 0.00 45 1016.2
20260902183839 77 96 2.0 0.0 0.00 0.00 0.00 46 1016.2
20260902183835 78 96 2.0 0.0 0.00 0.00 0.00 45 1016.2
20260902183822 78 96 2.0 0.0 0.00 0.00 0.00 45 1016.2
20260902183813 78 96 2.0 0.0 0.00 0.00 0.00 46 1016.2
20260902183802 78 96 2.0 0.0 0.00 0.00 0.00 45 1016.2
20260902183530 78 96 2.0 0.0 0.00 0.00 0.00 46 1016.2
20260902183520 78 96 2.0 0.0 0.00 0.00 0.00 46 1016.2
20260902183507 78 124 2.0 3.0 0.00 0.00 0.00 46 1017.0
20260902183229 77 96 2.0 0.0 0.00 0.00 0.00 46 1016.2
20260902183159 77 96 2.0 0.0 0.00 0.00 0.00 46 1016.2
20260902183128 77 96 2.0 0.0 0.00 0.00 0.00 47 1016.2
20260902183116 78 124 0.0 0.0 0.00 0.00 0.00 45 1016.0
20260902183109 77 96 2.0 0.0 0.00 0.00 0.00 46 1016.2
20260902183003 77 104 3.0 7.0 0.00 0.00 0.00 47 1016.9
20260902182929 77 96 2.0 3.0 0.00 0.00 0.00 47 1016.2
20260902182857 78 124 0.0 0.0 0.00 0.00 0.00 45 1016.0
20260902182827 78 124 0.0 0.0 0.00 0.00 0.00 45 1016.0
20260902182800 78 124 0.0 0.0 0.00 0.00 0.00 45 1016.0
20260902182727 78 124 0.0 0.0 0.00 0.00 0.00 45 1016.0
20260902182642 78 124 0.0 0.0 0.00 0.00 0.00 45 1016.0
20260902182459 78 124 2.0 4.0 0.00 0.00 0.00 44 1017.0
20260902182427 78 124 0.0 0.0 0.00 0.00 0.00 44 1016.0
20260902182327 78 124 0.0 0.0 0.00 0.00 0.00 45 1016.0
20260902182300 78 124 0.0 0.0 0.00 0.00 0.00 45 1016.0
20260902182233 75 200 4.0 0.0 0.00 0.00 0.00 46 1016.0
20260902182228 78 124 0.0 0.0 0.00 0.00 0.00 44 1016.0
20260902182158 77 124 0.0 0.0 0.00 0.00 0.00 45 1016.0
20260902182127 77 124 0.0 0.0 0.00 0.00 0.00 44 1016.0
20260902182057 77 124 0.0 0.0 0.00 0.00 0.00 45 1016.0
20260902182029 77 124 0.0 0.0 0.00 0.00 0.00 46 1016.0
20260902181957 76 124 0.0 0.0 0.00 0.00 0.00 46 1016.0
20260902181954 76 124 0.0 4.0 0.00 0.00 0.00 46 1017.0
20260902181934 76 200 4.0 0.0 0.00 0.00 0.00 50 1016.0
20260902181930 76 124 0.0 0.0 0.00 0.00 0.00 46 1016.0
20260902181919 76 200 4.0 0.0 0.00 0.00 0.00 46 1016.0
20260902181907 75 200 4.0 0.0 0.00 0.00 0.00 46 1016.0
20260902181741 75 200 4.0 0.0 0.00 0.00 0.00 50 1016.0
20260902181729 76 200 4.0 0.0 0.00 0.00 0.00 45 1016.0
20260902181657 76 200 4.0 0.0 0.00 0.00 0.00 45 1016.0
20260902181627 76 200 4.0 0.0 0.00 0.00 0.00 46 1016.0
20260902181608 75 200 4.0 0.0 0.00 0.00 0.00 50 1016.0
20260902181559 75 200 4.0 0.0 0.00 0.00 0.00 47 1016.0
20260902181548 75 200 4.0 0.0 0.00 0.00 0.00 46 1016.0
20260902181538 76 200 4.0 0.0 0.00 0.00 0.00 47 1016.0
20260902181450 76 91 0.0 3.0 0.00 0.00 0.00 49 1016.9
20260902181408 76 200 4.0 0.0 0.00 0.00 0.00 50 1016.0
20260902181232 75 200 4.0 0.0 0.00 0.00 0.00 50 1016.0
20260902181220 76 109 2.0 0.0 0.00 0.00 0.00 49 1016.0
20260902181207 75 200 4.0 0.0 0.00 0.00 0.00 50 1016.0
20260902181028 75 200 4.0 0.0 0.00 0.00 0.00 50 1016.0
20260902180958 75 200 4.0 0.0 0.00 0.00 0.00 50 1016.0
20260902180944 76 203 3.0 5.0 0.00 0.00 0.00 49 1016.7
20260902180928 75 200 4.0 4.0 0.00 0.00 0.00 50 1016.0
20260902180828 76 109 2.0 0.0 0.00 0.00 0.00 49 1016.0
20260902180807 76 109 2.0 0.0 0.00 0.00 0.00 49 1016.0
20260902180627 76 109 2.0 0.0 0.00 0.00 0.00 49 1016.0
20260902180557 76 109 2.0 0.0 0.00 0.00 0.00 50 1016.0
20260902180533 77 109 2.0 0.0 0.00 0.00 0.00 48 1016.0
20260902180529 76 109 2.0 0.0 0.00 0.00 0.00 49 1016.0
20260902180458 76 109 2.0 0.0 0.00 0.00 0.00 50 1016.0
20260902180439 76 329 0.0 2.0 0.00 0.00 0.00 50 1016.9
20260902180427 76 109 2.0 0.0 0.00 0.00 0.00 51 1016.0
20260902180357 76 109 2.0 0.0 0.00 0.00 0.00 50 1016.0
20260902180327 76 109 2.0 0.0 0.00 0.00 0.00 50 1016.0
20260902180257 76 109 2.0 0.0 0.00 0.00 0.00 50 1016.0
20260902180227 76 109 2.0 0.0 0.00 0.00 0.00 49 1016.0
20260902180152 76 109 2.0 0.0 0.00 0.00 0.00 48 1016.0
20260902180021 76 44 2.0 0.0 0.00 0.00 0.00 49 1016.2
20260902175958 77 109 2.0 0.0 0.00 0.00 0.00 47 1016.0
20260902175935 77 95 1.0 5.0 0.00 0.00 0.00 48 1017.0
20260902175929 77 109 2.0 2.0 0.00 0.00 0.00 48 1016.0
20260902175903 76 44 2.0 0.0 0.00 0.00 0.00 51 1016.2
20260902175859 77 44 2.0 0.0 0.00 0.00 0.00 48 1016.2
20260902175827 77 44 2.0 0.0 0.00 0.00 0.00 49 1016.2
20260902175739 75 44 2.0 0.0 0.00 0.00 0.00 50 1016.2
20260902175734 77 44 2.0 0.0 0.00 0.00 0.00 49 1016.2
20260902175717 77 44 2.0 0.0 0.00 0.00 0.00 50 1016.2
20260902175648 76 44 2.0 0.0 0.00 0.00 0.00 49 1016.2
20260902175430 76 98 2.0 3.0 0.00 0.00 0.00 50 1017.0
20260902175358 76 44 2.0 0.0 0.00 0.00 0.00 50 1016.2
20260902175327 76 44 2.0 0.0 0.00 0.00 0.00 49 1016.2
20260902175258 76 44 2.0 0.0 0.00 0.00 0.00 50 1016.2
20260902175235 76 44 2.0 0.0 0.00 0.00 0.00 49 1016.2
20260902175219 75 44 2.0 0.0 0.00 0.00 0.00 48 1016.2
20260902175208 75 44 2.0 0.0 0.00 0.00 0.00 50 1016.2
20260902175031 75 44 2.0 0.0 0.00 0.00 0.00 50 1016.2
20260902175000 75 44 2.0 0.0 0.00 0.00 0.00 51 1016.2
20260902174929 75 44 2.0 2.0 0.00 0.00 0.00 51 1016.2
20260902174925 75 113 1.0 5.0 0.00 0.00 0.00 51 1017.0
20260902174858 75 38 0.0 0.0 0.00 0.00 0.00 50 1015.9
20260902174828 75 38 0.0 0.0 0.00 0.00 0.00 51 1015.9
20260902174759 75 38 0.0 0.0 0.00 0.00 0.00 50 1015.9
20260902174728 75 38 0.0 0.0 0.00 0.00 0.00 52 1015.9
20260902174711 75 38 0.0 0.0 0.00 0.00 0.00 56 1015.9
20260902174657 75 38 0.0 0.0 0.00 0.00 0.00 52 1015.9
20260902174627 76 38 0.0 0.0 0.00 0.00 0.00 51 1015.9
20260902174558 76 38 0.0 0.0 0.00 0.00 0.00 51 1015.9
20260902174528 76 38 0.0 0.0 0.00 0.00 0.00 53 1015.9
20260902174458 76 38 0.0 0.0 0.00 0.00 0.00 53 1015.9
20260902174427 76 38 0.0 0.0 0.00 0.00 0.00 53 1015.9
20260902174422 76 111 0.0 2.0 0.00 0.00 0.00 54 1016.9
20260902174409 74 38 0.0 0.0 0.00 0.00 0.00 57 1015.9
20260902174348 76 38 0.0 0.0 0.00 0.00 0.00 54 1015.9
20260902174338 75 38 0.0 0.0 0.00 0.00 0.00 55 1015.9
20260902174158 75 38 0.0 0.0 0.00 0.00 0.00 56 1015.9
20260902174134 74 152 0.0 0.0 0.00 0.00 0.00 58 1015.9
20260902174129 74 38 0.0 0.0 0.00 0.00 0.00 56 1015.9
20260902174105 74 152 0.0 0.0 0.00 0.00 0.00 57 1015.9
20260902174100 74 38 0.0 0.0 0.00 0.00 0.00 57 1015.9
20260902174050 74 38 0.0 0.0 0.00 0.00 0.00 56 1015.9
20260902174041 74 38 0.0 0.0 0.00 0.00 0.00 57 1015.9
20260902173918 73 348 0.0 3.0 0.00 0.00 0.00 57 1017.0
20260902173841 73 152 0.0 0.0 0.00 0.00 0.00 57 1015.9
20260902173831 74 152 0.0 0.0 0.00 0.00 0.00 57 1015.9
20260902173821 74 152 0.0 0.0 0.00 0.00 0.00 58 1015.9
20260902173758 74 152 0.0 0.0 0.00 0.00 0.00 58 1015.9
20260902173748 74 152 0.0 0.0 0.00 0.00 0.00 59 1015.9
20260902173509 74 152 0.0 0.0 0.00 0.00 0.00 57 1015.9
20260902173459 74 152 0.0 0.0 0.00 0.00 0.00 57 1015.9
20260902173427 74 152 0.0 0.0 0.00 0.00 0.00 57 1015.9
20260902173417 74 56 2.0 2.0 0.00 0.00 0.00 56 1016.8
20260902173328 74 152 0.0 0.0 0.00 0.00 0.00 56 1015.9
20260902173258 74 152 0.0 0.0 0.00 0.00 0.00 56 1015.9
20260902173227 74 152 0.0 0.0 0.00 0.00 0.00 57 1015.9
20260902173216 73 166 0.0 0.0 0.00 0.00 0.00 58 1016.0
20260902173212 74 152 0.0 0.0 0.00 0.00 0.00 56 1015.9
20260902173202 74 152 0.0 0.0 0.00 0.00 0.00 58 1015.9
20260902173153 74 152 0.0 0.0 0.00 0.00 0.00 58 1015.9
20260902172958 74 152 0.0 0.0 0.00 0.00 0.00 58 1015.9
20260902172948 73 166 0.0 0.0 0.00 0.00 0.00 59 1016.0
20260902172929 74 152 0.0 4.0 0.00 0.00 0.00 58 1015.9
20260902172913 74 137 3.0 5.0 0.00 0.00 0.00 58 1017.0
20260902172907 73 166 0.0 0.0 0.00 0.00 0.00 59 1016.0
20260902172844 73 166 0.0 0.0 0.00 0.00 0.00 60 1016.0
20260902172834 72 166 0.0 0.0 0.00 0.00 0.00 60 1016.0
20260902172828 74 166 0.0 0.0 0.00 0.00 0.00 58 1016.0
20260902172816 74 166 0.0 0.0 0.00 0.00 0.00 58 1016.0
20260902172805 73 166 0.0 0.0 0.00 0.00 0.00 58 1016.0
20260902172751 73 166 0.0 0.0 0.00 0.00 0.00 58 1016.0
20260902172631 73 166 0.0 0.0 0.00 0.00 0.00 60 1016.0
20260902172623 73 166 0.0 0.0 0.00 0.00 0.00 60 1016.0
20260902172412 73 174 2.0 6.0 0.00 0.00 0.00 59 1017.0
20260902172349 72 120 2.0 0.0 0.00 0.00 0.00 61 1015.9
20260902172344 73 166 0.0 0.0 0.00 0.00 0.00 59 1016.0
20260902172158 73 166 0.0 0.0 0.00 0.00 0.00 59 1016.0
20260902172144 72 166 0.0 0.0 0.00 0.00 0.00 61 1016.0
20260902172013 72 120 2.0 0.0 0.00 0.00 0.00 60 1015.9
20260902172009 72 166 0.0 0.0 0.00 0.00 0.00 60 1016.0
20260902171959 72 166 0.0 1.0 0.00 0.00 0.00 60 1016.0
20260902171907 72 176 1.0 4.0 0.00 0.00 0.00 60 1016.9
20260902171728 72 120 2.0 0.0 0.00 0.00 0.00 61 1015.9
20260902171703 72 120 2.0 0.0 0.00 0.00 0.00 61 1015.9
20260902171629 72 120 2.0 0.0 0.00 0.00 0.00 60 1015.9
20260902171543 72 120 2.0 0.0 0.00 0.00 0.00 60 1015.9
20260902171403 72 216 1.0 3.0 0.00 0.00 0.00 61 1016.9
20260902171348 72 120 2.0 0.0 0.00 0.00 0.00 61 1015.9
20260902171338 72 120 2.0 0.0 0.00 0.00 0.00 60 1015.9
20260902171159 72 120 2.0 0.0 0.00 0.00 0.00 61 1015.9
20260902171128 72 120 2.0 0.0 0.00 0.00 0.00 60 1015.9
20260902171058 72 120 2.0 0.0 0.00 0.00 0.00 61 1015.9
20260902171028 72 120 2.0 0.0 0.00 0.00 0.00 61 1015.9
20260902170957 72 120 2.0 0.0 0.00 0.00 0.00 61 1015.9
20260902170929 72 120 2.0 5.0 0.00 0.00 0.00 60 1015.9
20260902170905 72 121 2.0 0.0 0.00 0.00 0.00 60 1016.1
20260902170859 73 120 4.0 6.0 0.00 0.00 0.00 60 1016.9
20260902170827 73 121 2.0 0.0 0.00 0.00 0.00 60 1016.1
20260902170758 73 121 2.0 0.0 0.00 0.00 0.00 60 1016.1
20260902170748 72 121 2.0 0.0 0.00 0.00 0.00 60 1016.1
20260902170727 72 121 2.0 0.0 0.00 0.00 0.00 60 1016.1
20260902170631 73 121 2.0 0.0 0.00 0.00 0.00 60 1016.1
20260902170610 73 151 2.0 0.0 0.00 0.00 0.00 59 1016.0
20260902170558 73 121 2.0 0.0 0.00 0.00 0.00 60 1016.1
20260902170543 72 121 2.0 0.0 0.00 0.00 0.00 60 1016.1
20260902170417 73 151 2.0 0.0 0.00 0.00 0.00 60 1016.0
20260902170407 72 121 2.0 0.0 0.00 0.00 0.00 60 1016.1
20260902170358 72 164 1.0 5.0 0.00 0.00 0.00 60 1016.8
20260902170236 73 151 2.0 0.0 0.00 0.00 0.00 58 1016.0
20260902170227 72 121 2.0 0.0 0.00 0.00 0.00 60 1016.1
20260902170216 72 121 2.0 0.0 0.00 0.00 0.00 61 1016.1
20260902170206 73 121 2.0 0.0 0.00 0.00 0.00 60 1016.1
20260902170152 73 121 2.0 0.0 0.00 0.00 0.00 59 1016.1
20260902170035 73 121 2.0 0.0 0.00 0.00 0.00 59 1016.1
20260902170025 73 121 2.0 0.0 0.00 0.00 0.00 60 1016.1
20260902170011 73 121 2.0 3.0 0.00 0.00 0.00 60 1016.1
20260902165854 73 153 2.0 6.0 0.00 0.00 0.00 60 1016.8
20260902165846 73 151 2.0 0.0 0.00 0.00 0.00 59 1016.0
20260902165838 73 151 2.0 0.0 0.00 0.00 0.00 59 1016.0
20260902165647 73 151 2.0 0.0 0.00 0.00 0.00 58 1016.0
20260902165458 73 151 2.0 0.0 0.00 0.00 0.00 58 1016.0
20260902165428 74 151 2.0 0.0 0.00 0.00 0.00 57 1016.0
20260902165405 73 151 2.0 3.0 0.00 0.00 0.00 59 1016.0
20260902165353 74 51 0.0 4.0 0.00 0.00 0.00 59 1016.8
20260902165328 74 151 2.0 0.0 0.00 0.00 0.00 58 1016.0
20260902165228 73 151 2.0 0.0 0.00 0.00 0.00 59 1016.0
20260902165128 73 151 2.0 0.0 0.00 0.00 0.00 59 1016.0
20260902165100 73 121 3.0 0.0 0.00 0.00 0.00 58 1015.8
20260902165050 73 151 2.0 0.0 0.00 0.00 0.00 59 1016.0
20260902165039 73 151 2.0 0.0 0.00 0.00 0.00 60 1016.0
20260902164848 73 196 2.0 3.0 0.00 0.00 0.00 59 1016.7
20260902164829 73 121 3.0 0.0 0.00 0.00 0.00 59 1015.8
20260902164759 73 121 3.0 0.0 0.00 0.00 0.00 58 1015.8
20260902164728 73 121 3.0 0.0 0.00 0.00 0.00 58 1015.8
20260902164644 73 121 3.0 0.0 0.00 0.00 0.00 58 1015.8
20260902164627 73 121 3.0 0.0 0.00 0.00 0.00 59 1015.8
20260902164428 73 121 3.0 0.0 0.00 0.00 0.00 59 1015.8
20260902164405 73 121 3.0 3.0 0.00 0.00 0.00 60 1015.8
20260902164358 73 121 3.0 0.0 0.00 0.00 0.00 58 1015.8
20260902164343 73 103 2.0 3.0 0.00 0.00 0.00 59 1016.5
20260902164327 73 121 3.0 0.0 0.00 0.00 0.00 59 1015.8
20260902164257 73 121 3.0 0.0 0.00 0.00 0.00 60 1015.8
20260902164234 72 126 0.0 0.0 0.00 0.00 0.00 60 1015.8
20260902164227 72 121 3.0 0.0 0.00 0.00 0.00 60 1015.8
20260902164158 72 121 3.0 0.0 0.00 0.00 0.00 61 1015.8
20260902164127 72 121 3.0 0.0 0.00 0.00 0.00 60 1015.8
20260902164114 72 121 3.0 0.0 0.00 0.00 0.00 60 1015.8
20260902164050 73 121 3.0 0.0 0.00 0.00 0.00 60 1015.8
20260902164041 73 121 3.0 0.0 0.00 0.00 0.00 60 1015.8
20260902163920 71 126 0.0 0.0 0.00 0.00 0.00 62 1015.8
20260902163907 72 126 0.0 0.0 0.00 0.00 0.00 60 1015.8
20260902163843 72 106 0.0 3.0 0.00 0.00 0.00 60 1016.6
20260902163727 72 126 0.0 0.0 0.00 0.00 0.00 60 1015.8
20260902163631 72 126 0.0 0.0 0.00 0.00 0.00 61 1015.8
20260902163603 72 126 0.0 0.0 0.00 0.00 0.00 60 1015.8
20260902163559 71 126 0.0 0.0 0.00 0.00 0.00 61 1015.8
20260902163542 71 126 0.0 0.0 0.00 0.00 0.00 62 1015.8
20260902163411 73 126 0.0 2.0 0.00 0.00 0.00 59 1015.8
20260902163358 71 126 0.0 0.0 0.00 0.00 0.00 62 1015.8
20260902163343 71 197 2.0 5.0 0.00 0.00 0.00 62 1016.7
20260902163327 71 126 0.0 0.0 0.00 0.00 0.00 61 1015.8
20260902163300 71 126 0.0 0.0 0.00 0.00 0.00 61 1015.8
20260902163249 71 126 0.0 0.0 0.00 0.00 0.00 62 1015.8
20260902163239 71 126 0.0 0.0 0.00 0.00 0.00 61 1015.8
20260902163102 73 74 4.0 0.0 0.00 0.00 0.00 59 1015.7
20260902163058 72 126 0.0 0.0 0.00 0.00 0.00 60 1015.8
20260902163047 73 126 0.0 0.0 0.00 0.00 0.00 59 1015.8
20260902163039 73 126 0.0 0.0 0.00 0.00 0.00 59 1015.8
20260902162858 73 74 4.0 0.0 0.00 0.00 0.00 59 1015.7
20260902162841 73 138 1.0 4.0 0.00 0.00 0.00 59 1016.6
20260902162827 73 74 4.0 0.0 0.00 0.00 0.00 60 1015.7
20260902162759 73 74 4.0 0.0 0.00 0.00 0.00 59 1015.7
20260902162728 73 74 4.0 0.0 0.00 0.00 0.00 59 1015.7
20260902162658 73 74 4.0 0.0 0.00 0.00 0.00 58 1015.7
20260902162632 73 74 4.0 0.0 0.00 0.00 0.00 60 1015.7
20260902162628 73 74 4.0 0.0 0.00 0.00 0.00 59 1015.7
20260902162615 73 74 4.0 0.0 0.00 0.00 0.00 58 1015.7
20260902162434 73 74 4.0 0.0 0.00 0.00 0.00 60 1015.7
20260902162429 73 74 4.0 0.0 0.00 0.00 0.00 58 1015.7
20260902162357 73 74 4.0 0.0 0.00 0.00 0.00 58 1015.7
20260902162337 73 63 1.0 5.0 0.00 0.00 0.00 58 1016.7
20260902162328 73 74 4.0 0.0 0.00 0.00 0.00 59 1015.7
20260902162301 71 191 2.0 0.0 0.00 0.00 0.00 62 1015.8
20260902162251 73 74 4.0 0.0 0.00 0.00 0.00 59 1015.7
20260902162241 73 74 4.0 0.0 0.00 0.00 0.00 60 1015.7
20260902162230 73 74 4.0 0.0 0.00 0.00 0.00 61 1015.7
20260902162220 72 74 4.0 0.0 0.00 0.00 0.00 60 1015.7
20260902161928 72 74 4.0 4.0 0.00 0.00 0.00 60 1015.7
20260902161845 72 191 2.0 0.0 0.00 0.00 0.00 61 1015.8
20260902161836 71 116 2.0 4.0 0.00 0.00 0.00 62 1016.6
20260902161658 71 191 2.0 0.0 0.00 0.00 0.00 62 1015.8
20260902161628 70 191 2.0 0.0 0.00 0.00 0.00 62 1015.8
20260902161559 71 191 2.0 0.0 0.00 0.00 0.00 62 1015.8
20260902161536 72 191 2.0 0.0 0.00 0.00 0.00 60 1015.8
20260902161529 71 191 2.0 0.0 0.00 0.00 0.00 62 1015.8
20260902161457 71 191 2.0 0.0 0.00 0.00 0.00 61 1015.8
20260902161427 72 191 2.0 0.0 0.00 0.00 0.00 61 1015.8
20260902161358 72 191 2.0 0.0 0.00 0.00 0.00 60 1015.8
20260902161332 72 63 4.0 5.0 0.00 0.00 0.00 60 1016.8
20260902161328 72 191 2.0 0.0 0.00 0.00 0.00 60 1015.8
20260902161228 72 191 2.0 0.0 0.00 0.00 0.00 60 1015.8
20260902161209 72 191 2.0 0.0 0.00 0.00 0.00 60 1015.8
20260902161031 72 191 2.0 0.0 0.00 0.00 0.00 59 1015.8
20260902160957 72 191 2.0 0.0 0.00 0.00 0.00 59 1015.8
20260902160930 72 191 2.0 2.0 0.00 0.00 0.00 59 1015.8
20260902160858 73 5 1.0 0.0 0.00 0.00 0.00 58 1015.9
20260902160828 73 182 1.0 4.0 0.00 0.00 0.00 58 1016.7
20260902160740 73 5 1.0 0.0 0.00 0.00 0.00 58 1015.9
20260902160728 74 5 1.0 0.0 0.00 0.00 0.00 58 1015.9
20260902160628 73 5 1.0 0.0 0.00 0.00 0.00 58 1015.9
20260902160529 73 5 1.0 0.0 0.00 0.00 0.00 58 1015.9
20260902160505 74 104 0.0 0.0 0.00 0.00 0.00 56 1015.9
20260902160455 74 5 1.0 0.0 0.00 0.00 0.00 56 1015.9
20260902160431 74 5 1.0 0.0 0.00 0.00 0.00 57 1015.9
20260902160422 74 5 1.0 0.0 0.00 0.00 0.00 58 1015.9
20260902160323 73 89 0.0 3.0 0.00 0.00 0.00 58 1016.8
20260902160227 73 5 1.0 0.0 0.00 0.00 0.00 58 1015.9
20260902160158 73 5 1.0 0.0 0.00 0.00 0.00 59 1015.9
20260902160127 73 5 1.0 0.0 0.00 0.00 0.00 58 1015.9
20260902160112 73 104 0.0 0.0 0.00 0.00 0.00 57 1015.9
20260902160108 73 5 1.0 0.0 0.00 0.00 0.00 58 1015.9
20260902160030 73 5 1.0 0.0 0.00 0.00 0.00 57 1015.9
20260902155949 73 5 1.0 0.0 0.00 0.00 0.00 57 1015.9
20260902155939 73 5 1.0 1.0 0.00 0.00 0.00 57 1015.9
20260902155821 74 41 3.0 3.0 0.00 0.00 0.00 56 1016.8
20260902155750 75 104 0.0 0.0 0.00 0.00 0.00 55 1015.9
20260902155743 74 104 0.0 0.0 0.00 0.00 0.00 56 1015.9
20260902155558 74 104 0.0 0.0 0.00 0.00 0.00 57 1015.9
20260902155529 74 104 0.0 0.0 0.00 0.00 0.00 56 1015.9
20260902155428 74 104 0.0 0.0 0.00 0.00 0.00 56 1015.9
20260902155409 74 104 0.0 0.0 0.00 0.00 0.00 55 1015.9
20260902155320 75 127 0.0 2.0 0.00 0.00 0.00 55 1016.7
20260902155227 75 104 0.0 0.0 0.00 0.00 0.00 55 1015.9
20260902155157 75 104 0.0 0.0 0.00 0.00 0.00 55 1015.9
20260902155128 74 104 0.0 0.0 0.00 0.00 0.00 56 1015.9
20260902155030 74 104 0.0 0.0 0.00 0.00 0.00 56 1015.9
20260902155008 73 33 0.0 0.0 0.00 0.00 0.00 56 1015.8
20260902154958 74 104 0.0 0.0 0.00 0.00 0.00 56 1015.9
20260902154929 73 104 0.0 0.0 0.00 0.00 0.00 57 1015.9
20260902154858 73 104 0.0 1.0 0.00 0.00 0.00 58 1015.9
20260902154828 72 33 0.0 0.0 0.00 0.00 0.00 59 1015.8
20260902154815 72 180 0.0 3.0 0.00 0.00 0.00 58 1016.7
20260902154758 72 33 0.0 0.0 0.00 0.00 0.00 59 1015.8
20260902154733 73 33 0.0 0.0 0.00 0.00 0.00 57 1015.8
20260902154728 72 33 0.0 0.0 0.00 0.00 0.00 58 1015.8
20260902154657 72 33 0.0 0.0 0.00 0.00 0.00 57 1015.8
20260902154643 73 33 0.0 0.0 0.00 0.00 0.00 57 1015.8
20260902154458 73 33 0.0 0.0 0.00 0.00 0.00 56 1015.8
20260902154430 73 33 0.0 0.0 0.00 0.00 0.00 57 1015.8
20260902154419 73 33 0.0 0.0 0.00 0.00 0.00 57 1015.8
20260902154408 73 33 0.0 0.0 0.00 0.00 0.00 58 1015.8
20260902154311 73 117 0.0 2.0 0.00 0.00 0.00 57 1016.8
20260902154227 73 33 0.0 0.0 0.00 0.00 0.00 57 1015.8
20260902154158 72 33 0.0 0.0 0.00 0.00 0.00 58 1015.8
20260902154128 72 33 0.0 0.0 0.00 0.00 0.00 57 1015.8
20260902154029 72 33 0.0 0.0 0.00 0.00 0.00 57 1015.8
20260902153958 72 33 0.0 0.0 0.00 0.00 0.00 57 1015.8
20260902153928 72 33 0.0 0.0 0.00 0.00 0.00 57 1015.8
20260902153859 72 33 0.0 2.0 0.00 0.00 0.00 58 1015.8
20260902153828 72 117 0.0 0.0 0.00 0.00 0.00 58 1015.6
20260902153810 72 25 0.0 2.0 0.00 0.00 0.00 57 1016.8
20260902153757 72 117 0.0 0.0 0.00 0.00 0.00 58 1015.6
20260902153727 72 117 0.0 0.0 0.00 0.00 0.00 57 1015.6
20260902153658 72 117 0.0 0.0 0.00 0.00 0.00 57 1015.6
20260902153628 72 117 0.0 0.0 0.00 0.00 0.00 57 1015.6
20260902153529 72 117 0.0 0.0 0.00 0.00 0.00 57 1015.6
20260902153458 71 117 0.0 0.0 0.00 0.00 0.00 58 1015.6
20260902153428 71 117 0.0 0.0 0.00 0.00 0.00 59 1015.6
20260902153328 71 117 0.0 0.0 0.00 0.00 0.00 59 1015.6
20260902153304 71 195 0.0 0.0 0.00 0.00 0.00 59 1016.5
20260902153258 71 117 0.0 0.0 0.00 0.00 0.00 59 1015.6
20260902153228 71 117 0.0 0.0 0.00 0.00 0.00 59 1015.6
20260902153157 70 117 0.0 0.0 0.00 0.00 0.00 59 1015.6
20260902153127 70 117 0.0 0.0 0.00 0.00 0.00 60 1015.6
20260902153058 70 117 0.0 0.0 0.00 0.00 0.00 60 1015.6
20260902153028 70 117 0.0 0.0 0.00 0.00 0.00 59 1015.6
20260902152932 70 135 0.0 0.0 0.00 0.00 0.00 58 1015.7
20260902152928 70 117 0.0 0.0 0.00 0.00 0.00 59 1015.6
20260902152859 70 117 0.0 0.0 0.00 0.00 0.00 60 1015.6
20260902152827 70 135 0.0 0.0 0.00 0.00 0.00 60 1015.7
20260902152806 71 135 0.0 0.0 0.00 0.00 0.00 57 1015.7
20260902152800 69 164 0.0 2.0 0.00 0.00 0.00 60 1016.7
20260902152728 70 135 0.0 0.0 0.00 0.00 0.00 60 1015.7
20260902152659 69 135 0.0 0.0 0.00 0.00 0.00 60 1015.7
20260902152628 70 135 0.0 0.0 0.00 0.00 0.00 60 1015.7
20260902152612 71 135 0.0 0.0 0.00 0.00 0.00 57 1015.7
20260902152605 70 135 0.0 0.0 0.00 0.00 0.00 59 1015.7
20260902152555 70 135 0.0 0.0 0.00 0.00 0.00 59 1015.7
20260902152257 71 135 0.0 0.0 0.00 0.00 0.00 57 1015.7
20260902152246 70 111 0.0 0.0 0.00 0.00 0.00 58 1015.6
20260902152227 70 135 0.0 0.0 0.00 0.00 0.00 58 1015.7
20260902152149 70 135 0.0 0.0 0.00 0.00 0.00 58 1015.7
20260902152140 70 135 0.0 0.0 0.00 0.00 0.00 58 1015.7
20260902151933 71 135 0.0 0.0 0.00 0.00 0.00 57 1015.7
20260902151923 70 135 0.0 0.0 0.00 0.00 0.00 59 1015.7
20260902151910 70 111 0.0 0.0 0.00 0.00 0.00 59 1015.6
20260902151756 70 224 0.0 0.0 0.00 0.00 0.00 59 1016.4
20260902151727 70 111 0.0 0.0 0.00 0.00 0.00 59 1015.6
20260902151657 70 111 0.0 0.0 0.00 0.00 0.00 59 1015.6
20260902151628 70 111 0.0 0.0 0.00 0.00 0.00 60 1015.6
20260902151529 69 111 0.0 0.0 0.00 0.00 0.00 60 1015.6
20260902151428 69 111 0.0 0.0 0.00 0.00 0.00 60 1015.6
20260902151328 69 111 0.0 0.0 0.00 0.00 0.00 60 1015.6
20260902151258 69 111 0.0 0.0 0.00 0.00 0.00 60 1015.6
20260902151252 69 169 1.0 1.0 0.00 0.00 0.00 60 1016.7
20260902151239 68 142 0.0 0.0 0.00 0.00 0.00 61 1015.6
20260902151228 69 111 0.0 0.0 0.00 0.00 0.00 60 1015.6
20260902151157 69 111 0.0 0.0 0.00 0.00 0.00 60 1015.6
20260902151127 69 111 0.0 0.0 0.00 0.00 0.00 59 1015.6
20260902151058 69 111 0.0 0.0 0.00 0.00 0.00 59 1015.6
20260902151029 69 111 0.0 0.0 0.00 0.00 0.00 60 1015.6
20260902150959 69 111 0.0 0.0 0.00 0.00 0.00 60 1015.6
20260902150934 68 142 0.0 0.0 0.00 0.00 0.00 61 1015.6
20260902150929 69 111 0.0 0.0 0.00 0.00 0.00 61 1015.6
20260902150919 68 111 0.0 0.0 0.00 0.00 0.00 61 1015.6
20260902150907 68 142 0.0 0.0 0.00 0.00 0.00 61 1015.6
20260902150752 68 230 0.0 1.0 0.00 0.00 0.00 61 1016.6
20260902150727 68 142 0.0 0.0 0.00 0.00 0.00 61 1015.6
20260902150704 69 142 0.0 0.0 0.00 0.00 0.00 60 1015.6
20260902150629 68 142 0.0 0.0 0.00 0.00 0.00 61 1015.6
20260902150615 69 142 0.0 0.0 0.00 0.00 0.00 58 1015.6
20260902150608 68 142 0.0 0.0 0.00 0.00 0.00 61 1015.6
20260902150428 68 142 0.0 0.0 0.00 0.00 0.00 61 1015.6
20260902150359 68 142 0.0 0.0 0.00 0.00 0.00 61 1015.6
20260902150348 70 130 0.0 0.0 0.00 0.00 0.00 58 1015.7
20260902150344 68 142 0.0 0.0 0.00 0.00 0.00 60 1015.6
20260902150248 69 217 0.0 1.0 0.00 0.00 0.00 60 1016.6
20260902150210 71 130 0.0 0.0 0.00 0.00 0.00 58 1015.7
20260902150203 69 142 0.0 0.0 0.00 0.00 0.00 60 1015.6
20260902150153 69 142 0.0 0.0 0.00 0.00 0.00 59 1015.6
20260902145930 69 142 0.0 0.0 0.00 0.00 0.00 59 1015.6
20260902145920 69 142 0.0 0.0 0.00 0.00 0.00 59 1015.6
20260902145908 69 130 0.0 0.0 0.00 0.00 0.00 58 1015.7
20260902145747 70 142 0.0 0.0 0.00 0.00 0.00 58 1016.5
20260902145728 70 130 0.0 0.0 0.00 0.00 0.00 57 1015.7
20260902145718 70 130 0.0 0.0 0.00 0.00 0.00 59 1015.7
20260902145707 71 130 0.0 0.0 0.00 0.00 0.00 58 1015.7
20260902145529 71 130 0.0 0.0 0.00 0.00 0.00 58 1015.7
20260902145457 71 130 0.0 0.0 0.00 0.00 0.00 58 1015.7
20260902145446 66 42 0.0 0.0 0.00 0.00 0.00 67 1015.6
20260902145428 70 130 0.0 0.0 0.00 0.00 0.00 58 1015.7
20260902145403 69 42 0.0 0.0 0.00 0.00 0.00 60 1015.6
20260902145359 70 130 0.0 0.0 0.00 0.00 0.00 58 1015.7
20260902145348 71 130 0.0 0.0 0.00 0.00 0.00 57 1015.7
20260902145338 70 130 0.0 0.0 0.00 0.00 0.00 58 1015.7
20260902145242 70 52 0.0 1.0 0.00 0.00 0.00 58 1016.6
20260902145138 67 42 0.0 0.0 0.00 0.00 0.00 66 1015.6
20260902145134 69 130 0.0 0.0 0.00 0.00 0.00 60 1015.7
20260902145123 69 130 0.0 0.0 0.00 0.00 0.00 60 1015.7
20260902145110 69 130 0.0 0.0 0.00 0.00 0.00 59 1015.7
20260902144950 69 130 0.0 0.0 0.00 0.00 0.00 60 1015.7
20260902144940 69 130 0.0 0.0 0.00 0.00 0.00 61 1015.7
20260902144758 69 42 0.0 0.0 0.00 0.00 0.00 60 1015.6
20260902144737 69 130 0.0 1.0 0.00 0.00 0.00 61 1016.6
20260902144733 65 42 0.0 0.0 0.00 0.00 0.00 67 1015.6
20260902144727 69 42 0.0 0.0 0.00 0.00 0.00 61 1015.6
20260902144703 68 42 0.0 0.0 0.00 0.00 0.00 63 1015.6
20260902144653 67 42 0.0 0.0 0.00 0.00 0.00 64 1015.6
20260902144643 67 42 0.0 0.0 0.00 0.00 0.00 65 1015.6
20260902144633 67 42 0.0 0.0 0.00 0.00 0.00 65 1015.6
20260902144233 65 55 1.0 3.0 0.00 0.00 0.00 67 1016.4
20260902144228 65 42 0.0 0.0 0.00 0.00 0.00 67 1015.6
20260902144127 65 42 0.0 0.0 0.00 0.00 0.00 67 1015.6
20260902144035 64 78 0.0 0.0 0.00 0.00 0.00 68 1015.6
20260902144029 65 42 0.0 0.0 0.00 0.00 0.00 67 1015.6
20260902143959 65 42 0.0 0.0 0.00 0.00 0.00 67 1015.6
20260902143928 65 42 0.0 0.0 0.00 0.00 0.00 67 1015.6
20260902143904 63 83 1.0 0.0 0.00 0.00 0.00 72 1015.5
20260902143859 65 42 0.0 1.0 0.00 0.00 0.00 67 1015.6
20260902143840 62 83 1.0 0.0 0.00 0.00 0.00 72 1015.5
20260902143827 65 78 0.0 0.0 0.00 0.00 0.00 68 1015.6
20260902143759 65 78 0.0 0.0 0.00 0.00 0.00 68 1015.6
20260902143739 63 78 0.0 0.0 0.00 0.00 0.00 71 1015.6
20260902143733 63 78 0.0 1.0 0.00 0.00 0.00 70 1015.6
20260902143728 65 78 0.0 0.0 0.00 0.00 0.00 68 1015.6
20260902143723 64 76 1.0 2.0 0.00 0.00 0.00 68 1016.5
20260902143712 65 78 0.0 0.0 0.00 0.00 0.00 68 1015.6
20260902143701 64 78 0.0 0.0 0.00 0.00 0.00 68 1015.6
20260902143530 64 78 0.0 0.0 0.00 0.00 0.00 68 1015.6
20260902143404 64 78 0.0 0.0 0.00 0.00 0.00 68 1015.6
20260902143355 64 78 0.0 0.0 0.00 0.00 0.00 68 1015.6
20260902143238 62 83 1.0 0.0 0.00 0.00 0.00 72 1015.5
20260902143232 61 83 1.0 0.0 0.00 0.00 0.00 73 1015.5
20260902143228 64 78 0.0 0.0 0.00 0.00 0.00 69 1015.6
20260902143218 64 68 1.0 2.0 0.00 0.00 0.00 70 1016.6
20260902143204 64 78 0.0 0.0 0.00 0.00 0.00 70 1015.6
20260902143156 64 78 0.0 0.0 0.00 0.00 0.00 70 1015.6
20260902143146 64 78 0.0 0.0 0.00 0.00 0.00 71 1015.6
20260902142857 63 83 1.0 0.0 0.00 0.00 0.00 70 1015.5
20260902142848 63 83 1.0 0.0 0.00 0.00 0.00 70 1015.5
20260902142837 63 83 1.0 0.0 0.00 0.00 0.00 71 1015.5
20260902142827 63 83 1.0 0.0 0.00 0.00 0.00 71 1015.5
20260902142714 63 71 2.0 2.0 0.00 0.00 0.00 72 1016.6
20260902142706 63 83 1.0 0.0 0.00 0.00 0.00 72 1015.5
20260902142655 62 83 1.0 0.0 0.00 0.00 0.00 72 1015.5
20260902142228 61 83 1.0 0.0 0.00 0.00 0.00 73 1015.5
20260902142209 61 80 1.0 2.0 0.00 0.00 0.00 73 1016.5
20260902142158 61 83 1.0 0.0 0.00 0.00 0.00 73 1015.5
20260902142128 61 83 1.0 0.0 0.00 0.00 0.00 73 1015.5
20260902142106 60 66 0.0 0.0 0.00 0.00 0.00 75 1015.4
20260902142040 61 83 1.0 0.0 0.00 0.00 0.00 73 1015.5
20260902141957 61 83 1.0 0.0 0.00 0.00 0.00 74 1015.5
20260902141927 60 83 1.0 0.0 0.00 0.00 0.00 74 1015.5
20260902141859 60 83 1.0 2.0 0.00 0.00 0.00 74 1015.5
20260902141834 60 66 0.0 0.0 0.00 0.00 0.00 75 1015.4
20260902141827 60 66 0.0 0.0 0.00 0.00 0.00 74 1015.4
20260902141741 60 66 0.0 0.0 0.00 0.00 0.00 74 1015.4
20260902141732 60 66 0.0 0.0 0.00 0.00 0.00 74 1015.4
20260902141722 60 66 0.0 0.0 0.00 0.00 0.00 75 1015.4
20260902141709 60 61 0.0 1.0 0.00 0.00 0.00 74 1016.5
20260902141538 60 66 0.0 0.0 0.00 0.00 0.00 75 1015.4
20260902141508 60 66 0.0 0.0 0.00 0.00 0.00 75 1015.4
20260902141338 59 66 0.0 2.0 0.00 0.00 0.00 75 1015.4
20260902141329 59 66 0.0 0.0 0.00 0.00 0.00 75 1015.4
20260902141241 59 66 0.0 0.0 0.00 0.00 0.00 75 1015.4
20260902141205 59 92 1.0 2.0 0.00 0.00 0.00 75 1016.4
20260902141159 59 66 0.0 0.0 0.00 0.00 0.00 75 1015.4
20260902141127 59 66 0.0 0.0 0.00 0.00 0.00 75 1015.4
20260902141044 58 15 2.0 0.0 0.00 0.00 0.00 75 1015.4
20260902141033 59 66 0.0 0.0 0.00 0.00 0.00 75 1015.4
20260902141009 59 66 0.0 0.0 0.00 0.00 0.00 75 1015.4
20260902140828 59 15 2.0 0.0 0.00 0.00 0.00 75 1015.4
20260902140759 59 15 2.0 0.0 0.00 0.00 0.00 75 1015.4
20260902140728 59 15 2.0 0.0 0.00 0.00 0.00 75 1015.4
20260902140708 59 15 2.0 0.0 0.00 0.00 0.00 75 1015.4
20260902140700 59 46 1.0 3.0 0.00 0.00 0.00 75 1016.3
20260902140527 58 15 2.0 0.0 0.00 0.00 0.00 76 1015.4
20260902140429 58 15 2.0 0.0 0.00 0.00 0.00 76 1015.4
20260902140329 58 15 2.0 0.0 0.00 0.00 0.00 76 1015.4
20260902140229 58 15 2.0 0.0 0.00 0.00 0.00 76 1015.4
20260902140157 58 15 2.0 0.0 0.00 0.00 0.00 77 1015.4
20260902140154 58 42 0.0 2.0 0.00 0.00 0.00 77 1016.3
20260902140127 58 15 2.0 0.0 0.00 0.00 0.00 77 1015.4
20260902140109 58 15 2.0 0.0 0.00 0.00 0.00 77 1015.4
20260902140032 58 15 2.0 0.0 0.00 0.00 0.00 77 1015.4
20260902140005 58 44 0.0 0.0 0.00 0.00 0.00 78 1015.2
20260902135928 58 15 2.0 0.0 0.00 0.00 0.00 77 1015.4
20260902135859 58 15 2.0 2.0 0.00 0.00 0.00 77 1015.4
20260902135827 58 44 0.0 0.0 0.00 0.00 0.00 77 1015.2
20260902135728 58 44 0.0 0.0 0.00 0.00 0.00 77 1015.2
20260902135654 58 32 1.0 3.0 0.00 0.00 0.00 77 1016.0
20260902135646 58 44 0.0 0.0 0.00 0.00 0.00 77 1015.2
20260902135435 57 44 0.0 0.0 0.00 0.00 0.00 77 1015.2
20260902135428 58 44 0.0 0.0 0.00 0.00 0.00 78 1015.2
20260902135359 57 44 0.0 0.0 0.00 0.00 0.00 78 1015.2
20260902135327 57 44 0.0 0.0 0.00 0.00 0.00 78 1015.2
20260902135258 57 44 0.0 0.0 0.00 0.00 0.00 78 1015.2
20260902135227 57 44 0.0 0.0 0.00 0.00 0.00 78 1015.2
20260902135149 57 9 1.0 2.0 0.00 0.00 0.00 78 1016.3
20260902135128 57 44 0.0 0.0 0.00 0.00 0.00 78 1015.2
20260902135108 57 44 0.0 0.0 0.00 0.00 0.00 78 1015.2
20260902134928 57 44 0.0 0.0 0.00 0.00 0.00 77 1015.2
20260902134900 57 44 0.0 1.0 0.00 0.00 0.00 77 1015.2
20260902134828 57 0 4.0 0.0 0.00 0.00 0.00 78 1015.2
20260902134729 57 0 4.0 0.0 0.00 0.00 0.00 78 1015.2
20260902134644 57 72 0.0 2.0 0.00 0.00 0.00 78 1016.0
20260902134628 57 0 4.0 0.0 0.00 0.00 0.00 78 1015.2
20260902134605 57 0 4.0 0.0 0.00 0.00 0.00 78 1015.2
20260902134558 57 0 4.0 0.0 0.00 0.00 0.00 77 1015.2
20260902134528 57 0 4.0 0.0 0.00 0.00 0.00 78 1015.2
20260902134457 57 0 4.0 0.0 0.00 0.00 0.00 78 1015.2
20260902134437 57 0 4.0 0.0 0.00 0.00 0.00 78 1015.2
20260902134430 57 0 4.0 0.0 0.00 0.00 0.00 77 1015.2
20260902134358 57 0 4.0 0.0 0.00 0.00 0.00 78 1015.2
20260902134328 57 0 4.0 0.0 0.00 0.00 0.00 78 1015.2
20260902134243 57 0 4.0 0.0 0.00 0.00 0.00 78 1015.2
20260902134143 57 10 2.0 3.0 0.00 0.00 0.00 78 1016.0
20260902134110 57 0 4.0 0.0 0.00 0.00 0.00 78 1015.2
20260902133927 57 0 4.0 0.0 0.00 0.00 0.00 78 1015.2
20260902133901 57 0 4.0 4.0 0.00 0.00 0.00 78 1015.2
20260902133827 57 45 2.0 0.0 0.00 0.00 0.00 78 1015.1
20260902133741 57 45 2.0 0.0 0.00 0.00 0.00 78 1015.1
20260902133639 57 50 3.0 3.0 0.00 0.00 0.00 78 1016.0
20260902133627 57 45 2.0 0.0 0.00 0.00 0.00 78 1015.1
20260902133558 57 45 2.0 0.0 0.00 0.00 0.00 78 1015.1
20260902133527 57 45 2.0 0.0 0.00 0.00 0.00 78 1015.1
20260902133429 57 45 2.0 0.0 0.00 0.00 0.00 78 1015.1
20260902133358 57 45 2.0 0.0 0.00 0.00 0.00 78 1015.1
20260902133327 57 45 2.0 0.0 0.00 0.00 0.00 78 1015.1
20260902133258 57 45 2.0 0.0 0.00 0.00 0.00 78 1015.1
20260902133227 57 45 2.0 0.0 0.00 0.00 0.00 78 1015.1
20260902133140 57 47 2.0 3.0 0.00 0.00 0.00 78 1015.9
20260902133135 57 74 2.0 0.0 0.00 0.00 0.00 78 1015.2
20260902133128 57 45 2.0 0.0 0.00 0.00 0.00 78 1015.1
20260902133031 57 45 2.0 0.0 0.00 0.00 0.00 78 1015.1
20260902133006 57 74 2.0 0.0 0.00 0.00 0.00 78 1015.2
20260902132927 57 45 2.0 0.0 0.00 0.00 0.00 78 1015.1
20260902132905 57 74 2.0 0.0 0.00 0.00 0.00 78 1015.2
20260902132900 57 45 2.0 2.0 0.00 0.00 0.00 78 1015.1
20260902132828 57 74 2.0 0.0 0.00 0.00 0.00 78 1015.2
20260902132806 57 74 2.0 0.0 0.00 0.00 0.00 78 1015.2
20260902132757 57 74 2.0 0.0 0.00 0.00 0.00 78 1015.2
20260902132635 57 46 2.0 4.0 0.00 0.00 0.00 78 1016.0
20260902132508 57 74 2.0 0.0 0.00 0.00 0.00 78 1015.2
20260902132339 57 60 2.0 0.0 0.00 0.00 0.00 78 1015.0
20260902132328 57 74 2.0 0.0 0.00 0.00 0.00 78 1015.2
20260902132315 57 60 2.0 0.0 0.00 0.00 0.00 78 1015.0
20260902132308 57 74 2.0 0.0 0.00 0.00 0.00 78 1015.2
20260902132131 57 355 1.0 3.0 0.00 0.00 0.00 78 1016.0
20260902132128 57 74 2.0 0.0 0.00 0.00 0.00 78 1015.2
20260902132029 57 74 2.0 0.0 0.00 0.00 0.00 78 1015.2
20260902132011 57 60 2.0 0.0 0.00 0.00 0.00 78 1015.0
20260902132005 57 74 2.0 0.0 0.00 0.00 0.00 78 1015.2
20260902131954 57 74 2.0 2.0 0.00 0.00 0.00 78 1015.2
20260902131629 57 60 2.0 0.0 0.00 0.00 0.00 78 1015.0
20260902131626 57 89 0.0 3.0 0.00 0.00 0.00 78 1016.0
20260902131602 57 60 2.0 0.0 0.00 0.00 0.00 78 1015.0
20260902131528 57 60 2.0 0.0 0.00 0.00 0.00 78 1015.0
20260902131505 56 47 0.0 0.0 0.00 0.00 0.00 78 1015.2
20260902131442 57 60 2.0 0.0 0.00 0.00 0.00 78 1015.0
20260902131302 57 47 0.0 0.0 0.00 0.00 0.00 78 1015.2
20260902131246 57 60 2.0 0.0 0.00 0.00 0.00 78 1015.0
20260902131235 57 60 2.0 0.0 0.00 0.00 0.00 78 1015.0
20260902131121 57 99 2.0 2.0 0.00 0.00 0.00 78 1016.0
20260902130942 57 60 2.0 0.0 0.00 0.00 0.00 78 1015.0
20260902130931 57 60 2.0 3.0 0.00 0.00 0.00 78 1015.0
20260902130920 57 47 0.0 0.0 0.00 0.00 0.00 78 1015.2
20260902130727 56 47 0.0 0.0 0.00 0.00 0.00 78 1015.2
20260902130658 56 47 0.0 0.0 0.00 0.00 0.00 78 1015.2
20260902130627 56 47 0.0 0.0 0.00 0.00 0.00 78 1015.2
20260902130617 57 37 2.0 4.0 0.00 0.00 0.00 78 1016.0
20260902130607 56 47 0.0 0.0 0.00 0.00 0.00 78 1015.2
20260902130427 56 47 0.0 0.0 0.00 0.00 0.00 78 1015.2
20260902130403 56 47 0.0 0.0 0.00 0.00 0.00 78 1015.2
20260902130328 56 47 0.0 0.0 0.00 0.00 0.00 78 1015.2
20260902130259 56 47 0.0 0.0 0.00 0.00 0.00 78 1015.2
20260902130228 56 47 0.0 0.0 0.00 0.00 0.00 78 1015.2
20260902130213 56 81 1.0 0.0 0.00 0.00 0.00 78 1015.1
20260902130128 56 47 0.0 0.0 0.00 0.00 0.00 78 1015.2
20260902130113 56 23 1.0 3.0 0.00 0.00 0.00 78 1016.0
20260902130041 56 47 0.0 0.0 0.00 0.00 0.00 78 1015.2
20260902125859 56 47 0.0 1.0 0.00 0.00 0.00 78 1015.2
20260902125842 56 81 1.0 0.0 0.00 0.00 0.00 78 1015.1
20260902125659 56 81 1.0 0.0 0.00 0.00 0.00 78 1015.1
20260902125628 56 81 1.0 0.0 0.00 0.00 0.00 78 1015.1
20260902125608 56 60 1.0 2.0 0.00 0.00 0.00 78 1015.9
20260902125557 56 81 1.0 0.0 0.00 0.00 0.00 78 1015.1
20260902125527 56 81 1.0 0.0 0.00 0.00 0.00 78 1015.1
20260902125458 56 81 1.0 0.0 0.00 0.00 0.00 78 1015.1
20260902125432 56 81 1.0 0.0 0.00 0.00 0.00 78 1015.1
20260902125428 56 81 1.0 0.0 0.00 0.00 0.00 78 1015.1
20260902125329 56 81 1.0 0.0 0.00 0.00 0.00 78 1015.1
20260902125242 56 68 2.0 0.0 0.00 0.00 0.00 78 1015.1
20260902125229 56 81 1.0 0.0 0.00 0.00 0.00 78 1015.1
20260902125159 56 81 1.0 0.0 0.00 0.00 0.00 77 1015.1
20260902125129 56 81 1.0 0.0 0.00 0.00 0.00 78 1015.1
20260902125119 56 81 1.0 0.0 0.00 0.00 0.00 78 1015.1
20260902125107 56 81 1.0 0.0 0.00 0.00 0.00 77 1015.1
20260902125103 56 25 1.0 2.0 0.00 0.00 0.00 77 1016.0
20260902124930 56 81 1.0 0.0 0.00 0.00 0.00 78 1015.1
20260902124920 56 81 1.0 2.0 0.00 0.00 0.00 78 1015.1
20260902124909 56 68 2.0 0.0 0.00 0.00 0.00 78 1015.1
20260902124727 56 68 2.0 0.0 0.00 0.00 0.00 78 1015.1
20260902124657 56 68 2.0 0.0 0.00 0.00 0.00 78 1015.1
20260902124638 56 68 2.0 0.0 0.00 0.00 0.00 78 1015.1
20260902124627 56 68 2.0 0.0 0.00 0.00 0.00 78 1015.1
20260902124600 56 31 0.0 2.0 0.00 0.00 0.00 78 1016.2
20260902124558 56 68 2.0 0.0 0.00 0.00 0.00 78 1015.1
20260902124527 56 68 2.0 0.0 0.00 0.00 0.00 78 1015.1
20260902124458 56 68 2.0 0.0 0.00 0.00 0.00 78 1015.1
20260902124437 56 68 2.0 0.0 0.00 0.00 0.00 78 1015.1
20260902124428 56 68 2.0 0.0 0.00 0.00 0.00 78 1015.1
20260902124358 56 68 2.0 0.0 0.00 0.00 0.00 78 1015.1
20260902124327 56 68 2.0 0.0 0.00 0.00 0.00 78 1015.1
20260902124317 56 131 1.0 0.0 0.00 0.00 0.00 78 1015.5
20260902124310 56 68 2.0 0.0 0.00 0.00 0.00 78 1015.1
20260902124128 56 68 2.0 0.0 0.00 0.00 0.00 78 1015.1
20260902124107 56 68 2.0 0.0 0.00 0.00 0.00 78 1015.1
20260902124059 56 54 2.0 2.0 0.00 0.00 0.00 78 1016.2
20260902123928 56 68 2.0 0.0 0.00 0.00 0.00 78 1015.1
20260902123907 56 131 1.0 0.0 0.00 0.00 0.00 78 1015.5
20260902123901 56 68 2.0 2.0 0.00 0.00 0.00 78 1015.1
20260902123842 56 131 1.0 0.0 0.00 0.00 0.00 78 1015.5
20260902123658 56 131 1.0 0.0 0.00 0.00 0.00 78 1015.5
20260902123627 56 131 1.0 0.0 0.00 0.00 0.00 78 1015.5
20260902123555 56 93 2.0 2.0 0.00 0.00 0.00 78 1016.0
20260902123545 56 131 1.0 0.0 0.00 0.00 0.00 78 1015.5
20260902123541 56 131 1.0 0.0 0.00 0.00 0.00 78 1015.5
20260902123328 56 131 1.0 0.0 0.00 0.00 0.00 78 1015.5
20260902123228 56 131 1.0 0.0 0.00 0.00 0.00 78 1015.5
20260902123158 56 131 1.0 0.0 0.00 0.00 0.00 78 1015.5
20260902123127 56 131 1.0 0.0 0.00 0.00 0.00 78 1015.5
20260902123108 56 131 1.0 0.0 0.00 0.00 0.00 78 1015.5
20260902123050 56 66 1.0 2.0 0.00 0.00 0.00 78 1016.3
20260902122928 56 131 1.0 0.0 0.00 0.00 0.00 78 1015.5
20260902122859 56 131 1.0 1.0 0.00 0.00 0.00 78 1015.5
20260902122828 56 31 1.0 0.0 0.00 0.00 0.00 78 1015.2
20260902122728 56 31 1.0 0.0 0.00 0.00 0.00 78 1015.2
20260902122629 56 31 1.0 0.0 0.00 0.00 0.00 78 1015.2
20260902122612 56 31 1.0 0.0 0.00 0.00 0.00 78 1015.2
20260902122549 56 17 2.0 2.0 0.00 0.00 0.00 77 1016.3
20260902122528 56 31 1.0 0.0 0.00 0.00 0.00 77 1015.2
20260902122458 56 31 1.0 0.0 0.00 0.00 0.00 77 1015.2
20260902122427 56 31 1.0 0.0 0.00 0.00 0.00 77 1015.2
20260902122358 56 31 1.0 0.0 0.00 0.00 0.00 77 1015.2
20260902122328 56 31 1.0 0.0 0.00 0.00 0.00 77 1015.2
20260902122227 56 31 1.0 0.0 0.00 0.00 0.00 77 1015.2
20260902122159 56 31 1.0 0.0 0.00 0.00 0.00 77 1015.2
20260902122128 56 31 1.0 0.0 0.00 0.00 0.00 77 1015.2
20260902122116 56 54 1.0 0.0 0.00 0.00 0.00 77 1015.2
20260902122040 56 45 2.0 3.0 0.00 0.00 0.00 77 1016.2
20260902122029 56 31 1.0 0.0 0.00 0.00 0.00 77 1015.2
20260902122005 56 54 1.0 0.0 0.00 0.00 0.00 77 1015.2
20260902121928 56 31 1.0 0.0 0.00 0.00 0.00 77 1015.2
20260902121900 56 31 1.0 2.0 0.00 0.00 0.00 77 1015.2
20260902121828 56 54 1.0 0.0 0.00 0.00 0.00 77 1015.2
20260902121804 56 54 1.0 0.0 0.00 0.00 0.00 77 1015.2
20260902121539 57 9 1.0 2.0 0.00 0.00 0.00 77 1015.9
20260902121429 56 54 1.0 0.0 0.00 0.00 0.00 77 1015.2
20260902121358 56 54 1.0 0.0 0.00 0.00 0.00 76 1015.2
20260902121327 56 54 1.0 0.0 0.00 0.00 0.00 76 1015.2
20260902121227 56 54 1.0 0.0 0.00 0.00 0.00 76 1015.2
20260902121202 57 60 2.0 0.0 0.00 0.00 0.00 76 1015.3
20260902121157 56 54 1.0 0.0 0.00 0.00 0.00 76 1015.2
20260902121127 56 54 1.0 0.0 0.00 0.00 0.00 76 1015.2
20260902121035 57 66 1.0 2.0 0.00 0.00 0.00 76 1016.2
20260902121031 56 54 1.0 0.0 0.00 0.00 0.00 76 1015.2
20260902120928 56 54 1.0 0.0 0.00 0.00 0.00 76 1015.2
20260902120904 57 60 2.0 0.0 0.00 0.00 0.00 76 1015.3
20260902120859 57 54 1.0 2.0 0.00 0.00 0.00 76 1015.2
20260902120843 57 60 2.0 0.0 0.00 0.00 0.00 76 1015.3
20260902120627 57 60 2.0 0.0 0.00 0.00 0.00 76 1015.3
20260902120613 57 60 2.0 0.0 0.00 0.00 0.00 75 1015.3
20260902120546 57 60 2.0 0.0 0.00 0.00 0.00 75 1015.3
20260902120541 57 60 2.0 0.0 0.00 0.00 0.00 76 1015.3
20260902120531 57 69 2.0 2.0 0.00 0.00 0.00 76 1016.0
20260902120357 57 60 2.0 0.0 0.00 0.00 0.00 76 1015.3
20260902120332 57 60 2.0 0.0 0.00 0.00 0.00 75 1015.3
20260902120304 57 57 2.0 0.0 0.00 0.00 0.00 75 1015.3
20260902120250 57 60 2.0 0.0 0.00 0.00 0.00 75 1015.3
20260902120110 57 60 2.0 0.0 0.00 0.00 0.00 75 1015.3
20260902120027 57 81 0.0 2.0 0.00 0.00 0.00 75 1015.8
20260902115927 57 60 2.0 0.0 0.00 0.00 0.00 75 1015.3
20260902115858 57 60 2.0 2.0 0.00 0.00 0.00 75 1015.3
20260902115829 57 57 2.0 0.0 0.00 0.00 0.00 75 1015.3
20260902115807 57 57 2.0 0.0 0.00 0.00 0.00 75 1015.3
20260902115627 57 57 2.0 0.0 0.00 0.00 0.00 75 1015.3
20260902115559 57 57 2.0 0.0 0.00 0.00 0.00 75 1015.3
20260902115527 57 44 1.0 2.0 0.00 0.00 0.00 75 1016.3
20260902115505 57 57 2.0 0.0 0.00 0.00 0.00 74 1015.3
20260902115458 57 57 2.0 0.0 0.00 0.00 0.00 75 1015.3
20260902115427 57 57 2.0 0.0 0.00 0.00 0.00 75 1015.3
20260902115334 57 57 2.0 2.0 0.00 0.00 0.00 74 1015.3
20260902115330 57 57 2.0 0.0 0.00 0.00 0.00 75 1015.3
20260902115258 57 57 2.0 0.0 0.00 0.00 0.00 74 1015.3
20260902115228 57 57 2.0 0.0 0.00 0.00 0.00 74 1015.3
20260902115202 57 69 2.0 0.0 0.00 0.00 0.00 74 1015.5
20260902115142 57 69 2.0 0.0 0.00 0.00 0.00 74 1015.5
20260902115138 57 57 2.0 0.0 0.00 0.00 0.00 74 1015.3
20260902115125 57 57 2.0 0.0 0.00 0.00 0.00 74 1015.3
20260902115024 57 73 1.0 2.0 0.00 0.00 0.00 74 1016.2
20260902114826 57 69 2.0 0.0 0.00 0.00 0.00 74 1015.5
20260902114809 57 69 2.0 0.0 0.00 0.00 0.00 74 1015.5
20260902114627 57 69 2.0 0.0 0.00 0.00 0.00 74 1015.5
20260902114607 57 69 2.0 0.0 0.00 0.00 0.00 74 1015.5
20260902114519 57 66 1.0 2.0 0.00 0.00 0.00 74 1016.4
20260902114427 57 69 2.0 0.0 0.00 0.00 0.00 74 1015.5
20260902114329 57 69 2.0 0.0 0.00 0.00 0.00 74 1015.5
20260902114258 57 69 2.0 0.0 0.00 0.00 0.00 74 1015.5
20260902114228 57 69 2.0 0.0 0.00 0.00 0.00 74 1015.5
20260902114158 57 69 2.0 0.0 0.00 0.00 0.00 74 1015.5
20260902114127 57 69 2.0 0.0 0.00 0.00 0.00 74 1015.5
20260902114108 57 64 1.0 0.0 0.00 0.00 0.00 74 1015.2
20260902114103 57 69 2.0 0.0 0.00 0.00 0.00 74 1015.5
20260902114029 57 69 2.0 0.0 0.00 0.00 0.00 74 1015.5
20260902114018 57 66 2.0 2.0 0.00 0.00 0.00 74 1016.3
20260902113958 57 69 2.0 0.0 0.00 0.00 0.00 74 1015.5
20260902113928 57 69 2.0 0.0 0.00 0.00 0.00 74 1015.5
20260902113859 57 69 2.0 2.0 0.00 0.00 0.00 74 1015.5
20260902113827 57 64 1.0 0.0 0.00 0.00 0.00 74 1015.2
20260902113743 57 64 1.0 0.0 0.00 0.00 0.00 74 1015.2
20260902113608 57 64 1.0 0.0 0.00 0.00 0.00 74 1015.2
20260902113558 57 64 1.0 0.0 0.00 0.00 0.00 74 1015.2
20260902113527 57 64 1.0 0.0 0.00 0.00 0.00 74 1015.2
20260902113514 57 31 0.0 2.0 0.00 0.00 0.00 74 1016.3
20260902113428 57 64 1.0 0.0 0.00 0.00 0.00 74 1015.2
20260902113411 57 64 1.0 0.0 0.00 0.00 0.00 74 1015.2
20260902113358 57 64 1.0 0.0 0.00 0.00 0.00 74 1015.2
20260902113329 57 64 1.0 0.0 0.00 0.00 0.00 73 1015.2
20260902113243 57 64 1.0 0.0 0.00 0.00 0.00 74 1015.2
20260902113041 57 64 1.0 0.0 0.00 0.00 0.00 74 1015.2
20260902113009 57 47 2.0 3.0 0.00 0.00 0.00 74 1016.3
20260902112858 57 64 1.0 2.0 0.00 0.00 0.00 74 1015.2
20260902112839 57 61 2.0 0.0 0.00 0.00 0.00 74 1015.5
20260902112740 57 61 2.0 0.0 0.00 0.00 0.00 74 1015.5
20260902112716 57 61 2.0 0.0 0.00 0.00 0.00 74 1015.5
20260902112656 57 61 2.0 0.0 0.00 0.00 0.00 74 1015.5
20260902112626 57 61 2.0 0.0 0.00 0.00 0.00 74 1015.5
20260902112602 57 61 2.0 0.0 0.00 0.00 0.00 74 1015.5
20260902112557 57 61 2.0 0.0 0.00 0.00 0.00 74 1015.5
20260902112526 57 61 2.0 0.0 0.00 0.00 0.00 74 1015.5
20260902112504 57 51 2.0 3.0 0.00 0.00 0.00 74 1016.3
20260902112457 57 61 2.0 0.0 0.00 0.00 0.00 75 1015.5
20260902112426 57 61 2.0 0.0 0.00 0.00 0.00 74 1015.5
20260902112359 57 61 2.0 0.0 0.00 0.00 0.00 74 1015.5
20260902112057 57 61 2.0 0.0 0.00 0.00 0.00 74 1015.5
20260902112027 57 61 2.0 0.0 0.00 0.00 0.00 74 1015.5
20260902112001 57 50 1.0 2.0 0.00 0.00 0.00 75 1016.0
20260902111957 57 61 2.0 0.0 0.00 0.00 0.00 74 1015.5
20260902111926 57 61 2.0 0.0 0.00 0.00 0.00 75 1015.5
20260902111858 57 61 2.0 2.0 0.00 0.00 0.00 74 1015.5
20260902111826 57 52 2.0 0.0 0.00 0.00 0.00 74 1015.3
20260902111758 57 52 2.0 0.0 0.00 0.00 0.00 75 1015.3
20260902111740 57 52 2.0 0.0 0.00 0.00 0.00 74 1015.3
20260902111726 57 52 2.0 0.0 0.00 0.00 0.00 75 1015.3
20260902111701 57 52 2.0 0.0 0.00 0.00 0.00 75 1015.3
20260902111628 57 52 2.0 0.0 0.00 0.00 0.00 75 1015.3
20260902111557 57 52 2.0 0.0 0.00 0.00 0.00 75 1015.3
20260902111526 57 52 2.0 0.0 0.00 0.00 0.00 75 1015.3
20260902111457 57 44 1.0 2.0 0.00 0.00 0.00 74 1016.0
20260902111434 57 52 2.0 0.0 0.00 0.00 0.00 74 1015.3
20260902111419 57 52 2.0 0.0 0.00 0.00 0.00 74 1015.3
20260902111227 57 52 2.0 0.0 0.00 0.00 0.00 74 1015.3
20260902111157 57 52 2.0 0.0 0.00 0.00 0.00 74 1015.3
20260902111126 57 52 2.0 0.0 0.00 0.00 0.00 74 1015.3
20260902111109 57 52 2.0 0.0 0.00 0.00 0.00 74 1015.3
20260902111040 57 52 0.0 0.0 0.00 0.00 0.00 73 1015.3
20260902111027 57 52 2.0 0.0 0.00 0.00 0.00 74 1015.3
20260902110957 57 52 2.0 0.0 0.00 0.00 0.00 74 1015.3
20260902110952 57 60 2.0 2.0 0.00 0.00 0.00 73 1016.0
20260902110926 57 52 2.0 0.0 0.00 0.00 0.00 73 1015.3
20260902110858 57 52 2.0 2.0 0.00 0.00 0.00 73 1015.3
20260902110826 57 52 0.0 0.0 0.00 0.00 0.00 73 1015.3
20260902110758 57 52 0.0 0.0 0.00 0.00 0.00 73 1015.3
20260902110727 57 52 0.0 0.0 0.00 0.00 0.00 73 1015.3
20260902110713 57 52 0.0 0.0 0.00 0.00 0.00 73 1015.3
20260902110527 57 52 0.0 0.0 0.00 0.00 0.00 74 1015.3
20260902110448 57 36 0.0 2.0 0.00 0.00 0.00 74 1016.0
20260902110427 57 52 0.0 0.0 0.00 0.00 0.00 74 1015.3
20260902110356 57 52 0.0 0.0 0.00 0.00 0.00 74 1015.3
20260902110326 57 52 0.0 0.0 0.00 0.00 0.00 74 1015.3
20260902110310 57 52 0.0 0.0 0.00 0.00 0.00 74 1015.3
20260902110234 57 52 0.0 0.0 0.00 0.00 0.00 74 1015.3
20260902110205 57 56 1.0 0.0 0.00 0.00 0.00 74 1015.3
20260902110127 57 52 0.0 0.0 0.00 0.00 0.00 74 1015.3
20260902110110 57 52 0.0 0.0 0.00 0.00 0.00 74 1015.3
20260902110034 57 56 1.0 0.0 0.00 0.00 0.00 74 1015.3
20260902110030 57 52 0.0 0.0 0.00 0.00 0.00 74 1015.3
20260902105957 57 52 0.0 0.0 0.00 0.00 0.00 74 1015.3
20260902105943 57 52 0.0 3.0 0.00 0.00 0.00 74 1016.0
20260902105926 57 52 0.0 0.0 0.00 0.00 0.00 74 1015.3
20260902105859 57 52 0.0 1.0 0.00 0.00 0.00 74 1015.3
20260902105840 57 56 1.0 0.0 0.00 0.00 0.00 74 1015.3
20260902105706 57 56 1.0 0.0 0.00 0.00 0.00 74 1015.3
20260902105526 57 56 1.0 0.0 0.00 0.00 0.00 74 1015.3
20260902105457 57 56 1.0 0.0 0.00 0.00 0.00 74 1015.3
20260902105438 57 61 0.0 2.0 0.00 0.00 0.00 74 1016.4
20260902105427 57 56 1.0 0.0 0.00 0.00 0.00 74 1015.3
20260902105400 57 56 1.0 0.0 0.00 0.00 0.00 75 1015.3
20260902105326 57 56 1.0 0.0 0.00 0.00 0.00 74 1015.3
20260902105227 57 56 1.0 0.0 0.00 0.00 0.00 74 1015.3
20260902105211 57 56 1.0 0.0 0.00 0.00 0.00 74 1015.3
20260902105126 57 56 1.0 0.0 0.00 0.00 0.00 74 1015.3
20260902105043 57 56 1.0 0.0 0.00 0.00 0.00 74 1015.3
20260902104932 57 52 1.0 3.0 0.00 0.00 0.00 75 1016.3
20260902104858 57 56 1.0 2.0 0.00 0.00 0.00 75 1015.3
20260902104827 57 58 1.0 0.0 0.00 0.00 0.00 75 1015.3
20260902104810 57 58 1.0 0.0 0.00 0.00 0.00 75 1015.3
20260902104727 57 58 1.0 0.0 0.00 0.00 0.00 75 1015.3
20260902104627 57 58 1.0 0.0 0.00 0.00 0.00 75 1015.3
20260902104539 57 58 1.0 0.0 0.00 0.00 0.00 75 1015.3
20260902104526 57 58 1.0 0.0 0.00 0.00 0.00 75 1015.3
20260902104443 57 58 1.0 0.0 0.00 0.00 0.00 75 1015.3
20260902104429 57 66 1.0 3.0 0.00 0.00 0.00 75 1016.3
20260902104231 57 58 1.0 0.0 0.00 0.00 0.00 75 1015.3
20260902104207 57 58 1.0 0.0 0.00 0.00 0.00 75 1015.3
20260902104030 57 58 1.0 0.0 0.00 0.00 0.00 75 1015.3
20260902103928 57 66 0.0 2.0 0.00 0.00 0.00 75 1016.3
20260902103903 57 49 0.0 0.0 0.00 0.00 0.00 73 1015.4
20260902103858 57 58 1.0 1.0 0.00 0.00 0.00 75 1015.3
20260902103826 57 49 0.0 0.0 0.00 0.00 0.00 75 1015.4
20260902103739 57 49 0.0 0.0 0.00 0.00 0.00 73 1015.4
20260902103731 57 49 0.0 0.0 0.00 0.00 0.00 75 1015.4
20260902103628 57 49 0.0 0.0 0.00 0.00 0.00 74 1015.4
20260902103532 57 49 0.0 0.0 0.00 0.00 0.00 74 1015.4
20260902103520 57 49 0.0 0.0 0.00 0.00 0.00 74 1015.4
20260902103424 57 68 1.0 2.0 0.00 0.00 0.00 73 1016.2
20260902103228 57 49 0.0 0.0 0.00 0.00 0.00 73 1015.4
20260902103210 57 82 1.0 0.0 0.00 0.00 0.00 73 1015.3
20260902103158 57 49 0.0 0.0 0.00 0.00 0.00 73 1015.4
20260902103127 57 49 0.0 0.0 0.00 0.00 0.00 73 1015.4
20260902103033 57 49 0.0 0.0 0.00 0.00 0.00 73 1015.4
20260902102957 57 49 0.0 0.0 0.00 0.00 0.00 73 1015.4
20260902102926 57 49 0.0 0.0 0.00 0.00 0.00 73 1015.4
20260902102919 57 67 2.0 2.0 0.00 0.00 0.00 73 1016.2
20260902102900 57 49 0.0 1.0 0.00 0.00 0.00 73 1015.4
20260902102848 57 82 1.0 0.0 0.00 0.00 0.00 72 1015.3
20260902102841 57 82 1.0 0.0 0.00 0.00 0.00 73 1015.3
20260902102656 57 82 1.0 0.0 0.00 0.00 0.00 73 1015.3
20260902102632 57 82 1.0 0.0 0.00 0.00 0.00 71 1015.3
20260902102626 57 82 1.0 0.0 0.00 0.00 0.00 72 1015.3
20260902102557 57 82 1.0 0.0 0.00 0.00 0.00 72 1015.3
20260902102526 57 82 1.0 0.0 0.00 0.00 0.00 72 1015.3
20260902102515 57 82 1.0 0.0 0.00 0.00 0.00 71 1015.3
20260902102507 57 82 1.0 0.0 0.00 0.00 0.00 72 1015.3
20260902102416 57 66 0.0 1.0 0.00 0.00 0.00 72 1016.2
20260902102328 57 82 1.0 0.0 0.00 0.00 0.00 71 1015.3
20260902102307 57 82 1.0 0.0 0.00 0.00 0.00 71 1015.3
20260902101931 57 78 1.0 0.0 0.00 0.00 0.00 70 1015.2
20260902101927 57 82 1.0 0.0 0.00 0.00 0.00 71 1015.3
20260902101913 57 89 0.0 2.0 0.00 0.00 0.00 71 1016.0
20260902101857 57 82 1.0 1.0 0.00 0.00 0.00 71 1015.3
20260902101827 57 78 1.0 0.0 0.00 0.00 0.00 71 1015.2
20260902101814 57 78 1.0 0.0 0.00 0.00 0.00 70 1015.2
20260902101809 57 78 1.0 0.0 0.00 0.00 0.00 70 1015.2
20260902101726 57 78 1.0 0.0 0.00 0.00 0.00 70 1015.2
20260902101639 57 78 1.0 0.0 0.00 0.00 0.00 70 1015.2
20260902101632 57 78 1.0 0.0 0.00 0.00 0.00 70 1015.2
20260902101618 57 78 1.0 0.0 0.00 0.00 0.00 70 1015.2
20260902101608 57 78 1.0 0.0 0.00 0.00 0.00 70 1015.2
20260902101412 57 85 0.0 2.0 0.00 0.00 0.00 70 1016.4
20260902101307 57 78 1.0 0.0 0.00 0.00 0.00 70 1015.2
20260902100957 57 78 1.0 0.0 0.00 0.00 0.00 70 1015.2
20260902100939 57 69 0.0 0.0 0.00 0.00 0.00 70 1015.4
20260902100926 57 78 1.0 0.0 0.00 0.00 0.00 70 1015.2
20260902100912 57 62 2.0 2.0 0.00 0.00 0.00 70 1016.0
20260902100858 57 78 1.0 2.0 0.00 0.00 0.00 70 1015.2
20260902100827 57 69 0.0 0.0 0.00 0.00 0.00 70 1015.4
20260902100728 57 69 0.0 0.0 0.00 0.00 0.00 70 1015.4
20260902100626 57 69 0.0 0.0 0.00 0.00 0.00 70 1015.4
20260902100607 57 69 0.0 0.0 0.00 0.00 0.00 70 1015.4
20260902100437 57 69 0.0 0.0 0.00 0.00 0.00 69 1015.4
20260902100427 57 69 0.0 0.0 0.00 0.00 0.00 70 1015.4
20260902100411 57 74 1.0 2.0 0.00 0.00 0.00 70 1016.3
20260902100327 57 69 0.0 0.0 0.00 0.00 0.00 70 1015.4
20260902100227 57 69 0.0 0.0 0.00 0.00 0.00 69 1015.4
20260902100158 57 69 0.0 0.0 0.00 0.00 0.00 69 1015.4
20260902100126 57 69 0.0 0.0 0.00 0.00 0.00 69 1015.4
20260902100108 57 69 0.0 0.0 0.00 0.00 0.00 69 1015.4
20260902095926 57 69 0.0 0.0 0.00 0.00 0.00 69 1015.4
20260902095906 57 69 0.0 2.0 0.00 0.00 0.00 68 1016.2
20260902095858 57 69 0.0 1.0 0.00 0.00 0.00 68 1015.4
20260902095835 57 76 0.0 0.0 0.00 0.00 0.00 66 1015.2
20260902095826 57 76 0.0 0.0 0.00 0.00 0.00 68 1015.2
20260902095756 57 76 0.0 0.0 0.00 0.00 0.00 69 1015.2
20260902095726 57 76 0.0 0.0 0.00 0.00 0.00 68 1015.2
20260902095656 57 76 0.0 0.0 0.00 0.00 0.00 68 1015.2
20260902095629 57 76 0.0 0.0 0.00 0.00 0.00 67 1015.2
20260902095557 57 76 0.0 0.0 0.00 0.00 0.00 66 1015.2
20260902095526 57 76 0.0 0.0 0.00 0.00 0.00 66 1015.2
20260902095513 57 76 0.0 0.0 0.00 0.00 0.00 65 1015.2
20260902095506 57 76 0.0 0.0 0.00 0.00 0.00 66 1015.2
20260902095401 57 46 1.0 2.0 0.00 0.00 0.00 66 1016.3
20260902095328 57 76 0.0 0.0 0.00 0.00 0.00 66 1015.2
20260902095227 57 76 0.0 0.0 0.00 0.00 0.00 66 1015.2
20260902095157 57 76 0.0 0.0 0.00 0.00 0.00 66 1015.2
20260902095135 57 82 2.0 0.0 0.00 0.00 0.00 64 1015.4
20260902095128 57 76 0.0 0.0 0.00 0.00 0.00 65 1015.2
20260902095044 57 82 2.0 0.0 0.00 0.00 0.00 64 1015.4
20260902095040 57 76 0.0 0.0 0.00 0.00 0.00 65 1015.2
20260902094900 57 55 0.0 2.0 0.00 0.00 0.00 65 1016.2
20260902094858 57 76 0.0 1.0 0.00 0.00 0.00 65 1015.2
20260902094841 57 82 2.0 0.0 0.00 0.00 0.00 65 1015.4
20260902094832 57 82 2.0 0.0 0.00 0.00 0.00 65 1015.4
20260902094822 57 82 2.0 0.0 0.00 0.00 0.00 64 1015.4
20260902094648 57 82 2.0 0.0 0.00 0.00 0.00 63 1015.4
20260902094644 57 82 2.0 0.0 0.00 0.00 0.00 65 1015.4
20260902094456 57 82 2.0 0.0 0.00 0.00 0.00 64 1015.4
20260902094426 57 82 2.0 0.0 0.00 0.00 0.00 64 1015.4
20260902094357 57 55 1.0 2.0 0.00 0.00 0.00 64 1016.0
20260902094326 57 82 2.0 0.0 0.00 0.00 0.00 64 1015.4
20260902094301 57 45 2.0 0.0 0.00 0.00 0.00 63 1015.4
20260902094247 57 82 2.0 0.0 0.00 0.00 0.00 64 1015.4
20260902094238 57 82 2.0 0.0 0.00 0.00 0.00 64 1015.4
20260902094043 57 82 2.0 0.0 0.00 0.00 0.00 63 1015.4
20260902093930 57 82 2.0 0.0 0.00 0.00 0.00 63 1015.4
20260902093920 58 45 2.0 0.0 0.00 0.00 0.00 63 1015.4
20260902093905 57 82 2.0 2.0 0.00 0.00 0.00 63 1015.4
20260902093856 57 66 1.0 2.0 0.00 0.00 0.00 63 1016.3
20260902093854 57 45 2.0 0.0 0.00 0.00 0.00 63 1015.4
20260902093656 57 45 2.0 0.0 0.00 0.00 0.00 63 1015.4
20260902093626 58 45 2.0 0.0 0.00 0.00 0.00 63 1015.4
20260902093543 58 45 2.0 0.0 0.00 0.00 0.00 63 1015.4
20260902093357 58 45 2.0 0.0 0.00 0.00 0.00 63 1015.4
20260902093351 58 44 2.0 2.0 0.00 0.00 0.00 62 1016.0
20260902093327 58 45 2.0 0.0 0.00 0.00 0.00 62 1015.4
20260902093257 58 45 2.0 0.0 0.00 0.00 0.00 62 1015.4
20260902093226 58 45 2.0 0.0 0.00 0.00 0.00 62 1015.4
20260902093211 58 86 2.0 0.0 0.00 0.00 0.00 63 1015.3
20260902093157 58 45 2.0 0.0 0.00 0.00 0.00 62 1015.4
20260902093127 58 45 2.0 0.0 0.00 0.00 0.00 62 1015.4
20260902093028 58 45 2.0 0.0 0.00 0.00 0.00 62 1015.4
20260902092959 58 45 2.0 0.0 0.00 0.00 0.00 62 1015.4
20260902092927 58 45 2.0 0.0 0.00 0.00 0.00 62 1015.4
20260902092901 58 45 2.0 2.0 0.00 0.00 0.00 62 1015.4
20260902092850 58 61 1.0 2.0 0.00 0.00 0.00 62 1016.2
20260902092845 58 86 2.0 0.0 0.00 0.00 0.00 62 1015.3
20260902092837 58 86 2.0 0.0 0.00 0.00 0.00 62 1015.3
20260902092701 58 86 2.0 0.0 0.00 0.00 0.00 62 1015.3
20260902092627 58 86 2.0 0.0 0.00 0.00 0.00 61 1015.3
20260902092529 58 86 2.0 0.0 0.00 0.00 0.00 61 1015.3
20260902092459 58 86 2.0 0.0 0.00 0.00 0.00 61 1015.3
20260902092428 58 86 2.0 0.0 0.00 0.00 0.00 62 1015.3
20260902092416 58 70 1.0 0.0 0.00 0.00 0.00 62 1015.4
20260902092408 58 86 2.0 0.0 0.00 0.00 0.00 61 1015.3
20260902092346 58 45 2.0 2.0 0.00 0.00 0.00 61 1016.3
20260902092226 58 86 2.0 0.0 0.00 0.00 0.00 61 1015.3
20260902092127 58 86 2.0 0.0 0.00 0.00 0.00 61 1015.3
20260902092029 58 86 2.0 0.0 0.00 0.00 0.00 62 1015.3
20260902092001 58 86 2.0 0.0 0.00 0.00 0.00 62 1015.3
20260902091951 58 86 2.0 2.0 0.00 0.00 0.00 62 1015.3
20260902091846 58 62 2.0 2.0 0.00 0.00 0.00 62 1016.4
20260902091758 58 70 1.0 0.0 0.00 0.00 0.00 62 1015.4
20260902091748 58 70 1.0 0.0 0.00 0.00 0.00 60 1015.4
20260902091728 58 70 1.0 0.0 0.00 0.00 0.00 63 1015.4
20260902091656 58 70 1.0 0.0 0.00 0.00 0.00 63 1015.4
20260902091627 58 70 1.0 0.0 0.00 0.00 0.00 62 1015.4
20260902091557 58 70 1.0 0.0 0.00 0.00 0.00 61 1015.4
20260902091526 58 70 1.0 0.0 0.00 0.00 0.00 61 1015.4
20260902091427 58 70 1.0 0.0 0.00 0.00 0.00 61 1015.4
20260902091417 58 70 1.0 2.0 0.00 0.00 0.00 60 1015.4
20260902091407 58 70 1.0 0.0 0.00 0.00 0.00 60 1015.4
20260902091342 58 72 0.0 2.0 0.00 0.00 0.00 60 1016.2
20260902091227 58 70 1.0 0.0 0.00 0.00 0.00 60 1015.4
20260902091202 58 51 1.0 0.0 0.00 0.00 0.00 60 1015.4
20260902091128 58 70 1.0 0.0 0.00 0.00 0.00 60 1015.4
20260902091104 58 70 1.0 0.0 0.00 0.00 0.00 60 1015.4
20260902091031 58 70 1.0 0.0 0.00 0.00 0.00 60 1015.4
20260902091008 58 70 1.0 0.0 0.00 0.00 0.00 60 1015.4
20260902090841 58 51 1.0 0.0 0.00 0.00 0.00 60 1015.4
20260902090839 58 73 1.0 2.0 0.00 0.00 0.00 59 1016.5
20260902090836 58 51 1.0 0.0 0.00 0.00 0.00 59 1015.4
20260902090825 58 51 1.0 0.0 0.00 0.00 0.00 59 1015.4
20260902090629 58 51 1.0 0.0 0.00 0.00 0.00 60 1015.4
20260902090602 58 51 1.0 0.0 0.00 0.00 0.00 59 1015.4
20260902090532 58 51 1.0 0.0 0.00 0.00 0.00 60 1015.4
20260902090519 58 51 1.0 0.0 0.00 0.00 0.00 60 1015.4
20260902090507 58 51 1.0 0.0 0.00 0.00 0.00 60 1015.4
20260902090457 58 51 1.0 0.0 0.00 0.00 0.00 59 1015.4
20260902090338 58 113 0.0 2.0 0.00 0.00 0.00 60 1016.3
20260902090110 58 51 1.0 0.0 0.00 0.00 0.00 60 1015.4
20260902090029 58 51 1.0 0.0 0.00 0.00 0.00 60 1015.4
20260902085957 58 51 1.0 0.0 0.00 0.00 0.00 59 1015.4
20260902085927 58 51 1.0 0.0 0.00 0.00 0.00 59 1015.4
20260902085858 58 51 1.0 1.0 0.00 0.00 0.00 59 1015.4
20260902085837 58 39 1.0 2.0 0.00 0.00 0.00 58 1016.3
20260902085826 58 63 2.0 0.0 0.00 0.00 0.00 58 1015.3
20260902085757 58 63 2.0 0.0 0.00 0.00 0.00 58 1015.3
20260902085726 58 63 2.0 0.0 0.00 0.00 0.00 58 1015.3
20260902085656 58 63 2.0 0.0 0.00 0.00 0.00 58 1015.3
20260902085627 58 63 2.0 0.0 0.00 0.00 0.00 59 1015.3
20260902085557 58 63 2.0 0.0 0.00 0.00 0.00 58 1015.3
20260902085526 58 63 2.0 0.0 0.00 0.00 0.00 58 1015.3
20260902085504 58 63 2.0 0.0 0.00 0.00 0.00 57 1015.3
20260902085457 58 63 2.0 0.0 0.00 0.00 0.00 57 1015.3
20260902085427 58 63 2.0 0.0 0.00 0.00 0.00 57 1015.3
20260902085358 58 63 2.0 0.0 0.00 0.00 0.00 57 1015.3
20260902085332 58 76 1.0 2.0 0.00 0.00 0.00 57 1016.3
20260902085327 58 63 2.0 0.0 0.00 0.00 0.00 57 1015.3
20260902085228 58 63 2.0 0.0 0.00 0.00 0.00 57 1015.3
20260902085208 58 32 2.0 0.0 0.00 0.00 0.00 56 1015.6
20260902085201 58 32 2.0 0.0 0.00 0.00 0.00 57 1015.6
20260902085145 58 63 2.0 0.0 0.00 0.00 0.00 57 1015.3
20260902085008 58 63 2.0 0.0 0.00 0.00 0.00 57 1015.3
20260902084958 58 63 2.0 2.0 0.00 0.00 0.00 57 1015.3
20260902084832 58 32 2.0 0.0 0.00 0.00 0.00 57 1015.6
20260902084828 58 40 1.0 2.0 0.00 0.00 0.00 57 1016.0
20260902084823 58 32 2.0 0.0 0.00 0.00 0.00 57 1015.6
20260902084526 58 32 2.0 0.0 0.00 0.00 0.00 56 1015.6
20260902084515 58 32 2.0 0.0 0.00 0.00 0.00 56 1015.6
20260902084458 58 32 2.0 0.0 0.00 0.00 0.00 56 1015.6
20260902084427 58 32 2.0 0.0 0.00 0.00 0.00 56 1015.6
20260902084327 58 32 2.0 0.0 0.00 0.00 0.00 56 1015.6
20260902084325 59 59 2.0 2.0 0.00 0.00 0.00 56 1016.4
20260902084257 58 32 2.0 0.0 0.00 0.00 0.00 56 1015.6
20260902084227 58 32 2.0 0.0 0.00 0.00 0.00 56 1015.6
20260902084146 58 49 1.0 0.0 0.00 0.00 0.00 56 1015.4
20260902084142 58 32 2.0 0.0 0.00 0.00 0.00 56 1015.6
20260902083927 58 32 2.0 0.0 0.00 0.00 0.00 56 1015.6
20260902083857 58 32 2.0 2.0 0.00 0.00 0.00 56 1015.6
20260902083826 58 49 1.0 0.0 0.00 0.00 0.00 56 1015.4
20260902083820 59 52 2.0 2.0 0.00 0.00 0.00 56 1016.3
20260902083806 59 49 1.0 0.0 0.00 0.00 0.00 56 1015.4
20260902083754 58 49 1.0 0.0 0.00 0.00 0.00 56 1015.4
20260902083558 58 49 1.0 0.0 0.00 0.00 0.00 57 1015.4
20260902083532 59 49 1.0 0.0 0.00 0.00 0.00 57 1015.4
20260902083527 58 49 1.0 0.0 0.00 0.00 0.00 56 1015.4
20260902083456 58 49 1.0 0.0 0.00 0.00 0.00 56 1015.4
20260902083427 59 49 1.0 0.0 0.00 0.00 0.00 56 1015.4
20260902083417 59 49 1.0 0.0 0.00 0.00 0.00 57 1015.4
20260902083407 59 49 1.0 0.0 0.00 0.00 0.00 56 1015.4
20260902083319 59 57 1.0 2.0 0.00 0.00 0.00 56 1016.2
20260902083228 59 49 1.0 0.0 0.00 0.00 0.00 56 1015.4
20260902083201 59 40 0.0 0.0 0.00 0.00 0.00 56 1015.3
20260902083144 59 49 1.0 0.0 0.00 0.00 0.00 56 1015.4
20260902082956 59 49 1.0 0.0 0.00 0.00 0.00 56 1015.4
20260902082936 59 40 0.0 0.0 0.00 0.00 0.00 55 1015.3
20260902082927 59 49 1.0 0.0 0.00 0.00 0.00 57 1015.4
20260902082858 59 49 1.0 1.0 0.00 0.00 0.00 57 1015.4
20260902082826 59 40 0.0 0.0 0.00 0.00 0.00 57 1015.3
20260902082814 59 51 2.0 2.0 0.00 0.00 0.00 56 1016.3
20260902082807 59 40 0.0 0.0 0.00 0.00 0.00 56 1015.3
20260902082627 59 40 0.0 0.0 0.00 0.00 0.00 56 1015.3
20260902082617 59 40 0.0 0.0 0.00 0.00 0.00 56 1015.3
20260902082607 59 40 0.0 0.0 0.00 0.00 0.00 55 1015.3
20260902082426 59 40 0.0 0.0 0.00 0.00 0.00 55 1015.3
20260902082405 59 40 0.0 0.0 0.00 0.00 0.00 54 1015.3
20260902082346 59 40 0.0 0.0 0.00 0.00 0.00 55 1015.3
20260902082337 59 40 0.0 0.0 0.00 0.00 0.00 55 1015.3
20260902082311 59 55 1.0 2.0 0.00 0.00 0.00 54 1016.2
20260902082207 59 84 1.0 0.0 0.00 0.00 0.00 52 1015.4
20260902082157 59 40 0.0 0.0 0.00 0.00 0.00 54 1015.3
20260902082126 59 40 0.0 0.0 0.00 0.00 0.00 54 1015.3
20260902082104 59 40 0.0 0.0 0.00 0.00 0.00 53 1015.3
20260902082053 59 40 0.0 0.0 0.00 0.00 0.00 54 1015.3
20260902081900 59 40 0.0 2.0 0.00 0.00 0.00 54 1015.3
20260902081849 59 84 1.0 0.0 0.00 0.00 0.00 53 1015.4
20260902081845 59 84 1.0 0.0 0.00 0.00 0.00 54 1015.4
20260902081836 59 84 1.0 0.0 0.00 0.00 0.00 54 1015.4
20260902081807 59 63 2.0 2.0 0.00 0.00 0.00 52 1016.2
20260902081646 59 84 1.0 0.0 0.00 0.00 0.00 52 1015.4
20260902081628 59 84 1.0 0.0 0.00 0.00 0.00 52 1015.4
20260902081610 59 84 1.0 0.0 0.00 0.00 0.00 52 1015.4
20260902081532 59 84 1.0 0.0 0.00 0.00 0.00 52 1015.4
20260902081445 59 84 1.0 0.0 0.00 0.00 0.00 52 1015.4
20260902081437 59 84 1.0 0.0 0.00 0.00 0.00 52 1015.4
20260902081316 59 50 2.0 0.0 0.00 0.00 0.00 52 1015.3
20260902081306 59 84 1.0 0.0 0.00 0.00 0.00 52 1015.4
20260902081302 59 45 2.0 3.0 0.00 0.00 0.00 52 1016.3
20260902081126 59 84 1.0 0.0 0.00 0.00 0.00 53 1015.4
20260902081032 59 84 1.0 0.0 0.00 0.00 0.00 53 1015.4
20260902081013 59 50 2.0 0.0 0.00 0.00 0.00 52 1015.3
20260902080941 59 84 1.0 0.0 0.00 0.00 0.00 53 1015.4
20260902080931 59 84 1.0 1.0 0.00 0.00 0.00 53 1015.4
20260902080920 59 50 2.0 0.0 0.00 0.00 0.00 52 1015.3
20260902080757 59 53 1.0 1.0 0.00 0.00 0.00 52 1016.2
20260902080726 59 50 2.0 0.0 0.00 0.00 0.00 52 1015.3
20260902080645 59 50 2.0 0.0 0.00 0.00 0.00 52 1015.3
20260902080504 59 50 2.0 0.0 0.00 0.00 0.00 53 1015.3
20260902080457 59 50 2.0 0.0 0.00 0.00 0.00 52 1015.3
20260902080427 59 50 2.0 0.0 0.00 0.00 0.00 52 1015.3
20260902080357 59 50 2.0 0.0 0.00 0.00 0.00 52 1015.3
20260902080338 60 50 2.0 2.0 0.00 0.00 0.00 51 1015.3
20260902080327 59 50 2.0 0.0 0.00 0.00 0.00 52 1015.3
20260902080256 59 50 2.0 0.0 0.00 0.00 0.00 52 1015.3
20260902080254 59 64 0.0 1.0 0.00 0.00 0.00 51 1016.3
20260902080227 59 50 2.0 0.0 0.00 0.00 0.00 51 1015.3
20260902080208 60 79 1.0 0.0 0.00 0.00 0.00 52 1015.3
20260902080204 60 79 1.0 0.0 0.00 0.00 0.00 51 1015.3
20260902080200 59 50 2.0 0.0 0.00 0.00 0.00 51 1015.3
20260902080149 59 50 2.0 0.0 0.00 0.00 0.00 52 1015.3
20260902080137 59 50 2.0 0.0 0.00 0.00 0.00 52 1015.3
20260902080126 60 50 2.0 0.0 0.00 0.00 0.00 52 1015.3
20260902075826 60 79 1.0 0.0 0.00 0.00 0.00 52 1015.3
20260902075753 60 49 2.0 2.0 0.00 0.00 0.00 51 1016.2
20260902075742 60 79 1.0 0.0 0.00 0.00 0.00 51 1015.3
20260902075548 60 79 1.0 0.0 0.00 0.00 0.00 52 1015.3
20260902075537 60 79 1.0 0.0 0.00 0.00 0.00 52 1015.3
20260902075357 60 79 1.0 0.0 0.00 0.00 0.00 52 1015.3
20260902075327 60 79 1.0 0.0 0.00 0.00 0.00 53 1015.3
20260902075311 60 50 0.0 0.0 0.00 0.00 0.00 50 1015.2
20260902075256 60 79 1.0 0.0 0.00 0.00 0.00 52 1015.3
20260902075249 60 76 1.0 2.0 0.00 0.00 0.00 52 1016.3
20260902075227 60 79 1.0 0.0 0.00 0.00 0.00 51 1015.3
20260902075137 60 50 0.0 0.0 0.00 0.00 0.00 50 1015.2
20260902075127 60 79 1.0 0.0 0.00 0.00 0.00 51 1015.3
20260902075032 60 79 1.0 0.0 0.00 0.00 0.00 51 1015.3
20260902075012 60 50 0.0 0.0 0.00 0.00 0.00 51 1015.2
20260902075006 60 50 0.0 0.0 0.00 0.00 0.00 52 1015.2
20260902074959 60 79 1.0 0.0 0.00 0.00 0.00 51 1015.3
20260902074949 60 79 1.0 0.0 0.00 0.00 0.00 50 1015.3
20260902074939 60 79 1.0 1.0 0.00 0.00 0.00 50 1015.3
20260902074815 60 50 0.0 0.0 0.00 0.00 0.00 53 1015.2
20260902074808 60 50 0.0 0.0 0.00 0.00 0.00 50 1015.2
20260902074749 60 39 0.0 3.0 0.00 0.00 0.00 50 1015.9
20260902074641 60 50 0.0 0.0 0.00 0.00 0.00 54 1015.2
20260902074637 60 50 0.0 0.0 0.00 0.00 0.00 50 1015.2
20260902074626 60 50 0.0 0.0 0.00 0.00 0.00 50 1015.2
20260902074326 60 50 0.0 0.0 0.00 0.00 0.00 51 1015.2
20260902074308 60 50 0.0 0.0 0.00 0.00 0.00 52 1015.2
20260902074245 60 63 2.0 4.0 0.00 0.00 0.00 52 1016.0
20260902074134 60 50 0.0 0.0 0.00 0.00 0.00 53 1015.2
20260902074122 60 50 0.0 0.0 0.00 0.00 0.00 54 1015.2
20260902073927 60 50 0.0 0.0 0.00 0.00 0.00 54 1015.2
20260902073858 60 50 0.0 1.0 0.00 0.00 0.00 54 1015.2
20260902073826 60 74 0.0 0.0 0.00 0.00 0.00 54 1015.1
20260902073801 60 74 0.0 0.0 0.00 0.00 0.00 54 1015.1
20260902073750 60 74 0.0 0.0 0.00 0.00 0.00 54 1015.1
20260902073740 60 61 1.0 2.0 0.00 0.00 0.00 54 1016.2
20260902073727 60 74 0.0 0.0 0.00 0.00 0.00 54 1015.1
20260902073627 60 74 0.0 0.0 0.00 0.00 0.00 55 1015.1
20260902073605 61 74 0.0 0.0 0.00 0.00 0.00 54 1015.1
20260902073527 60 74 0.0 0.0 0.00 0.00 0.00 54 1015.1
20260902073502 60 74 0.0 0.0 0.00 0.00 0.00 54 1015.1
20260902073427 60 74 0.0 0.0 0.00 0.00 0.00 54 1015.1
20260902073409 60 74 0.0 0.0 0.00 0.00 0.00 54 1015.1
20260902073249 61 74 0.0 0.0 0.00 0.00 0.00 54 1015.1
20260902073238 61 74 0.0 0.0 0.00 0.00 0.00 55 1015.1
20260902073236 61 89 0.0 2.0 0.00 0.00 0.00 54 1015.9
20260902073027 61 74 0.0 0.0 0.00 0.00 0.00 54 1015.1
20260902072958 61 74 0.0 0.0 0.00 0.00 0.00 54 1015.1
20260902072928 61 74 0.0 0.0 0.00 0.00 0.00 54 1015.1
20260902072859 61 74 0.0 1.0 0.00 0.00 0.00 54 1015.1
20260902072826 61 71 0.0 0.0 0.00 0.00 0.00 54 1015.0
20260902072735 61 71 0.0 0.0 0.00 0.00 0.00 54 1015.0
20260902072732 61 52 1.0 2.0 0.00 0.00 0.00 54 1015.9
20260902072727 61 71 0.0 0.0 0.00 0.00 0.00 54 1015.0
20260902072658 61 71 0.0 0.0 0.00 0.00 0.00 54 1015.0
20260902072626 61 71 0.0 0.0 0.00 0.00 0.00 54 1015.0
20260902072527 61 71 0.0 0.0 0.00 0.00 0.00 54 1015.0
20260902072458 61 71 0.0 0.0 0.00 0.00 0.00 54 1015.0
20260902072428 61 71 0.0 0.0 0.00 0.00 0.00 54 1015.0
20260902072415 61 71 0.0 2.0 0.00 0.00 0.00 54 1015.0
20260902072408 61 71 0.0 0.0 0.00 0.00 0.00 55 1015.0
20260902072228 61 75 1.0 3.0 0.00 0.00 0.00 54 1016.0
20260902072156 61 71 0.0 0.0 0.00 0.00 0.00 54 1015.0
20260902072126 61 71 0.0 0.0 0.00 0.00 0.00 54 1015.0
20260902072029 61 71 0.0 0.0 0.00 0.00 0.00 54 1015.0
20260902072009 61 71 0.0 0.0 0.00 0.00 0.00 54 1015.0
20260902071833 61 18 2.0 0.0 0.00 0.00 0.00 54 1014.9
20260902071827 61 18 2.0 0.0 0.00 0.00 0.00 54 1014.9
20260902071757 61 18 2.0 0.0 0.00 0.00 0.00 54 1014.9
20260902071726 61 18 2.0 0.0 0.00 0.00 0.00 54 1014.9
20260902071724 61 56 1.0 2.0 0.00 0.00 0.00 54 1015.9
20260902071656 61 18 2.0 0.0 0.00 0.00 0.00 54 1014.9
20260902071626 61 18 2.0 0.0 0.00 0.00 0.00 54 1014.9
20260902071604 61 18 2.0 0.0 0.00 0.00 0.00 54 1014.9
20260902071557 61 18 2.0 0.0 0.00 0.00 0.00 54 1014.9
20260902071526 61 18 2.0 0.0 0.00 0.00 0.00 54 1014.9
20260902071508 61 18 2.0 0.0 0.00 0.00 0.00 54 1014.9
20260902071326 61 18 2.0 0.0 0.00 0.00 0.00 54 1014.9
20260902071306 61 48 1.0 0.0 0.00 0.00 0.00 54 1014.6
20260902071255 61 18 2.0 0.0 0.00 0.00 0.00 54 1014.9
20260902071219 61 62 2.0 4.0 0.00 0.00 0.00 54 1015.7
20260902071059 61 18 2.0 0.0 0.00 0.00 0.00 54 1014.9
20260902071027 61 18 2.0 0.0 0.00 0.00 0.00 54 1014.9
20260902070934 61 48 1.0 0.0 0.00 0.00 0.00 53 1014.6
20260902070930 61 18 2.0 0.0 0.00 0.00 0.00 54 1014.9
20260902070920 61 18 2.0 2.0 0.00 0.00 0.00 54 1014.9
20260902070906 61 48 1.0 0.0 0.00 0.00 0.00 54 1014.6
20260902070727 61 48 1.0 0.0 0.00 0.00 0.00 54 1014.6
20260902070715 61 45 2.0 4.0 0.00 0.00 0.00 54 1016.0
20260902070657 61 48 1.0 0.0 0.00 0.00 0.00 54 1014.6
20260902070633 61 48 1.0 0.0 0.00 0.00 0.00 53 1014.6
20260902070626 61 48 1.0 0.0 0.00 0.00 0.00 53 1014.6
20260902070557 61 48 1.0 0.0 0.00 0.00 0.00 53 1014.6
20260902070526 61 48 1.0 0.0 0.00 0.00 0.00 54 1014.6
20260902070453 61 48 1.0 0.0 0.00 0.00 0.00 53 1014.6
20260902070319 61 48 1.0 0.0 0.00 0.00 0.00 53 1014.6
20260902070309 61 48 1.0 0.0 0.00 0.00 0.00 54 1014.6
20260902070214 61 28 2.0 2.0 0.00 0.00 0.00 53 1015.8
20260902070132 61 16 4.0 0.0 0.00 0.00 0.00 54 1014.8
20260902070127 61 48 1.0 0.0 0.00 0.00 0.00 54 1014.6
20260902070108 61 48 1.0 0.0 0.00 0.00 0.00 53 1014.6
20260902070028 61 48 1.0 0.0 0.00 0.00 0.00 53 1014.6
20260902070010 61 16 4.0 0.0 0.00 0.00 0.00 53 1014.8
20260902065934 61 48 1.0 0.0 0.00 0.00 0.00 53 1014.6
20260902065858 61 48 1.0 2.0 0.00 0.00 0.00 53 1014.6